[[{"header":{"parameterUnit":"m.s-1","parameterCategory":1,"la1":30.6,"la2":29.2853,"lo1":-89.7004,"lo2":-87.6739,"dy":0.0162,"dx":0.0183,"nx":112,"ny":82,"refTime":"2023-10-01T06:00:00:Z","depth":0,"parameterNumber":2,"parameterNumberName":"U-component_of_WINDS"},"data":[0.0,0.0,0.0,0.0,0.0,0.0,0.0,0.0,0.0,0.0,0.0,0.0,0.0,0.0,0.0,0.0,0.0,0.0,0.0,0.0,0.0,0.0,0.0,0.0,0.0,0.0,0.0,0.0,0.0,0.0,0.0,0.0,0.0,0.0,0.0,0.0,0.0,0.0,0.0,0.0,0.0,0.0,0.0,0.0,0.0,0.0,0.0,0.0,0.0,0.0,0.0,0.0,0.0,0.0,0.0,0.0,0.0,0.0,0.0,0.0,0.0,0.0,0.0,0.0,0.0,0.0,0.0,0.0,0.0,0.0,0.0,0.0,0.0,0.0,0.0,0.0,0.0,0.0,0.0,0.0,0.0,0.0,0.0,0.0,0.0,0.0,0.0,0.0,0.0,0.0,0.8088,0.8287,1.0735,1.2855,1.4174,1.5783,1.6565,1.6324,0.0,0.0,0.0,0.0,0.0,0.0,0.0,0.0,0.0,0.0,0.0,0.0,0.0,0.0,0.0,0.0,0.0,0.0,0.0,0.0,0.0,0.0,0.0,0.0,0.0,0.0,0.0,0.0,0.0,0.0,0.0,0.0,0.0,0.0,0.0,0.0,0.0,0.0,0.0,0.0,0.0,0.0,0.0,0.0,0.0,0.0,0.0,0.0,0.0,0.0,0.0,0.0,0.0,0.0,0.0,0.0,0.0,0.0,0.0,0.0,0.0,0.0,0.0,0.0,0.0,0.0,0.0,0.0,0.0,0.0,0.0,0.0,0.0,0.0,0.0,0.0,0.0,0.0,0.0,0.0,0.0,0.0,0.0,0.0,0.0,0.0,0.0,0.0,0.0,0.0,0.0,0.0,0.0,0.0,0.0,0.0,0.0,0.0,0.0,0.0,0.0,0.0,0.0,0.0,0.8428,0.9583,1.1051,1.2611,1.4163,1.4351,1.4935,1.6211,0.0,0.0,0.0,0.0,0.0,0.0,0.0,0.0,0.0,0.0,0.0,0.0,0.0,0.0,0.0,0.0,0.0,0.0,0.0,0.0,0.0,0.0,0.0,0.0,0.0,0.0,0.0,0.0,0.0,0.0,0.0,0.0,0.0,0.0,0.0,0.0,0.0,0.0,0.0,0.0,0.0,0.0,0.0,0.0,0.0,0.0,0.0,0.0,0.0,0.0,0.0,0.0,0.0,0.0,0.0,0.0,0.0,0.0,0.0,0.0,0.0,0.0,0.0,0.0,0.0,0.0,0.0,0.0,0.0,0.0,0.0,0.0,0.0,0.0,0.0,0.0,0.0,0.0,0.0,0.0,0.0,0.0,0.0,0.0,0.0,0.0,0.0,0.0,0.0,0.0,0.0,0.0,0.0,0.0,0.0,0.0,0.0,0.0,0.0,0.0,0.0,0.0,0.0,0.9682,1.0337,1.095,1.2207,1.3268,1.4013,1.4605,1.5252,1.5971,1.5606,0.0,0.0,0.0,0.0,0.0,0.0,0.0,0.0,0.0,0.0,0.0,0.0,0.0,0.0,0.0,0.0,0.0,0.0,0.0,0.0,0.0,0.0,0.0,0.0,0.0,0.0,0.0,0.0,0.0,0.0,0.0,0.0,0.0,0.0,0.0,0.0,0.0,0.0,0.0,0.0,0.0,0.0,0.0,0.0,0.0,0.0,0.0,0.0,0.0,0.0,0.0,0.0,0.0,0.0,0.0,0.0,0.0,0.0,0.0,0.0,0.0,0.0,0.0,0.0,0.0,0.0,0.0,0.0,0.0,0.0,0.0,0.0,0.0,0.0,0.0,0.0,0.0,0.0,0.0,0.0,0.0,0.0,0.0,0.0,0.0,0.0,0.0,0.0,0.0,0.0,0.0,0.0,0.0,0.0,0.0,0.0,0.0,0.0,0.0,0.0,0.0,0.0,1.1585,1.2377,1.2377,1.356,1.434,1.434,1.5248,1.5676,1.5367,1.5343,0.0,0.0,0.0,0.0,0.0,0.0,0.0,0.0,0.0,0.0,0.0,0.0,0.0,0.0,0.0,0.0,0.0,0.0,0.0,0.0,0.0,0.0,0.0,0.0,0.0,0.0,0.0,0.0,0.0,0.0,0.0,0.0,0.0,0.0,0.0,0.0,0.0,0.0,0.0,0.0,0.0,0.0,0.0,0.0,0.0,0.0,0.0,0.0,0.0,0.0,0.0,0.0,0.0,0.0,0.0,0.0,0.0,0.0,0.0,0.0,0.0,0.0,0.0,0.0,0.0,0.0,0.0,0.0,0.0,0.0,0.0,0.0,0.0,0.0,0.0,0.0,0.0,0.0,0.0,0.0,0.0,0.0,0.0,0.0,0.0,0.0,0.0,0.0,0.0,0.0,0.0,0.0,0.0,0.0,0.0,0.0,0.0,0.0,0.0,0.0,0.0,0.0,1.2933,1.3752,1.3752,1.4902,1.5666,1.5666,1.5761,1.5296,1.4124,1.4016,0.0,0.0,0.0,0.0,0.0,0.0,0.0,0.0,0.0,0.0,0.0,0.0,0.0,0.0,0.0,0.0,0.0,0.0,0.0,0.0,0.0,0.0,0.0,0.0,0.0,0.0,0.0,0.0,0.0,0.0,0.0,0.0,0.0,0.0,0.0,0.0,0.0,0.0,0.0,0.0,0.0,0.0,0.0,0.0,0.0,0.0,0.0,0.0,0.0,0.0,0.0,0.0,0.0,0.0,0.0,0.0,0.0,0.0,0.0,0.0,0.0,0.0,0.0,0.0,0.0,0.0,0.0,0.0,0.0,0.0,0.0,0.0,0.0,0.0,0.0,0.0,0.0,0.0,0.0,0.0,0.0,0.0,0.0,0.0,0.0,0.0,0.0,0.0,0.0,0.0,0.0,0.0,0.0,0.0,0.0,0.0,0.0,0.0,0.0,0.0,0.0,0.0,1.4268,1.5069,0.0,1.551,1.5808,1.5808,1.5808,1.5272,1.3968,0.0,0.0,0.0,0.0,0.0,0.0,0.0,0.0,0.0,0.0,0.0,0.0,0.0,0.0,0.0,0.0,0.0,0.0,0.0,0.0,0.0,0.0,0.0,0.0,0.0,0.0,0.0,0.0,0.0,0.0,0.0,0.0,0.0,0.0,0.0,0.0,0.0,0.0,0.0,0.0,0.0,0.0,0.0,0.0,0.0,0.0,0.0,0.0,0.0,0.0,0.0,0.0,0.0,0.0,0.0,0.0,0.0,0.0,0.0,0.0,0.0,0.0,0.0,0.0,0.0,0.0,0.0,0.0,0.0,0.0,0.0,0.0,0.0,0.0,0.0,0.0,0.0,0.0,0.0,0.0,0.0,0.0,0.0,0.0,0.0,0.0,0.0,0.0,0.0,0.0,0.0,0.0,0.0,0.0,0.0,0.0,0.0,0.0,0.0,0.0,0.0,0.0,1.4268,1.5272,1.5808,0.0,1.5439,1.5188,1.5188,1.4806,1.4028,1.274,0.0,0.0,0.0,0.0,0.0,0.0,0.0,0.0,0.0,0.0,0.0,0.0,0.0,0.0,0.0,0.0,0.0,0.0,0.0,0.0,0.0,0.0,0.0,0.0,0.0,0.0,0.0,0.0,0.0,0.0,0.0,0.0,0.0,0.0,0.0,0.0,0.0,0.0,0.0,0.0,0.0,0.0,0.0,0.0,0.0,0.0,0.0,0.0,0.0,0.0,0.0,0.0,0.0,0.0,0.0,0.0,0.0,0.0,0.0,0.0,0.0,0.0,0.0,0.0,0.0,0.0,0.0,0.0,0.0,0.0,0.0,0.0,0.0,0.0,0.0,0.0,0.0,0.0,0.0,0.0,0.0,0.0,0.0,0.0,0.0,0.0,0.0,0.0,0.0,0.0,0.0,0.0,0.0,0.0,0.0,0.0,0.0,0.0,0.0,0.0,0.0,0.0,1.5462,1.5784,1.5784,1.5784,1.4639,1.3872,1.3872,1.2668,1.1365,0.0,0.0,0.0,0.0,0.0,0.0,0.0,0.0,0.0,0.0,0.0,0.0,0.0,0.0,0.0,0.0,0.0,0.0,0.0,0.0,0.0,0.0,0.0,0.0,0.0,0.0,0.0,0.0,0.0,0.0,0.0,0.0,0.0,0.0,0.0,0.0,0.0,0.0,0.0,0.0,0.0,0.0,0.0,0.0,0.0,0.0,0.0,0.0,0.0,0.0,0.0,0.0,0.0,0.0,0.0,0.0,0.0,0.0,0.0,0.0,0.0,0.0,0.0,0.0,0.0,0.0,0.0,0.0,0.0,0.0,0.0,0.0,0.0,0.0,0.0,0.0,0.0,0.0,0.0,0.0,0.0,0.0,0.0,0.0,0.0,0.0,0.0,0.0,0.0,0.0,0.0,0.0,0.0,0.0,0.0,0.0,0.0,0.0,0.0,0.0,0.0,0.0,0.0,1.5462,1.5021,1.4459,1.4459,1.3271,1.2498,1.2498,1.2145,1.1365,1.0076,0.0,0.0,0.0,0.0,0.0,0.0,0.0,0.0,0.0,0.0,0.0,0.0,0.0,0.0,0.0,0.0,0.0,0.0,0.0,0.0,0.0,0.0,0.0,0.0,0.0,0.0,0.0,0.0,0.0,0.0,0.0,0.0,0.0,0.0,0.0,0.0,0.0,0.0,0.0,0.0,0.0,0.0,0.0,0.0,0.0,0.0,0.0,0.0,0.0,0.0,0.0,0.0,0.0,0.0,0.0,0.0,0.0,0.0,0.0,0.0,0.0,0.0,0.0,0.0,0.0,0.0,0.0,0.0,0.0,0.0,0.0,0.0,0.0,0.0,0.0,0.0,0.0,0.0,0.0,0.0,0.0,0.0,0.0,0.0,0.0,0.0,0.0,0.0,0.0,0.0,0.0,0.0,0.0,0.0,0.0,0.0,0.0,0.0,0.0,0.0,0.0,0.0,1.398,1.3596,1.3102,1.3102,1.1916,1.1146,1.1146,1.0656,0.9993,0.9161,0.0,0.0,0.0,0.0,0.0,0.0,0.0,0.0,0.0,0.0,0.0,0.0,0.0,0.0,0.0,0.0,0.0,0.0,0.0,0.0,0.0,0.0,0.0,0.0,0.0,0.0,0.0,0.0,0.0,0.0,0.0,0.0,0.0,0.0,0.0,0.0,0.0,0.0,0.0,0.0,0.0,0.0,0.0,0.0,0.0,0.0,0.0,0.0,0.0,0.0,0.0,0.0,0.0,0.0,0.0,0.0,0.0,0.0,0.0,0.0,0.0,0.0,0.0,0.0,0.0,0.0,0.0,0.0,0.0,0.0,0.0,0.0,0.0,0.0,0.0,0.0,0.0,0.0,0.0,0.0,0.0,0.0,0.0,0.0,0.0,0.0,0.0,0.0,0.0,0.0,0.0,0.0,0.0,0.0,0.0,0.0,0.0,0.0,0.0,0.0,0.0,0.0,1.1755,1.1804,1.1731,1.1731,1.0583,0.9805,0.9805,0.8701,0.7952,0.7817,0.0,0.0,0.0,0.0,0.0,0.0,0.0,0.0,0.0,0.0,0.0,0.0,0.0,0.0,0.0,0.0,0.0,0.0,0.0,0.0,0.0,0.0,0.0,0.0,0.0,0.0,0.0,0.0,0.0,0.0,0.0,0.0,0.0,0.0,0.0,0.0,0.0,0.0,0.0,0.0,0.0,0.0,0.0,0.0,0.0,0.0,0.0,0.0,0.0,0.0,0.0,0.0,0.0,0.0,0.0,0.0,0.0,0.0,0.0,0.0,-0.3204,-0.1039,0.0,0.0,0.0,0.0,0.0,0.0,0.0,0.0,0.0,0.0,0.0,0.0,0.0,0.0,0.0,0.0,0.0,0.0,0.0,0.0,0.0,0.0,0.0,0.0,0.0,0.0,0.0,0.0,0.0,0.0,0.0,0.0,0.0,0.0,0.0,0.0,0.0,0.0,0.0,0.0,1.1755,1.1023,1.0411,1.0411,0.9213,0.8428,0.8428,0.8162,0.7975,0.7966,0.7975,0.0,0.0,0.0,0.0,0.0,0.0,0.0,0.0,0.0,0.0,0.0,0.0,0.0,0.0,0.0,0.0,0.0,0.0,0.0,0.0,0.0,0.0,0.0,0.0,0.0,0.0,0.0,0.0,0.0,0.0,0.0,0.0,0.0,0.0,0.0,0.0,0.0,0.0,0.0,0.0,0.0,0.0,0.0,0.0,0.0,0.0,0.0,0.0,0.0,0.0,0.0,0.0,0.0,0.0,0.0,0.0,0.0,0.0,0.0,-0.5095,-0.2977,0.0,0.0,0.0,0.0,0.0,0.0,0.0,0.0,0.0,0.0,0.0,0.0,0.0,0.0,0.0,0.0,0.0,0.0,0.0,0.0,0.0,0.0,0.0,0.0,0.0,0.0,0.0,0.0,0.0,0.0,0.0,0.0,0.0,0.0,0.0,0.0,0.0,0.0,0.0,0.0,0.8992,0.9057,0.9048,0.9048,0.8411,0.7988,0.7988,0.7988,0.7986,0.7912,0.7973,0.0,0.0,0.0,0.0,0.0,0.0,0.0,0.0,0.0,0.0,0.0,0.0,0.0,0.0,0.0,0.0,0.0,0.0,0.0,0.0,0.0,0.0,0.0,0.0,0.0,0.0,0.0,0.0,0.0,0.0,0.0,0.0,0.0,0.0,0.0,0.0,0.0,0.0,0.0,0.0,0.0,0.0,0.0,0.0,0.0,0.0,0.0,0.0,0.0,0.0,0.0,0.0,0.0,-1.2896,-1.242,-1.1356,-1.1383,-1.0591,-0.9125,-0.7311,-0.5397,-0.3503,-0.1958,0.0,0.0,0.0,0.0,0.0,0.0,0.0,0.0,0.0,0.0,0.0,0.0,0.0,0.0,0.0,0.0,0.0,0.0,0.0,0.0,0.0,0.0,0.0,0.0,0.3243,0.4854,0.7102,0.0,0.0,0.0,0.0,0.0,0.0,0.0,0.0,0.0,0.0,0.0,0.5652,0.6631,0.731,0.731,0.731,0.731,0.731,0.731,0.7359,0.749,0.7594,0.7705,0.0,0.0,0.0,0.0,0.0,0.0,0.0,0.0,0.0,0.0,0.0,0.0,0.0,0.0,0.0,0.0,0.0,0.0,0.0,0.0,0.0,0.0,0.0,0.0,0.0,0.0,0.0,0.0,0.0,0.0,0.0,0.0,-1.733,-1.5674,0.0,0.0,0.0,0.0,0.0,0.0,0.0,0.0,0.0,0.0,0.0,0.0,0.0,-1.3057,-1.3253,-1.2454,-1.1938,-1.1789,-1.2338,-1.2357,-1.1982,-1.2118,-1.1875,-1.1375,-1.109,0.0,-0.5587,-0.5245,0.0,0.0,0.0,0.0,0.0,0.0,0.0,0.0,0.0,0.0,0.0,0.0,0.0,0.0,0.0,0.0,0.0,0.0,0.0,0.0,0.0,0.0,0.2213,0.2188,0.3349,0.4509,0.0,0.4666,0.4947,0.6049,0.6287,0.0,0.0,0.0,0.0,0.0,0.0,0.0,0.4268,0.4418,0.4518,0.4518,0.4518,0.4518,0.4518,0.4518,0.5014,0.6155,0.6246,0.6775,0.7937,0.7986,0.0,0.0,0.0,0.0,0.0,0.0,0.0,0.0,0.0,0.0,0.0,0.0,0.0,0.0,0.0,0.0,0.0,0.0,0.0,0.0,0.0,0.0,0.0,0.0,0.0,0.0,0.0,0.0,0.0,-1.8092,-1.7665,-1.5671,-1.7197,-1.7067,0.0,0.0,0.0,0.0,0.0,0.0,0.0,0.0,0.0,-1.4251,-1.2933,-1.2324,-1.2662,-1.2352,-1.2206,-1.2206,-1.2596,-1.273,-1.2608,-1.2676,-1.2596,-1.2467,-1.2467,-1.1415,-0.9557,-0.8045,-0.6966,-0.63,0.0,0.0,0.0,0.0,-0.7079,-0.5619,-0.5725,-0.4674,-0.3065,-0.1979,0.0,0.0,0.0,0.0,0.0,0.0,0.0,-0.106,0.0,0.0,0.0968,0.097,0.1469,0.1961,0.1856,0.1789,0.2376,0.0,0.5037,0.5102,0.4913,0.0,0.0,0.0,0.0,0.2869,0.2874,0.3523,0.3998,0.4006,0.4002,0.4011,0.3996,0.3989,0.4243,0.4847,0.4867,0.515,0.5733,0.6589,0.6984,0.0,0.0,0.0,0.0,0.0,0.0,0.0,0.0,0.0,0.0,0.0,0.0,0.0,0.0,0.0,0.0,0.0,0.0,0.0,0.0,0.0,0.0,0.0,0.0,0.0,0.0,0.0,0.0,-1.8635,-1.7673,-1.5514,-1.6826,-1.635,0.0,0.0,0.0,0.0,0.0,0.0,-1.4383,-1.3332,-1.3037,-1.3712,-1.2723,-1.2305,-1.2569,-1.2794,-1.2916,-1.2922,-1.3112,-1.3207,-1.3132,-1.3132,-1.3132,-1.3057,-1.3057,-1.284,-1.2385,-1.0432,-0.9559,-0.9416,-0.92,-0.8968,-0.8966,-1.0279,-0.9316,-0.7393,-0.7522,-0.6142,-0.4062,-0.2634,-0.2148,-0.19,-0.0441,0.0,0.0,0.0,0.0,-0.1376,-0.0286,0.0,0.0,0.0,0.0,0.0,0.0,0.0,0.0697,0.0,0.3705,0.3771,0.3526,0.0,0.0,0.0,0.0,0.1501,0.1488,0.2364,0.2983,0.2969,0.2966,0.2975,0.2984,0.2969,0.3132,0.3463,0.3497,0.3636,0.3978,0.5094,0.5647,0.55,0.0,0.0,0.0,0.0,0.0,0.0,0.0,0.0,0.0,0.0,0.0,0.0,0.0,0.0,0.0,0.0,0.0,0.0,0.0,0.0,0.0,0.0,0.0,0.0,0.0,0.0,0.0,0.0,0.0,-1.5927,-1.6376,0.0,0.0,0.0,0.0,-1.3119,-1.3501,-1.3306,-1.2046,-1.2196,-1.2535,-1.3034,-1.3111,-1.318,-1.3342,-1.3463,-1.3538,-1.3545,-1.3687,-1.3687,-1.3551,-1.3551,-1.3437,-1.32,-1.32,-1.2996,-1.2652,-1.2289,-1.1868,-1.1435,-1.131,-1.1155,-1.1042,-1.0914,-0.8704,-0.5719,-0.5578,-0.3249,-0.0274,-0.0171,-0.0135,-0.0131,-0.0032,-0.0064,0.0,0.0,-0.0064,-0.0097,-0.0033,0.0,0.0,0.0,0.0,0.0,0.0,0.0,0.0411,0.0,0.2116,0.2112,0.2102,0.0,0.1554,0.0301,0.0109,0.0109,0.0107,0.016,0.0213,0.0213,0.0213,0.0213,0.0213,0.0189,0.0735,0.2011,0.2099,0.2674,0.395,0.4064,0.4116,0.41,0.4166,0.0,0.0,0.0,0.0,0.0,0.0,0.0,0.0,0.0,0.0,0.0,0.0,0.0,0.0,0.0,0.0,0.0,0.0,0.0,0.0,0.0,0.0,0.0,0.0,0.0,0.0,0.0,0.0,-1.6753,-1.739,0.0,-1.2392,-1.3714,-1.4168,-1.2619,-1.2801,-1.2877,-1.271,-1.28,-1.3024,-1.3376,-1.3437,-1.3539,-1.3639,-1.3693,-1.372,-1.3727,-1.3774,-1.3774,-1.3678,-1.2174,-1.1404,-1.1265,-0.9682,-0.8911,-0.8718,-0.8604,-0.9137,-1.0033,-0.9872,-0.8905,-0.7603,-0.7607,-0.6753,-0.5613,-0.5633,-0.482,-0.3514,-0.2271,-0.103,0.0,0.0,0.0,0.0,0.0,0.0,0.0,0.0,0.0,0.0,0.0,0.0,0.0,0.0,0.0,0.0126,0.0618,0.0724,0.071,0.0706,0.0722,0.0542,0.0086,0.0,0.0,0.0,0.0,0.0,0.0,0.0,0.0,0.0,0.0,0.0194,0.0694,0.0705,0.0939,0.1394,0.2326,0.2807,0.2705,0.3636,0.4141,0.0,0.0,0.0,0.0,0.0,0.0,0.0,0.0,0.0,0.0,0.0,0.0,0.0,0.0,0.0,0.0,0.0,0.0,0.0,0.0,0.0,0.0,0.0,0.0,0.0,-1.7991,-1.685,-1.6425,-1.6736,-1.5693,-1.2353,-1.3277,-1.3643,-1.2661,-1.2773,-1.303,-1.3376,-1.3486,-1.3593,-1.3851,-1.3858,-1.3899,-1.395,-1.3158,-1.2768,-1.2724,-1.1932,-1.1519,-1.1431,-0.984,-0.9151,-0.8987,-0.7405,-0.6628,-0.6506,-0.6496,-0.6767,-0.7212,-0.7782,-0.7137,-0.5841,-0.5856,-0.5407,-0.4659,-0.4072,-0.383,-0.3622,-0.2342,-0.1052,0.0,0.0,0.0437,0.0912,0.0898,0.0901,0.0908,0.0908,0.0471,0.0,0.0,0.0,0.0,0.0,0.0,0.0,0.0,0.0,0.0,0.0,0.0,0.0,0.0,0.0,0.0,0.0,0.0,0.0,0.0,0.0,0.0,0.0,0.0,0.0,0.0,0.0,0.0,0.0,0.0929,0.1405,0.1325,0.2297,0.2774,0.2774,0.0,0.0,0.0,0.0,0.0,0.0,0.0,0.0,0.0,0.0,0.0,0.0,0.0,0.0,0.0,0.0,0.0,0.0,0.0,0.0,0.0,0.0,0.0,-1.6342,-1.5809,-1.5152,-1.492,-1.4249,-1.347,-1.2637,-1.3078,-1.3363,-1.3254,-1.3388,-1.3575,-1.3716,-1.3827,-1.3974,-1.421,-1.4129,-1.4129,-1.4173,-1.1793,-1.0584,-1.0584,-0.8308,-0.7109,-0.6906,-0.6902,-0.6778,-0.6583,-0.6508,-0.6434,-0.6314,-0.6295,-0.4989,-0.3224,-0.5344,-0.6176,-0.6091,-0.59,-0.4609,-0.2721,-0.0637,0.0074,0.0109,0.0144,0.0179,0.0178,0.0173,0.1374,0.2702,0.2699,0.2655,0.2622,0.262,0.1311,0.0,0.0,0.0,0.0,0.0,0.0,0.0,0.0,0.0,0.0,0.0,0.0,0.0,0.0,0.0,0.0,0.0,0.0,0.0,0.0,0.0,0.0,0.0,0.0,0.0,0.0,0.0,0.0,0.0,0.0,0.0,0.0,0.0,0.003,0.0089,0.0,0.0,0.0,0.0,0.0,0.0,0.0,0.0,0.0,0.0,0.0,0.0,0.0,0.0,0.0,0.0,0.0,0.0,0.0,0.0,0.0,-1.1391,-1.2113,-1.5532,-1.4908,-1.413,-1.4314,-1.4227,-1.4034,-1.3675,-1.379,-1.3871,-1.3874,-1.2287,-1.1422,-1.1544,-0.9927,-0.9904,-1.1782,-1.0052,-0.9966,-1.1827,-0.9347,-0.8102,-0.8085,-0.9197,-0.8784,-0.7027,-0.7061,-0.6104,-0.4334,-0.2583,-0.1826,-0.1805,-0.1779,-0.143,-0.1049,-0.3157,-0.3053,-0.1723,-0.1663,-0.1295,-0.0562,0.1413,0.2097,0.2323,0.3758,0.4206,0.419,0.419,0.3579,0.285,0.284,0.1835,0.0726,0.0753,0.0376,0.0,0.0,0.0,0.0,0.0,0.0,0.0,0.0,0.0,0.0,0.0,0.0,0.0,0.0,0.0,0.0,0.0,0.0,0.0,0.0,0.0,0.0,0.0,0.0,0.0,0.0,0.0,0.0,0.0,0.0,0.0,0.0,0.0,0.0657,0.0,0.0,0.0,0.0,0.0,0.0,0.0,0.0,0.0,0.0,0.0,0.0,0.0,0.0,0.0,0.0,0.0,0.0,0.0,0.0,0.0,0.0,-0.8527,-0.9254,-1.1814,-1.2246,-1.2029,-1.1258,-1.1251,-1.1267,-1.1198,-1.1148,-1.1148,-1.1148,-0.9863,-0.9109,-0.9209,-0.7869,-0.8288,-1.0922,-0.8469,-0.8377,-1.1018,-0.746,-0.5639,-0.5626,-0.603,-0.5478,-0.4114,-0.4133,-0.337,-0.1996,-0.0611,0.0,0.0086,0.1008,0.1368,0.1151,0.0,0.0,0.0,0.0,0.1878,0.2787,0.3951,0.4275,0.4387,0.5512,0.5839,0.5801,0.5796,0.5526,0.5238,0.5248,0.4437,0.3558,0.3564,0.2385,0.1209,0.12,0.0582,0.0,0.0,0.0,0.0,0.0,0.0,0.0,0.0,0.0,0.0,0.0,0.0,0.0,0.0,0.0,0.0,0.0,0.0,0.0,0.0,0.0,0.0,0.0,0.0,0.0,0.0,0.0,0.0,0.0,0.0,0.2044,0.3908,0.3854,0.0,0.0,0.3383,0.423,0.0,0.0,0.0,0.0,0.0,0.0,0.0,0.0,0.0,0.0,0.0,0.0,0.0,0.0,0.0,0.0,-0.6135,-0.6325,-0.6305,-0.8252,-0.9052,-0.7287,-0.7115,-0.7115,-0.7115,-0.7115,-0.7118,-0.7084,-0.686,-0.6713,-0.6692,-0.6428,0.0,0.0,0.0,-0.7585,-1.0343,-0.5577,-0.3179,-0.3189,-0.1322,-0.0272,0.0,0.0,0.0135,0.0404,0.0665,0.0795,0.0969,0.2901,0.3703,0.3523,0.1517,0.0767,0.0959,0.2798,0.4704,0.6347,0.6566,0.0,0.0,0.6629,0.662,0.6511,0.6506,0.7482,0.8566,0.8579,0.8413,0.8238,0.8258,0.5764,0.3274,0.3268,0.1794,0.0352,0.0351,0.0176,0.0,0.0,0.0,0.0,0.0,0.0,0.0,0.0,0.0,0.0,0.0,0.0,0.0,0.0,0.0,0.0,0.0,0.0,0.0,0.0,0.0,0.0101,0.0331,0.0332,0.1192,0.3004,0.3041,0.3988,0.5938,0.5811,0.5918,0.6217,0.5848,0.6518,0.0,0.0,0.0,0.0,0.0,0.0,0.0,0.0,0.0,0.0,0.0,0.0,0.0,0.0,0.0,-0.3401,-0.3833,-0.3544,-0.1653,-0.3413,-0.5478,-0.6935,-0.7103,-0.7103,-0.7103,-0.7103,-0.7084,-0.7095,-0.5363,-0.4286,-0.4283,-0.2445,-0.2563,-0.5129,-0.2704,-0.2599,-0.5211,-0.2228,-0.0705,-0.0692,-0.2193,0.0,0.0,0.0,0.1072,0.2998,0.4906,0.572,0.5756,0.6188,0.6288,0.6132,0.5616,0.5419,0.544,0.5731,0.6099,0.6654,0.8123,0.862,0.885,1.0394,1.0909,1.0878,1.0891,1.0022,0.0,0.906,0.7943,0.6744,0.671,0.6181,0.5657,0.5633,0.4037,0.2484,0.2493,0.1174,0.0,0.0,0.0,0.0,0.0,0.0,0.0,0.0,0.0,0.0,0.0,0.0,0.0,0.0,0.0,0.0,0.0,0.0,0.0,0.0,0.0,0.0717,0.2279,0.2338,0.3231,0.5156,0.5214,0.6111,0.7931,0.7898,0.8663,1.0063,0.8305,0.7666,0.0,0.0,0.0,0.0,0.0,0.0,0.0,0.0,0.0,0.0,0.0,-0.3614,-0.2709,0.0,-0.1327,-0.1369,-0.1581,-0.1371,-0.0193,-0.1055,-0.2226,-0.3402,-0.3567,-0.3562,-0.3534,-0.3549,-0.3551,-0.3558,-0.2475,-0.1782,-0.1809,-0.0671,-0.1208,-0.3818,-0.1373,-0.1272,-0.3888,0.0048,0.1962,0.1923,0.2049,0.2672,0.3681,0.3699,0.4305,0.5407,0.6577,0.7092,0.7173,0.832,0.9396,1.0359,1.0273,0.9443,0.8229,0.8175,0.8758,0.9727,1.0647,1.0847,1.0913,1.1868,1.2166,1.2098,1.2098,1.1419,1.066,1.066,0.9944,0.9217,0.9191,0.8471,0.7747,0.7736,0.6175,0.4693,0.47,0.3889,0.315,0.3167,0.2292,0.1566,0.1566,0.0696,0.0,0.0,0.0,0.0,0.0,0.0,0.0,0.0,0.0,0.0,0.0,0.0969,0.2023,0.3099,0.3163,0.3553,0.4404,0.4466,0.5293,0.7117,0.7161,0.8119,1.0045,0.9903,1.0363,1.1382,1.0179,0.9599,0.0,0.0,0.0,0.0,0.0,0.0,0.0,-0.3226,-0.2163,-0.2173,-0.2186,-0.1735,-0.0263,0.0,0.0,0.0,0.0,0.0,0.0,0.0,0.0,0.0,0.0,0.0,0.0,0.0,0.0,0.0,0.0,0.0,0.0,0.0537,-0.0197,-0.2395,0.0199,0.0595,-0.1637,0.2663,0.4771,0.4623,0.6749,0.768,0.7439,0.7865,0.7993,0.7881,0.8315,0.8486,0.8659,1.0483,1.2265,1.3842,1.3842,1.2488,1.0576,1.0517,1.1481,1.2774,1.2786,1.2617,1.242,1.242,1.2377,1.2275,1.2275,1.2275,1.2275,1.2275,1.2275,1.2275,1.2275,1.1119,0.9932,0.9932,0.8403,0.6991,0.6971,0.6664,0.6394,0.638,0.4975,0.3801,0.3801,0.2421,0.0994,0.0146,0.0,0.0,0.0,0.0377,0.0644,0.065,0.1035,0.1304,0.1304,0.284,0.4542,0.6246,0.6356,0.6421,0.6626,0.6574,0.7385,0.9111,0.9141,0.9954,1.1624,1.1443,1.1485,1.1617,1.1472,1.1308,-0.2477,-0.181,-0.0572,-0.0589,-0.0471,-0.036,0.0,-0.0434,-0.03,-0.0315,-0.0322,-0.0232,-0.0047,0.0,0.0,0.0,0.0,0.0,0.0,0.0,0.0,0.0,0.0,0.0,0.0,0.0,0.0,0.0,0.0,0.0,0.0,0.2376,0.3555,0.3103,0.5986,0.7256,0.6637,0.7439,0.7662,0.7358,0.7674,0.7736,0.7638,0.9598,1.0505,1.058,1.2601,1.3489,1.3489,1.3786,1.3964,1.4091,1.4091,1.3753,1.3304,1.3076,1.3042,1.3146,1.3016,1.2955,1.2928,1.2928,1.2914,1.2901,1.2901,1.2901,1.2901,1.2901,1.2901,1.2901,1.2901,1.2741,1.2576,1.2576,1.0958,0.9402,0.942,0.7941,0.6659,0.6665,0.646,0.6304,0.6304,0.6092,0.4596,0.0614,0.0,0.0,0.0,0.177,0.3008,0.2932,0.4753,0.5947,0.5947,0.6158,0.6367,0.6456,0.6493,0.7209,0.876,0.8666,0.9494,1.1385,1.1428,1.155,1.1773,1.1948,1.1904,1.1773,1.1911,1.171,-0.092,-0.056,0.0,0.0,0.0,0.0,0.0,0.0,0.0,0.0,0.0,0.0,0.0,0.1341,0.2464,0.2427,0.3869,0.496,0.496,0.4925,0.4927,0.4851,0.3426,0.2396,0.2346,0.2323,0.3013,0.4708,0.4808,0.4883,0.4955,0.6052,0.6678,0.6626,0.7834,0.8399,0.8162,0.9806,1.0464,1.0135,1.1745,1.2319,1.2063,1.2986,1.3233,1.3052,1.3994,1.4373,1.4299,1.4299,1.4265,1.4204,1.4204,1.4109,1.3946,1.3736,1.3566,1.3431,1.337,1.3234,1.3125,1.3125,1.3071,1.3003,1.3003,1.3057,1.3125,1.3125,1.3186,1.3214,1.3214,1.3214,1.3214,1.3214,1.2553,1.1889,1.1795,1.1172,1.0554,1.0407,0.9422,0.862,0.866,0.7645,0.6186,0.4413,0.3993,0.3915,0.3915,0.4731,0.5308,0.5265,0.6136,0.7202,0.8411,0.8496,0.9018,1.0215,1.0284,1.052,1.1085,1.103,1.1302,1.1965,1.1965,1.2013,1.2094,1.2111,1.2111,1.2094,1.2111,1.1962,0.0955,0.1464,0.1981,0.2079,0.2189,0.2292,0.2217,0.2238,0.2272,0.2285,0.231,0.2037,0.1317,0.2813,0.4223,0.4189,0.5969,0.7585,0.8369,0.8486,0.8102,0.7248,0.5355,0.4383,0.5032,0.4481,0.5235,0.8123,0.8357,0.8385,0.8493,0.9243,0.9661,0.9585,1.0385,1.0745,1.0494,1.2455,1.3301,1.2929,1.4956,1.5711,1.5303,1.5221,1.4984,1.4638,1.459,1.4489,1.436,1.436,1.4333,1.4299,1.4299,1.4231,1.4122,1.4007,1.3808,1.3646,1.3646,1.3539,1.3356,1.3356,1.3288,1.3207,1.3207,1.3275,1.3356,1.3356,1.3437,1.3519,1.3519,1.3519,1.3519,1.3519,1.3519,1.3492,1.3383,1.3444,1.3458,1.3247,1.2035,1.1056,1.1103,0.9829,0.8851,0.8922,0.879,0.8205,0.6968,0.7338,0.7995,0.8574,0.8656,0.9262,1.0707,1.0829,1.1497,1.2943,1.3057,1.2941,1.2637,1.2549,1.24,1.2227,1.2179,1.222,1.2291,1.2254,1.2261,1.2291,1.2254,1.22,0.3413,0.5147,0.6975,0.7276,0.7731,0.7975,0.7783,0.7894,0.8043,0.805,0.8035,0.7222,0.4585,0.4168,0.4181,0.4197,0.4253,0.5327,0.8125,0.8376,0.7329,0.4653,0.4133,0.5032,0.765,0.5627,0.537,0.8253,0.848,0.8469,0.8476,1.1072,1.2503,1.2397,1.5197,1.6547,1.6061,1.629,1.6192,1.5803,1.5852,1.5771,1.5566,1.5316,1.5099,1.495,1.4801,1.4599,1.4502,1.4502,1.4421,1.4299,1.4299,1.4299,1.4292,1.4285,1.4095,1.3788,1.3788,1.3788,1.3774,1.3774,1.3774,1.3774,1.3774,1.3774,1.3774,1.3774,1.3781,1.3781,1.3781,1.3781,1.3781,1.3781,1.3781,1.3781,1.3781,1.3781,1.3781,1.3774,1.3732,1.3689,1.3689,1.3653,1.3567,1.3617,1.3603,1.1995,0.764,0.902,1.1218,1.3376,1.3597,1.3543,1.3494,1.3481,1.3395,1.3227,1.3207,1.3139,1.2996,1.2657,1.2501,1.2488,1.2352,1.2284,1.2291,1.2427,1.242,1.2291,1.2427,1.2413,0.5802,0.6663,0.7502,0.7799,0.8001,0.8095,0.8,0.8045,0.8093,0.8096,0.7934,0.7545,0.6631,0.7985,0.9279,0.9408,1.1165,1.2875,1.3977,1.4121,1.3631,1.2508,1.0739,1.0653,1.3245,0.7782,0.6752,1.3302,1.2181,1.2015,1.4039,1.5036,1.5521,1.5478,1.6472,1.6809,1.6456,1.6547,1.6497,1.6157,1.6105,1.5927,1.5778,1.5574,1.5404,1.5255,1.5099,1.495,1.4808,1.4706,1.4532,1.4441,1.4441,1.438,1.4299,1.4299,1.4238,1.4143,1.4143,1.4082,1.3994,1.3994,1.3926,1.3795,1.3795,1.3869,1.3994,1.3994,1.4068,1.4143,1.4143,1.4143,1.4143,1.4143,1.4143,1.4116,1.4014,1.4075,1.4082,1.3835,1.3926,1.3994,1.3994,1.3994,1.4027,1.4129,1.393,1.3231,1.1761,1.2233,1.2974,1.3709,1.3795,1.3781,1.3734,1.3639,1.3545,1.3485,1.3376,1.3254,1.3146,1.3003,1.2901,1.2846,1.2799,1.2771,1.2771,1.2819,1.2819,1.2778,1.2826,1.2819,0.8457,0.9424,1.0381,1.0672,1.0825,1.0991,1.0972,1.0955,1.0973,1.0987,1.0736,1.0267,0.9235,1.0464,1.1719,1.1879,1.3633,1.5385,1.6632,1.6815,1.6378,1.5302,1.3587,1.3124,1.4779,0.9295,0.8683,1.602,1.5017,1.497,1.6919,1.6978,1.6978,1.6978,1.6978,1.6856,1.6554,1.6648,1.6574,1.6381,1.6286,1.6185,1.6083,1.5886,1.5744,1.5635,1.5432,1.5228,1.5038,1.4936,1.478,1.459,1.459,1.4536,1.4455,1.4455,1.4421,1.4367,1.4319,1.4238,1.415,1.415,1.4089,1.3964,1.3964,1.4075,1.415,1.415,1.4224,1.4299,1.4299,1.4299,1.4299,1.4299,1.4299,1.4272,1.4177,1.4231,1.4245,1.3998,1.4082,1.415,1.415,1.415,1.4183,1.4285,1.4129,1.3964,1.3964,1.3964,1.3964,1.3964,1.3964,1.3937,1.3926,1.3838,1.3763,1.3666,1.3572,1.3492,1.3342,1.3281,1.3227,1.3077,1.303,1.3003,1.3003,1.3003,1.3003,1.3003,1.3003,1.303,1.1236,1.3272,1.5282,1.5539,1.5981,1.63,1.63,1.6286,1.6279,1.6279,1.6015,1.499,1.2226,1.165,1.1625,1.1751,1.1927,1.3056,1.6088,1.6544,1.5609,1.3176,1.2823,1.2754,1.2698,1.0441,1.1104,1.634,1.6753,1.6834,1.7005,1.6998,1.6992,1.6992,1.6985,1.6904,1.6702,1.6696,1.6621,1.653,1.653,1.653,1.651,1.6225,1.6096,1.6076,1.5924,1.5582,1.5262,1.5349,1.5171,1.4728,1.4721,1.4714,1.4708,1.4694,1.4606,1.4502,1.4367,1.4312,1.4299,1.4306,1.4306,1.4299,1.4306,1.4306,1.4299,1.4299,1.4299,1.4299,1.4299,1.4299,1.4299,1.4299,1.4299,1.4299,1.4299,1.4299,1.4299,1.4299,1.4299,1.4299,1.4299,1.4299,1.4299,1.4299,1.4299,1.4299,1.4299,1.4299,1.4299,1.4299,1.4299,1.4245,1.4139,1.4119,1.4007,1.3822,1.3802,1.3741,1.3605,1.3498,1.3356,1.3248,1.3111,1.305,1.305,1.305,1.3043,1.3037,1.3037,1.3105,1.3855,1.4772,1.5594,1.5893,1.6056,1.6137,1.6137,1.5967,1.5763,1.5763,1.5303,1.4619,1.3922,1.3795,1.3999,1.4345,1.4835,1.557,1.6698,1.6863,1.6555,1.5763,1.5762,1.5814,1.5654,1.5231,1.5543,1.6967,1.5187,1.4981,1.7197,1.7202,1.7141,1.7141,1.7032,1.6904,1.6702,1.6696,1.6675,1.6642,1.6642,1.6581,1.6466,1.6334,1.6252,1.6332,1.8018,1.7575,1.5863,1.7643,1.7142,1.5228,1.5113,1.5004,1.4896,1.478,1.4667,1.4633,1.4593,1.4482,1.4319,1.4421,1.4387,1.4319,1.4428,1.4387,1.4299,1.4299,1.4299,1.4299,1.4299,1.4299,1.4299,1.4299,1.4299,1.4299,1.4299,1.4299,1.4299,1.4299,1.4299,1.4299,1.4299,1.4299,1.4299,1.4299,1.4299,1.4299,1.4299,1.4299,1.4299,1.4299,1.4299,1.4285,1.4245,1.418,1.4098,1.4014,1.3862,1.3781,1.3747,1.3707,1.3666,1.3632,1.3592,1.362,1.362,1.362,1.3518,1.3458,1.3458,1.3417,1.512,1.554,1.5872,1.6042,1.6083,1.6049,1.592,1.5757,1.5512,1.5249,1.4809,1.4475,1.434,1.4496,1.4767,1.5153,1.5716,1.6286,1.6809,1.6937,1.6998,1.6986,1.7121,1.7141,1.7,1.7195,1.7317,1.7385,1.5863,1.5648,1.7305,1.7338,1.729,1.729,1.7148,1.6998,1.6849,1.6849,1.6849,1.6849,1.8032,1.8595,1.8549,1.964,2.0015,1.9974,2.1255,2.0827,1.936,1.9541,1.868,1.7104,1.584,1.5337,1.5255,1.512,1.5005,1.4936,1.4936,1.474,1.4509,1.4539,1.4557,1.4509,1.4539,1.4557,1.4496,1.4496,1.4496,1.4496,1.4496,1.4496,1.4496,1.4496,1.4496,1.4496,1.4496,1.4496,1.4496,1.4496,1.4441,1.4414,1.4482,1.4496,1.4496,1.4496,1.4496,1.4496,1.4496,1.438,1.4299,1.4299,1.4299,1.4299,1.4299,1.4224,1.417,1.417,1.4089,1.3971,1.3946,1.3939,1.4378,1.5318,1.5361,1.5821,1.6875,1.6875,1.6825,1.6768,1.6768,1.6709,1.6076,1.6111,1.6083,1.6083,1.6069,1.5981,1.5654,1.5526,1.5323,1.4802,1.4525,1.4346,1.4089,1.4285,1.4597,1.4989,1.5527,1.6076,1.6669,1.6924,1.7114,1.7385,1.7439,1.7453,1.7453,1.7467,1.7534,1.7615,1.7555,1.748,1.748,1.746,1.7439,1.7419,1.727,1.7339,1.7577,1.7563,1.7758,1.8118,2.0488,2.1622,2.1717,2.3964,2.482,2.4578,2.4791,2.4276,2.3186,2.1581,2.0408,1.9386,1.7444,1.6664,1.6664,1.6642,1.6502,1.6256,1.6242,1.5821,1.5272,1.4872,1.4708,1.4694,1.4721,1.4708,1.4701,1.4721,1.4708,1.4701,1.4721,1.4708,1.4694,1.4694,1.4694,1.4694,1.4694,1.4694,1.4694,1.4694,1.4586,1.4539,1.4674,1.4961,1.5188,1.5188,1.5454,1.5682,1.5682,1.4899,1.4459,1.4769,1.4792,1.4911,1.5168,1.5212,1.5212,1.5212,1.5212,1.5147,1.5053,1.5046,1.5917,1.7791,1.7834,1.8842,2.0865,2.0865,2.0845,2.0824,2.0824,2.0804,1.9027,1.7599,1.6083,1.6083,1.6037,1.5901,1.5627,1.5208,1.4823,1.4714,1.4275,1.3896,1.3849,1.4129,1.4516,1.5059,1.5595,1.6201,1.6998,1.7141,1.7222,1.7399,1.748,1.7554,1.7554,1.7717,1.7847,1.7826,1.7812,1.7792,1.7792,1.767,1.7494,1.7426,1.727,1.8275,2.0543,2.0457,2.1518,2.3775,2.4238,2.4495,2.4485,2.4829,2.4952,2.5002,2.7031,0.0,2.1418,2.5205,2.4121,2.0228,2.1698,2.2288,2.2269,2.2097,2.2038,2.1952,2.1732,2.0265,1.8115,1.5739,1.4841,1.4714,1.4896,1.4841,1.4721,1.4896,1.4841,1.4721,1.4896,1.4835,1.4694,1.4694,1.4694,1.4694,1.4694,1.4694,1.4694,1.4694,1.4674,1.466,1.4687,1.6393,1.778,1.778,1.9518,2.0817,2.0817,1.7108,1.5221,1.7166,1.7249,1.7982,1.9836,2.0009,2.0009,2.0009,2.0009,2.0,1.9962,1.9952,2.0158,2.0508,2.0508,2.0723,2.1153,2.1153,2.1052,2.0954,2.0954,2.0905,2.1843,2.1156,2.0006,1.8491,1.8097,1.7504,1.5599,1.4904,1.4586,1.4194,1.4055,1.3939,1.3815,1.4089,1.4441,1.4882,1.5262,1.5845,1.6822,1.6965,1.7134,1.7595,1.7717,1.7758,1.7758,1.7826,1.8606,2.0204,2.0206,1.95,1.7977,1.9214,1.9953,1.9785,2.1177,2.2557,2.3769,2.3727,2.436,2.5662,2.6998,2.7612,2.7653,2.8832,2.93,2.9219,3.0404,2.9366,2.6926,2.8009,2.6918,2.4593,2.4158,2.4026,2.4005,2.3734,2.3629,2.3555,2.3405,2.2539,2.1,1.8252,1.6321,1.5086,1.5086,1.514,1.5161,1.5201,1.5201,1.5181,1.5303,1.5215,1.5161,1.5161,1.5161,1.5161,1.5161,1.6201,1.7127,1.7172,1.8218,1.9147,1.9204,2.0233,2.0935,2.0823,2.1909,2.2719,2.2607,2.0491,1.9282,1.9841,1.9887,2.022,2.1102,2.1221,2.1221,2.1221,2.1221,2.1221,2.1221,2.1221,2.1782,2.2998,2.3041,2.3598,2.485,2.485,2.4821,2.4745,2.4745,2.4716,2.4528,2.449,2.3759,2.1437,2.0394,1.9198,1.6304,1.5097,1.4437,1.3849,1.3933,1.4034,1.3869,1.4116,1.4394,1.4647,1.4964,1.5506,1.65,1.6675,1.7026,1.7827,1.7956,1.8198,1.8891,1.8947,1.9981,2.2485,2.2468,2.1581,1.9823,2.197,2.3158,2.2954,2.5147,2.6529,2.6997,2.7008,2.7249,2.7867,2.9784,3.0693,3.0744,3.2577,3.3293,3.3066,3.3066,3.2636,3.1773,3.0255,2.9281,2.8553,2.6798,2.6097,2.6027,2.5739,2.5582,2.5493,2.5347,2.4863,2.3946,2.1811,1.9327,1.6894,1.5641,1.582,1.6332,1.5671,1.5945,1.6457,1.6485,1.6898,1.7254,1.7254,1.7254,1.7254,1.7254,1.8796,2.0188,2.0339,2.1895,2.3291,2.3371,2.3826,2.4104,2.3925,2.452,2.4902,2.4717,2.4777,2.4507,2.3665,2.2994,2.2703,2.2859,2.2891,2.2859,2.2772,2.2816,2.274,2.2686,2.2686,2.3555,2.5428,2.547,2.6376,2.8179,2.8179,2.8179,2.8179,2.8179,2.8179,2.6977,2.5684,2.4202,2.3687,2.1642,1.9535,1.8828,1.6431,1.4319,1.4251,1.415,1.4112,1.4098,1.419,1.4394,1.4647,1.4882,1.535,1.6395,1.6666,1.7085,1.7827,1.7989,1.923,2.2142,2.243,2.255,2.2838,2.2877,2.3666,2.5629,2.6231,2.6404,2.6121,2.6243,2.7505,2.999,2.9886,3.1094,3.3575,3.3556,3.3526,3.3512,3.3447,3.34,3.3374,3.3374,3.1918,0.0,3.1786,3.1112,2.906,3.1054,3.1845,3.1819,3.1482,3.1351,3.1247,3.0676,2.9046,2.7015,2.6548,2.471,2.1764,1.7025,1.7224,1.8696,1.6453,1.7448,1.9184,1.9358,2.1035,2.2693,2.2693,2.2693,2.2693,2.2693,2.2872,2.3051,2.3024,2.325,2.3381,2.3402,2.5249,2.6759,2.6724,2.8647,3.0122,3.0096,3.0083,2.9952,2.9631,2.719,2.6343,2.8139,2.8287,2.8182,2.7921,2.7908,2.782,2.7588,2.7575,2.7659,2.7883,2.7883,2.7968,2.8179,2.8179,2.8179,2.8179,2.8179,2.8179,2.9547,2.9485,2.8907,2.7222,2.5532,2.3749,2.1779,1.9859,1.8427,1.8347,1.7237,1.632,1.632,1.6253,1.5834,1.4658,1.6815,1.8439,1.7921,1.9075,2.0561,2.2116,2.2455,2.3375,2.5419,2.5748,2.6492,2.8091,3.0121,3.1635,3.2217,3.0702,2.9764,2.9621,3.1123,3.2447,3.3536,3.3309,3.3771,3.4843,3.4549,3.4467,3.4402,3.3921,3.3694,3.3681,3.3494,3.1831,0.0,3.2168,3.1603,2.9395,3.1855,3.2848,3.2795,3.2278,3.2104,3.2038,3.1637,3.0862,2.9722,2.808,2.7902,2.7404,2.1925,2.1167,2.1921,2.087,2.1362,2.2191,2.2228,2.2954,2.3713,2.3713,2.3713,2.3713,2.3713,2.4913,2.6071,2.6071,2.732,2.8472,2.863,2.9442,3.0057,2.9891,3.0836,3.145,3.1102,3.1209,3.1209,3.0915,2.9352,2.8615,2.9238,2.9095,2.8868,2.8631,2.8604,2.847,2.8205,2.8179,2.8179,2.8179,2.8179,2.8179,2.8179,2.8179,2.8179,2.8179,2.8179,2.8179,3.0969,3.181,3.2128,3.0192,2.8475,2.6713,2.4404,2.248,2.1171,2.1104,1.9861,1.8802,1.8802,1.8685,1.8087,1.6581,1.8988,2.0714,1.9768,2.1045,2.27,2.4344,2.4832,2.5894,2.8,2.8771,2.9942,3.1851,3.4215,3.5403,3.5046,3.3871,3.3169,3.3022,3.4678,3.5578,3.5578,3.5431,3.5284,3.5191,3.4949,3.4775,3.4616,3.4122,3.3841,3.3734,3.3507,3.1831,0.0,3.2284,3.1768,2.956,3.2114,3.3106,3.3053,3.2545,3.2358,3.2318,3.2072,3.1979,3.1678,2.9815,3.0402,3.1098,2.7295,2.5617,2.4878,2.4097,2.4439,2.5238,2.6012,2.6205,2.6205,2.6205,2.6205,2.6205,2.6205,2.7672,2.8943,2.8943,3.0449,3.1805,3.2051,3.2104,3.2064,3.1992,3.2024,3.1957,3.1543,3.1664,3.1717,3.1503,3.0862,3.0287,2.99,2.9686,2.9392,2.9018,2.8991,2.8818,2.846,2.8446,2.8446,2.8446,2.8366,2.8326,2.8326,2.8232,2.8179,2.8179,2.8179,2.8179,3.0715,3.1698,3.2527,3.2136,2.9637,2.7131,2.6517,2.3677,2.1221,2.1221,2.1178,2.1178,2.1178,2.1178,2.1135,2.1135,2.1178,2.1366,2.1806,2.2003,2.233,2.2955,2.3443,2.5399,2.9763,3.148,3.2479,3.2794,3.257,3.2441,3.2441,3.5211,3.6619,3.6086,3.5778,3.5578,3.5578,3.5631,3.5485,3.5191,3.4949,3.4603,3.4309,3.4015,3.3721,3.3414,3.3414,3.1831,0.0,3.2284,3.1768,2.9572,3.2334,3.3414,3.3374,3.308,3.2973,3.2933,3.2688,3.2581,3.2581,3.2581,3.2332,3.2158,3.2438,3.0293,2.7297,2.4977,2.5956,2.8356,3.0938,3.1616,3.1616,3.1616,3.1616,3.1616,3.1616,3.1616,3.1664,3.1664,3.1677,3.1805,3.2051,3.2104,3.2198,3.2541,3.2291,3.2104,3.2091,3.2091,3.2091,3.2091,3.1824,3.1457,3.0835,3.0768,3.0528,2.994,2.99,2.9633,2.9015,2.8988,2.8988,2.8988,2.8751,2.8604,2.8604,2.8339,2.8179,2.8179,2.8179,2.8179,2.9766,3.0507,3.1122,3.1183,2.9978,2.8732,2.8565,2.7202,2.5969,2.5969,2.4722,2.3598,2.3598,2.3598,2.3193,2.2021,2.4454,2.6117,2.4878,2.6644,2.8484,2.9702,3.1745,3.3788,3.5562,3.5939,3.6119,3.6222,3.5978,3.5798,3.5798,3.6337,3.6647,3.6647,3.638,3.6139,3.5939,3.5725,3.5485,3.5191,3.5097,3.5017,3.4897,3.4402,3.4122,3.4002,3.3587,3.1831,2.9522,3.2284,3.1768,2.9572,3.2334,3.3414,3.3374,3.3093,3.2973,3.2982,3.2701,3.2594,3.2594,3.2594,3.2527,3.2474,3.2567,3.1588,3.0319,2.9569,3.0018,3.0937,3.1766,3.2118,3.226,3.2011,3.1971,3.1971,3.1971,3.1971,3.2024,3.2273,3.2313,3.2407,3.2652,3.2706,3.2732,3.2875,3.2759,3.2625,3.2474,3.246,3.246,3.246,3.2367,3.2072,3.1497,3.1022,3.0635,3.0293,3.0034,2.974,2.9352,2.9108,2.9001,2.9001,2.8908,2.8855,2.8855,2.8804,2.8657,2.8457,2.8286,2.8179,2.9259,2.9958,3.0453,3.0627,3.0047,2.9459,2.9339,2.8754,2.8179,2.8179,2.7054,2.6024,2.6024,2.6024,2.5653,2.4569,2.6878,2.8483,2.7465,2.9255,3.1209,3.2786,3.5191,3.6941,3.7585,3.7742,3.7849,3.7969,3.7595,3.7382,3.7382,3.6941,3.6754,3.6885,3.654,3.6259,3.6072,3.5778,3.5485,3.5191,3.5191,3.5084,3.4857,3.4603,3.4244,3.3961,3.3814,3.2022,0.0,3.2413,3.187,2.9572,3.2334,3.3414,3.3387,3.3213,3.3146,3.312,3.2982,3.2929,3.2929,3.2929,3.2929,3.2875,3.2661,3.234,3.2019,3.1912,3.2038,3.2238,3.2131,3.2367,3.2541,3.2367,3.2185,3.2104,3.2104,3.2104,3.2158,3.2393,3.2514,3.2688,3.2933,3.2973,3.3013,3.3133,3.3053,3.2969,3.2781,3.2755,3.2755,3.2755,3.2755,3.2607,3.2246,3.1623,3.1116,3.0715,3.0515,3.0287,2.9993,2.9806,2.9646,2.9539,2.9388,2.9268,2.9205,2.9055,2.8908,2.8764,2.8577,2.8484,0.0,2.9838,3.0253,3.0253,2.9838,2.9312,2.8988,2.8551,0.0,2.8179,2.8179,2.8192,2.8219,2.8205,2.8205,2.8272,2.854,2.8911,2.9499,3.0239,3.1323,3.3049,3.471,3.5965,3.6513,3.7342,3.7956,3.8281,3.7742,3.7422,3.7422,3.7059,3.6885,3.6845,3.6366,3.6072,3.6072,3.5805,3.5498,3.5191,3.5177,3.4883,3.4362,3.4538,3.4177,0.0,3.4042,3.2494,2.9799,3.2721,3.22,2.9837,3.2384,3.3414,3.3414,3.3414,3.3414,3.3414,3.3414,3.3414,3.3414,3.3414,3.34,3.328,3.2808,3.2648,3.2567,3.2211,3.2393,3.2567,3.2238,3.2433,3.2648,3.2634,3.2407,3.2158,3.2158,3.2158,3.2171,3.2198,3.2412,3.2741,3.3009,3.3013,3.3106,3.3374,3.3187,3.3013,3.3013,3.3013,3.3013,3.3013,3.3013,3.3,3.2973,3.2465,3.1904,3.1356,3.1276,3.1129,3.0862,3.0808,3.0662,3.044,3.01,2.9806,2.9513,2.9219,2.9028,2.9028,2.9001,2.9001,2.8366,0.0,2.87,2.87,2.8607,2.8486,0.0,2.8286,2.8179,2.8179,2.8179,2.8259,2.8457,2.8353,2.8406,2.9102,2.9419,2.982,3.0408,3.2158,3.3881,3.5191,3.6313,3.7021,3.7168,3.7782,3.824,3.8321,3.7929,3.7702,3.7702,3.7179,3.6834,3.662,3.6259,3.6072,3.6072,3.6006,3.5712,3.5191,3.4977,3.4842,3.4643,3.4269,3.3975,3.3788,3.3921,3.3407,3.2511,3.3495,3.3341,3.2485,3.315,3.3414,3.3414,3.3414,3.3414,3.3414,3.3414,3.3414,3.3414,3.3414,3.3253,3.3093,3.3187,3.3053,3.2862,3.2567,3.2701,3.2915,3.2786,3.2986,3.3146,3.2933,3.2875,3.2772,3.2772,3.2772,3.2839,3.3053,3.316,3.3227,3.3293,3.3307,3.3334,3.34,3.336,3.3307,3.3307,3.3307,3.3307,3.3307,3.3307,3.3213,3.3,3.2701,3.2433,3.23,3.1858,3.153,3.151,3.1036,3.0755,3.0688,3.0453,3.0114,2.982,2.9526,2.9379,2.9379,2.9108,2.9001,2.8138,2.8179,2.8179,2.8179,2.8179,2.8179,2.8179,2.8179,2.8179,2.8179,2.8179,2.8232,2.8406,2.8484,2.8711,2.9205,2.986,3.0662,3.165,3.3253,3.475,3.5939,3.6727,3.7275,3.7555,3.7863,3.8093,3.8093,3.7782,3.7595,3.7595,3.7139,3.6794,3.6513,3.6353,3.6139,3.5872,3.5738,3.5511,3.5191,3.4949,3.4748,3.4549,3.4229,3.3935,3.3681,3.3961,3.3828,3.344,3.3761,3.3694,3.3414,3.3414,3.3414,3.3414,3.3414,3.3414,3.3414,3.3414,3.3414,3.3414,3.3414,3.3307,3.32,3.336,3.3307,3.312,3.2875,3.3009,3.3146,3.3013,3.32,3.3374,3.3213,3.308,3.2973,3.2973,3.2973,3.3026,3.3187,3.332,3.3414,3.3414,3.3414,3.3414,3.3414,3.3414,3.3414,3.3414,3.3414,3.3414,3.3414,3.3414,3.3347,3.3187,3.3026,3.2875,3.2607,3.2166,3.1864,3.1864,3.1436,3.1129,3.0996,3.0702,3.0474,3.0314,3.0154,3.002,2.9931,2.986,2.9766,2.7236,2.7161,2.7382,2.8037,2.8152,2.8125,2.8179,2.8152,2.8125,2.8179,2.8179,2.8232,2.8366,2.8724,2.9055,2.9228,3.0287,3.157,3.3089,3.3948,3.4857,3.5939,3.654,3.7032,3.7555,3.7662,3.7676,3.7676,3.7422,3.7275,3.7315,3.6981,3.6687,3.6433,3.6393,3.6112,3.5511,3.5324,3.5177,3.5124,3.4842,3.4496,3.4255,3.4202,3.3895,3.344,3.4002,0.0,3.344,3.3761,3.3694,3.3414,3.3414,3.3414,3.3414,3.3414,3.3414,3.3414,3.3414,3.3414,3.3414,3.3414,3.3414,3.3414,3.3414,3.3414,3.336,3.312,3.3213,3.336,3.3106,3.3227,3.3414,3.3414,3.3227,3.304,3.304,3.304,3.304,3.304,3.324,3.3414,3.3414,3.3414,3.3414,3.3414,3.3414,3.3414,3.3414,3.3414,3.3414,3.3414,3.3414,3.3414,3.3414,3.3414,3.32,3.2755,3.2358,3.2131,3.2038,3.1797,3.153,3.1236,3.0982,3.0835,3.0795,3.0795,3.0662,3.048,3.0675,3.0662,2.2815,2.2499,2.3589,2.7255,2.7991,2.7829,2.8125,2.7991,2.7843,2.8138,2.8179,2.8419,2.9182,2.9152,2.9322,3.0368,3.155,3.2848,3.4333,3.4817,3.5311,3.6046,3.6366,3.662,3.6687,3.6885,3.7032,3.7032,3.6794,3.6754,3.6981,3.65,3.6179,3.6139,3.5899,3.5605,3.5271,3.5217,3.507,3.483,3.4282,3.4002,3.3948,3.3668,3.3494,3.3427,0.0,3.3748,3.344,3.3761,3.3694,3.3414,3.3414,3.3414,3.3414,3.3414,3.3414,3.3414,3.3414,3.3414,3.3414,3.3414,3.3414,3.3414,3.3414,3.3414,3.34,3.336,3.3374,3.34,3.336,3.3374,3.3414,3.3414,3.3374,3.3347,3.3347,3.3347,3.3347,3.3347,3.3387,3.3414,3.3414,3.3414,3.3414,3.3414,3.3414,3.3414,3.3414,3.3414,3.3414,3.3414,3.3414,3.3414,3.3414,3.3414,3.3374,3.328,3.2822,3.23,3.1805,3.1738,3.153,3.1236,3.1183,3.1036,3.0795,3.0795,3.0768,3.0728,3.0768,3.0768,2.148,2.1319,2.2279,2.5925,2.6698,2.6574,2.6541,2.7408,2.827,2.8564,2.8511,2.8671,2.9553,2.9993,3.0722,3.2425,3.3146,3.3855,3.4857,3.4843,3.5004,3.5738,3.5952,3.6153,3.6473,3.6754,3.6861,3.6672,3.658,3.65,3.6473,3.6219,3.6006,3.5845,3.5698,3.5485,3.5204,3.4883,3.4817,3.499,3.4242,3.3975,3.4108,3.3627,3.3414,3.3414,0.0,3.3547,3.3427,3.3574,3.3547,3.3414,3.3414,3.3414,3.3414,3.3414,3.3414,3.3414,3.3414,3.3414,3.3414,3.3414,3.3414,3.3414,3.3414,3.3414,3.3414,3.3414,3.3414,3.3414,3.3414,3.3414,3.3414,3.3414,3.3414,3.3414,3.3414,3.3414,3.3414,3.3414,3.3414,3.3414,3.3414,3.3414,3.3414,3.3414,3.3414,3.3414,3.3414,3.3414,3.3414,3.3414,3.3414,3.3414,3.3414,3.3414,3.3347,3.3187,3.2933,3.2634,3.2206,3.1984,3.1837,3.1704,3.1543,3.1396,3.1263,3.1263,3.1183,3.1036,3.1196,3.1183,2.0572,2.0858,2.1826,2.4005,2.4933,2.5466,2.6202,2.7562,2.8845,2.9308,2.9272,2.9352,3.0087,3.0996,3.2198,3.3935,3.4389,3.475,3.5404,3.5057,3.5004,3.5752,3.5832,3.5979,3.6366,3.6607,3.6607,3.6326,3.6233,3.6126,3.5979,3.5899,3.5792,3.5631,3.5565,3.5391,3.5097,3.4576,3.4549,3.4977,3.4162,3.3895,3.4095,3.3627,3.3414,3.3414,3.3414,3.3414,3.3414,3.3414,3.3414,3.3414,3.3414,3.3414,3.3414,3.3414,3.3414,3.3414,3.3414,3.3414,3.3414,3.3414,3.3414,3.3414,3.3414,3.3414,3.3414,3.3414,3.3414,3.3414,3.3414,3.3414,3.3414,3.3414,3.3414,3.3414,3.3414,3.3414,3.3414,3.3414,3.3414,3.3414,3.3414,3.3414,3.3414,3.3414,3.3414,3.3414,3.3414,3.3414,3.3414,3.3414,3.3414,3.3414,3.3414,3.3414,3.332,3.3093,3.3009,3.2822,3.2607,3.2332,3.2171,3.2104,3.1877,3.1744,3.1711,3.1711,3.1557,3.133,3.1557,3.1543,1.8627,1.9811,2.1648,2.1537,2.2931,2.5299,2.913,2.946,2.9282,3.0434,3.0648,3.0742,3.1076,3.2078,3.3093,3.3801,3.4603,3.5431,3.6286,3.6139,3.6072,3.6393,3.6433,3.6353,3.6126,3.6126,3.6006,3.5712,3.5444,3.5404,3.5591,3.5404,3.5378,3.5565,3.5364,3.5084,3.4842,3.4482,3.4336,3.4376,3.3748,3.3454,3.348,3.3427,3.3414,3.3414,3.3414,3.3414,3.3414,3.3414,3.3414,3.3414,3.3414,3.3414,3.3414,3.3414,3.3414,3.3414,3.3414,3.3414,3.3414,3.3414,3.3414,3.3414,3.3414,3.3414,3.3414,3.3414,3.3414,3.3414,3.3414,3.3414,3.3414,3.3414,3.3414,3.3414,3.3414,3.3414,3.3414,3.3414,3.3414,3.3414,3.3414,3.3414,3.3414,3.3414,3.3414,3.3414,3.3414,3.3414,3.3414,3.3414,3.3414,3.3414,3.3414,3.3414,3.34,3.3387,3.2929,3.2621,3.2594,3.2567,3.2433,3.2104,3.2078,3.1944,3.1711,3.1711,3.1711,3.1637,3.1711,3.1711,2.0139,2.0788,2.2063,2.3578,2.4514,2.5572,2.7493,2.8951,3.014,3.1129,3.1343,3.1537,3.1957,3.3013,3.3948,3.4311,3.5164,3.5925,3.6433,3.6259,3.6112,3.6219,3.6072,3.5912,3.5805,3.5965,3.5952,3.5658,3.5525,3.5431,3.5364,3.5084,3.5057,3.5351,3.507,3.487,3.4815,3.4469,3.4229,3.4042,3.3614,3.3507,3.3694,3.3507,3.3414,3.3414,3.3414,3.3414,3.3414,3.3414,3.3414,3.3414,3.3414,3.3414,3.3414,3.3414,3.3414,3.3414,3.3414,3.3414,3.3414,3.3414,3.3414,3.3414,3.3414,3.3414,3.3414,3.3414,3.3414,3.3414,3.3414,3.3414,3.3414,3.3414,3.3414,3.3414,3.3414,3.3414,3.3414,3.3414,3.3414,3.3414,3.3414,3.3414,3.3414,3.3414,3.3414,3.3414,3.3414,3.3414,3.3414,3.3414,3.3414,3.3414,3.3414,3.3414,3.3414,3.3414,3.32,3.308,3.308,3.2955,3.2808,3.2652,3.2514,3.238,3.226,3.226,3.2166,3.1944,3.1944,3.1837,2.231,2.3021,2.4217,2.6064,2.6603,2.6874,2.7706,2.9427,3.1122,3.2193,3.226,3.2286,3.2781,3.348,3.4162,3.4498,3.5351,3.6032,3.6326,3.6206,3.6046,3.5939,3.5832,3.5698,3.5511,3.5765,3.5805,3.5511,3.5498,3.5364,3.507,3.487,3.4803,3.491,3.4671,3.4576,3.4534,3.4282,3.4028,3.3734,3.3507,3.3521,3.3734,3.3507,3.3414,3.3414,3.3414,3.3414,3.3414,3.3414,3.3414,3.3414,3.3414,3.3414,3.3414,3.3414,3.3414,3.3414,3.3414,3.3414,3.3414,3.3414,3.3414,3.3414,3.3414,3.3414,3.3414,3.3414,3.3414,3.3414,3.3414,3.3414,3.3414,3.3414,3.3414,3.3414,3.3414,3.3414,3.3414,3.3414,3.3414,3.3414,3.3414,3.3414,3.3414,3.3414,3.3414,3.3414,3.3414,3.3414,3.3414,3.3414,3.3414,3.3414,3.3414,3.3414,3.3414,3.3414,3.3414,3.3414,3.3414,3.3213,3.3066,3.2973,3.2835,3.2688,3.2594,3.2594,3.2487,3.2238,3.2238,3.2179,2.4733,2.6418,2.8259,2.8537,2.8788,2.9388,3.0856,3.1463,3.2139,3.3587,3.3414,3.308,3.336,3.3414,3.3614,3.4215,3.5057,3.5725,3.6032,3.6126,3.5952,3.5658,3.5885,3.5832,3.5257,3.5458,3.5498,3.5217,3.5191,3.507,3.4829,3.4802,3.4629,3.4322,3.4322,3.4175,3.3895,3.3881,3.3721,3.3414,3.3414,3.3414,3.3414,3.3414,3.3414,3.3414,3.3414,3.3414,3.3414,3.3414,3.3414,3.3414,3.3414,3.3414,3.3414,3.3414,3.3414,3.3414,3.3414,3.3414,3.3414,3.3414,3.3414,3.3414,3.3414,3.3414,3.3414,3.3414,3.3414,3.3414,3.3414,3.3414,3.3414,3.3414,3.3414,3.3414,3.3414,3.3414,3.3414,3.3414,3.3414,3.3414,3.3414,3.3414,3.3414,3.3414,3.3414,3.3414,3.3414,3.3414,3.3414,3.3414,3.3414,3.3414,3.3414,3.3414,3.3414,3.3414,3.3414,3.3414,3.3414,3.3414,3.328,3.2986,3.2986,3.2888,3.2607,3.2607,3.2607,3.2594,3.2594,3.2594,2.7203,2.783,2.8591,2.9098,2.9606,3.0354,3.1872,3.2064,3.2398,3.3881,3.4042,3.3881,3.3761,3.3908,3.4108,3.4295,3.4883,3.5431,3.5725,3.5765,3.5725,3.5591,3.5525,3.5391,3.5217,3.5271,3.5204,3.491,3.4949,3.4763,3.4469,3.4255,3.4202,3.4322,3.4122,3.3975,3.3881,3.3881,3.3721,3.3414,3.3414,3.3414,3.3414,3.3414,3.3414,3.3414,3.3414,3.3414,3.3414,3.3414,3.3414,3.3414,3.3414,3.3414,3.3414,3.3414,3.3414,3.3414,3.3414,3.3414,3.3414,3.3414,3.3414,3.3414,3.3414,3.3414,3.3414,3.3414,3.3414,3.3414,3.3414,3.3414,3.3414,3.3414,3.3414,3.3414,3.3414,3.3414,3.3414,3.3414,3.3414,3.3414,3.3414,3.3414,3.3414,3.3414,3.3414,3.3414,3.3414,3.3414,3.3414,3.3414,3.3414,3.3414,3.3414,3.3414,3.3414,3.3414,3.3414,3.3414,3.3414,3.3414,3.3374,3.328,3.328,3.324,3.316,3.316,3.3053,3.2902,3.2902,3.2795,2.8393,2.8551,2.8951,2.9659,3.0274,3.1089,3.2572,3.304,3.344,3.4456,3.4482,3.4309,3.4242,3.4282,3.4349,3.4417,3.4883,3.5257,3.5431,3.5458,3.5458,3.5458,3.5311,3.5191,3.5191,3.5191,3.5084,3.4842,3.4815,3.4589,3.4162,3.3975,3.3908,3.3961,3.3788,3.3694,3.3694,3.3694,3.3601,3.3414,3.3414,3.3414,3.3414,3.3414,3.3414,3.3414,3.3414,3.3414,3.3414,3.3414,3.3414,3.3414,3.3414,3.3414,3.3414,3.3414,3.3414,3.3414,3.3414,3.3414,3.3414,3.3414,3.3414,3.3414,3.3414,3.3414,3.3414,3.3414,3.3414,3.3414,3.3414,3.3414,3.3414,3.3414,3.3414,3.3414,3.3414,3.3414,3.3414,3.3414,3.3414,3.3414,3.3414,3.3414,3.3414,3.3414,3.3414,3.3414,3.3414,3.3414,3.3414,3.3414,3.3414,3.3414,3.3414,3.3414,3.3414,3.3414,3.3414,3.3414,3.3414,3.3414,3.3414,3.3414,3.3414,3.3414,3.3414,3.3414,3.332,3.3146,3.3146,3.3053,2.8591,2.8885,2.9312,3.0274,3.1022,3.1816,3.3204,3.4202,3.4922,3.511,3.475,3.4482,3.4802,3.4576,3.4431,3.4698,3.5017,3.5191,3.5191,3.5191,3.5191,3.5191,3.5191,3.5191,3.5191,3.5191,3.507,3.4802,3.4775,3.4469,3.3881,3.3841,3.3708,3.3427,3.3414,3.3414,3.3414,3.3414,3.3414,3.3414,3.3414,3.3414,3.3414,3.3414,3.3414,3.3414,3.3414,3.3414,3.3414,3.3414,3.3414,3.3414,3.3414,3.3414,3.3414,3.3414,3.3414,3.3414,3.3414,3.3414,3.3414,3.3414,3.3414,3.3414,3.3414,3.3414,3.3414,3.3414,3.3414,3.3414,3.3414,3.3414,3.3414,3.3414,3.3414,3.3414,3.3414,3.3414,3.3414,3.3414,3.3414,3.3414,3.3414,3.3414,3.3414,3.3414,3.3414,3.3414,3.3414,3.3414,3.3414,3.3414,3.3414,3.3414,3.3414,3.3414,3.3414,3.3414,3.3414,3.3414,3.3414,3.3414,3.3414,3.3414,3.3414,3.3414,3.3414,3.3414,3.3414,3.3414,3.3414,3.3414,2.9152,2.9339,2.9766,3.133,3.2692,3.3801,3.4349,3.4803,3.5057,3.4949,3.4937,3.503,3.5097,3.5057,3.503,3.5084,3.5151,3.5191,3.5191,3.5191,3.5191,3.5191,3.5191,3.5191,3.5191,3.5191,3.4977,3.4456,3.4416,3.4148,3.3547,3.3507,3.348,3.3414,3.3414,3.3414,3.3414,3.3414,3.3414,3.3414,3.3414,3.3414,3.3414,3.3414,3.3414,3.3414,3.3414,3.3414,3.3414,3.3414,3.3414,3.3414,3.3414,3.3414,3.3414,3.3414,3.3414,3.3414,3.3414,3.3414,3.3414,3.3414,3.3414,3.3414,3.3414,3.3414,3.3414,3.3414,3.3414,3.3414,3.3414,3.3414,3.3414,3.3414,3.3414,3.3414,3.3414,3.3414,3.3414,3.3414,3.3414,3.3414,3.3414,3.3414,3.3414,3.3414,3.3414,3.3414,3.3414,3.3414,3.3414,3.3414,3.3414,3.3414,3.3414,3.3414,3.3414,3.3414,3.3414,3.3414,3.3414,3.3414,3.3414,3.3414,3.3414,3.3414,3.3414,3.3414,3.3414,3.3414,3.3414,3.3414,2.9285,2.9686,3.0354,3.2251,3.3641,3.4576,3.4775,3.499,3.511,3.4882,3.499,3.5191,3.5191,3.5191,3.5191,3.5191,3.5191,3.5191,3.5191,3.5191,3.5151,3.5004,3.499,3.4937,3.479,3.4776,3.4589,3.4148,3.4108,3.3908,3.344,3.3414,3.3414,3.3414,3.3414,3.3414,3.3414,3.3414,3.3414,3.3414,3.3414,3.3414,3.3414,3.3414,3.3414,3.3414,3.3414,3.3414,3.3414,3.3414,3.3414,3.3414,3.3414,3.3414,3.3414,3.3414,3.3414,3.3414,3.3414,3.3414,3.3414,3.3414,3.3414,3.3414,3.3414,3.3414,3.3414,3.3414,3.3414,3.3414,3.3414,3.3414,3.3414,3.3414,3.3414,3.3414,3.3414,3.3414,3.3414,3.3414,3.3414,3.3414,3.3414,3.3414,3.3414,3.3414,3.3414,3.3414,3.3414,3.3414,3.3414,3.3414,3.3414,3.3414,3.3414,3.3414,3.348,3.3627,3.3494,3.348,3.3627,3.3494,3.3414,3.3414,3.3414,3.3414,3.3414,3.3414,3.3414,3.3414,3.3414,3.3414,2.9245,3.0145,3.1216,3.2973,3.4055,3.4683,3.4683,3.487,3.4977,3.4736,3.4923,3.5124,3.5124,3.5124,3.5137,3.5191,3.5191,3.5177,3.5124,3.5124,3.5017,3.4775,3.4683,3.4589,3.4349,3.4322,3.4202,3.3908,3.3881,3.3748,3.3427,3.3414,3.3414,3.3414,3.3414,3.3414,3.3414,3.3414,3.3414,3.3414,3.3414,3.3414,3.3414,3.3414,3.3414,3.3414,3.3414,3.3414,3.3414,3.3414,3.3414,3.3414,3.3414,3.3414,3.3414,3.3414,3.3414,3.3414,3.3414,3.3414,3.3414,3.3414,3.3414,3.3414,3.3414,3.3414,3.3414,3.3414,3.3414,3.3414,3.3414,3.3414,3.3414,3.3414,3.3414,3.3414,3.3414,3.3414,3.3414,3.3414,3.3414,3.3414,3.3414,3.3414,3.3427,3.348,3.3454,3.3427,3.3494,3.3494,3.3494,3.3494,3.3534,3.3574,3.3574,3.3574,3.3681,3.3948,3.3668,3.3614,3.3881,3.3574,3.3414,3.3414,3.3414,3.3414,3.3414,3.3414,3.3414,3.3414,3.3414,3.3414,2.9245,3.0881,3.25,3.324,3.3908,3.4376,3.4376,3.4402,3.4429,3.4389,3.4564,3.4764,3.4817,3.4869,3.491,3.5151,3.5191,3.511,3.4909,3.4869,3.471,3.4416,3.4376,3.4362,3.4322,3.4322,3.4202,3.3908,3.3881,3.3748,3.3427,3.3414,3.3414,3.3414,3.3414,3.3414,3.3414,3.3414,3.3414,3.3414,3.3414,3.3414,3.3414,3.3414,3.3414,3.3414,3.3414,3.3414,3.3414,3.3414,3.3414,3.3414,3.3414,3.3414,3.3414,3.3414,3.3414,3.3414,3.3414,3.3414,3.3414,3.3414,3.3414,3.3414,3.3414,3.3414,3.3414,3.3414,3.3414,3.3414,3.3414,3.3414,3.3414,3.3414,3.3414,3.3414,3.3414,3.3414,3.3414,3.3414,3.3414,3.3414,3.3414,3.3414,3.3507,3.3788,3.3587,3.3507,3.3788,3.3828,3.3828,3.3828,3.4042,3.4202,3.4202,3.4202,3.4215,3.4255,3.3988,3.3841,3.3881,3.3574,3.3414,3.3414,3.3414,3.3414,3.3414,3.3414,3.3414,3.3414,3.3414,3.3414,2.9847,3.1236,3.2559,3.3654,3.4084,3.4362,3.4536,3.4442,3.4269,3.4108,3.4175,3.4322,3.4482,3.4656,3.4802,3.471,3.4843,3.4857,3.4549,3.4509,3.4402,3.4108,3.4082,3.4002,3.3828,3.3814,3.3761,3.3627,3.3614,3.3561,3.3414,3.3414,3.3414,3.3414,3.3414,3.3414,3.3414,3.3414,3.3414,3.3414,3.3414,3.3414,3.3414,3.3414,3.3414,3.3414,3.3414,3.3414,3.3414,3.3414,3.3414,3.3414,3.3414,3.3307,3.3187,3.3347,3.3307,3.3187,3.336,3.3414,3.3414,3.3414,3.3414,3.3414,3.3414,3.3414,3.3414,3.3414,3.3414,3.3414,3.3414,3.3414,3.3414,3.3414,3.3414,3.3414,3.3414,3.3414,3.3414,3.3414,3.3414,3.3414,3.3414,3.3414,3.3521,3.3841,3.3614,3.3587,3.4068,3.3988,3.3948,3.4108,3.4242,3.4322,3.4322,3.4322,3.4322,3.4322,3.4202,3.4055,3.3895,3.3748,3.3681,3.3681,3.3507,3.3414,3.3414,3.3414,3.3414,3.3414,3.3414,3.3414,2.9833,3.0875,3.1877,3.3293,3.3814,3.4055,3.4349,3.4255,3.4028,3.3814,3.3761,3.3828,3.4042,3.4336,3.4496,3.4349,3.4509,3.4549,3.4255,3.4215,3.4095,3.3801,3.3761,3.3668,3.3427,3.3414,3.3414,3.3414,3.3414,3.3414,3.3414,3.3414,3.3374,3.3307,3.3307,3.3267,3.3187,3.3267,3.3334,3.3414,3.3334,3.3334,3.3414,3.3334,3.3347,3.3414,3.3414,3.3414,3.34,3.3334,3.3347,3.34,3.3253,3.3146,3.3106,3.3253,3.3213,3.312,3.3334,3.3414,3.3414,3.3414,3.3414,3.3414,3.3414,3.3414,3.3414,3.3414,3.3414,3.3414,3.3414,3.3414,3.3414,3.3414,3.3414,3.3414,3.3414,3.3414,3.3414,3.3414,3.3414,3.3414,3.3414,3.3414,3.3521,3.3841,3.3681,3.3721,3.4255,3.4202,3.4189,3.4416,3.4496,3.4549,3.4549,3.4549,3.4549,3.4549,3.4469,3.4336,3.4122,3.4042,3.4002,3.4002,3.3761,3.3601,3.3534,3.3534,3.3494,3.3414,3.3414,3.3414,2.8537,2.9366,3.0314,3.1503,3.2487,3.312,3.3414,3.3467,3.3454,3.344,3.344,3.344,3.3454,3.3721,3.4015,3.4282,3.4336,3.4242,3.3948,3.3908,3.3788,3.3467,3.344,3.3427,3.3414,3.3414,3.3414,3.3414,3.3414,3.3414,3.3414,3.3414,3.328,3.3013,3.3,3.2915,3.2648,3.2915,3.3146,3.3414,3.3133,3.3146,3.34,3.3133,3.3146,3.3414,3.3414,3.3414,3.3387,3.312,3.316,3.336,3.2848,3.2919,3.336,3.3093,3.316,3.3387,3.3414,3.3414,3.3414,3.3414,3.3414,3.3414,3.3414,3.3414,3.3414,3.3414,3.3414,3.3414,3.3414,3.3414,3.3414,3.3414,3.3414,3.3414,3.3414,3.3414,3.3414,3.3414,3.3414,3.3414,3.3414,3.3414,3.3521,3.3841,3.3868,3.3975,3.4282,3.4549,3.4775,3.4788,3.499,3.5151,3.5151,3.5151,3.5151,3.5151,3.4897,3.4788,3.4775,3.4442,3.4295,3.4295,3.4282,3.4135,3.3855,3.3855,3.3708,3.3414,3.3414,3.3414,2.8444,2.9112,2.9873,3.0862,3.177,3.2438,3.2545,3.3013,3.336,3.3173,3.328,3.3414,3.3414,3.3668,3.3855,3.3748,3.3908,3.3935,3.3627,3.3587,3.3534,3.3427,3.3414,3.3414,3.3414,3.3414,3.3414,3.3414,3.3414,3.3414,3.3414,3.324,3.3093,3.2986,3.2848,3.2701,3.2594,3.2701,3.2795,3.2902,3.2795,3.2808,3.2915,3.2995,3.304,3.3133,3.3133,3.324,3.3387,3.3093,3.3146,3.3374,3.2973,3.2946,3.312,3.3013,3.304,3.3133,3.3133,3.3253,3.3414,3.3414,3.3414,3.3414,3.3414,3.3414,3.3414,3.3414,3.3414,3.3414,3.3414,3.3414,3.3414,3.3414,3.3414,3.3414,3.3414,3.3414,3.3414,3.3414,3.3414,3.3414,3.3414,3.3414,3.3587,3.4082,3.4002,3.4122,3.479,3.4817,3.4882,3.5017,3.5137,3.5191,3.5191,3.5191,3.5124,3.4923,3.4869,3.4683,3.4482,3.4376,3.4402,3.4603,3.4603,3.4404,3.4162,3.3975,3.3828,3.3708,3.3507,3.3414,2.7896,2.8364,2.9088,3.0327,3.0942,3.1423,3.2211,3.2692,3.2973,3.2973,3.3213,3.3414,3.3414,3.3587,3.3654,3.344,3.3587,3.3654,3.344,3.3414,3.3414,3.3414,3.3414,3.3414,3.3414,3.3414,3.3414,3.3414,3.3414,3.3374,3.3267,3.308,3.2893,3.2692,3.2447,3.234,3.2447,3.2447,3.25,3.2594,3.25,3.25,3.2594,3.2688,3.2732,3.2888,3.2888,3.3,3.324,3.2839,3.2853,3.308,3.2692,3.2719,3.3009,3.2759,3.2812,3.2973,3.2973,3.3106,3.328,3.3374,3.3414,3.3414,3.3414,3.3414,3.3414,3.3414,3.3414,3.3414,3.3414,3.3414,3.3414,3.3414,3.3414,3.3414,3.3414,3.3414,3.3414,3.3414,3.3494,3.3574,3.3574,3.3654,3.3855,3.4255,3.4242,3.4389,3.4977,3.4963,3.4977,3.5177,3.5191,3.5191,3.5191,3.5191,3.511,3.4976,3.491,3.4817,3.4616,3.4616,3.471,3.491,3.4897,3.4751,3.4616,3.4229,3.3975,3.3881,3.3561,3.3414,0.0,0.0,0.0,2.9798,2.9891,3.006,3.2332,3.2425,3.2211,3.2812,3.316,3.3374,3.34,3.3414,3.3414,3.3414,3.3414,3.3414,3.3414,3.3414,3.3414,3.3414,3.3414,3.3414,3.3414,3.3414,3.3414,3.34,3.34,3.3267,3.2986,3.2959,3.2692,3.2104,3.1824,3.1797,3.2091,3.2091,3.2238,3.2567,3.2225,3.2238,3.2554,3.2225,3.2265,3.2581,3.2581,3.2741,3.2906,3.2332,3.2278,3.2541,3.1965,3.2273,3.2906,3.2345,3.2492,3.2986,3.2986,3.2986,3.304,3.332,3.3414,3.3414,3.3414,3.3414,3.3414,3.3414,3.3414,3.3414,3.3414,3.3414,3.3414,3.3414,3.3414,3.3414,3.3414,3.3414,3.3414,3.3414,3.3654,3.3868,3.3868,3.4108,3.4309,3.4322,3.4576,3.4815,3.4829,3.5017,3.5191,3.5191,3.5191,3.5191,3.5191,3.5191,3.5191,3.5191,3.5177,3.5177,3.5191,3.5191,3.5191,3.5191,3.5191,3.5191,3.5177,3.4603,3.4175,3.3895,3.3561,3.3414,2.656,0.0,0.0,0.0,0.0,0.0,2.9673,3.0181,3.0808,3.1872,3.2139,3.2412,3.3253,3.3414,3.3414,3.3414,3.3414,3.3414,3.3414,3.3414,3.3414,3.3414,3.3414,3.3414,3.3414,3.3414,3.332,3.312,3.3093,3.2973,3.2728,3.2465,3.2171,3.1797,3.1764,3.1751,3.1784,3.1784,3.1872,3.1965,3.1824,3.1885,3.1965,3.2051,3.2144,3.2225,3.2225,3.2265,3.2332,3.2171,3.2278,3.2581,3.242,3.2634,3.2959,3.2799,3.2973,3.3253,3.3053,3.312,3.3307,3.3387,3.3414,3.3414,3.3414,3.3414,3.3414,3.3414,3.3414,3.3414,3.3414,3.3414,3.3414,3.3414,3.3414,3.3414,3.3414,3.3414,3.3414,3.3414,3.348,3.3547,3.3547,3.3801,3.4082,3.4282,3.4576,3.4895,3.5044,3.5151,3.5191,3.5191,3.5191,3.5191,3.5191,3.5004,3.4977,3.5177,3.4803,3.475,3.5177,3.499,3.4977,3.5191,3.5191,3.5084,3.4818,3.4496,3.4282,3.4189,3.3654,3.3414,0.0,0.0,0.0,0.0,0.0,0.0,2.8991,2.9366,2.9847,3.0948,3.1363,3.173,3.2532,3.2893,3.3093,3.3213,3.3334,3.3414,3.3414,3.3307,3.328,3.34,3.3414,3.3414,3.3414,3.3414,3.3293,3.3,3.2973,3.2746,3.226,3.1904,3.1664,3.149,3.137,3.147,3.1711,3.147,3.1423,3.1711,3.1543,3.1557,3.1724,3.1851,3.1917,3.1917,3.1917,3.1917,3.1917,3.1917,3.2072,3.2233,3.2233,3.2407,3.2612,3.2612,3.2799,3.304,3.3,3.3093,3.3253,3.3374,3.3414,3.3414,3.3414,3.3414,3.3414,3.3414,3.3414,3.3414,3.3414,3.3414,3.3414,3.3414,3.3414,3.3414,3.3414,3.3414,3.3414,3.3414,3.3614,3.3788,3.3788,3.4148,3.4496,3.4656,3.483,3.5004,3.5177,3.5191,3.5191,3.5191,3.5191,3.5191,3.5191,3.5044,3.5017,3.5191,3.487,3.4843,3.5177,3.503,3.5017,3.5191,3.5191,3.499,3.4524,3.4402,3.4189,3.3935,3.3574,3.3414,0.0,0.0,0.0,0.0,0.0,0.0,2.9535,2.939,2.9222,3.0348,3.0805,3.1102,3.1503,3.2045,3.2487,3.2741,3.3,3.3267,3.3387,3.3187,3.312,3.3374,3.3414,3.34,3.3374,3.336,3.324,3.3009,3.2893,3.2519,3.1711,3.137,3.1209,3.1183,3.0929,3.1049,3.157,3.1049,3.1062,3.1617,3.1343,3.1356,3.1671,3.1698,3.1711,3.1711,3.1711,3.1711,3.1711,3.1711,3.1711,3.1724,3.1751,3.1877,3.2104,3.2144,3.2332,3.2688,3.2942,3.3,3.3066,3.3334,3.3414,3.3414,3.3414,3.3414,3.3414,3.3414,3.3414,3.3414,3.3414,3.3414,3.3414,3.3414,3.3414,3.3414,3.3414,3.3414,3.3414,3.3414,3.3841,3.4215,3.4215,3.471,3.5084,3.5057,3.5137,3.5191,3.5151,3.5177,3.5191,3.5191,3.5164,3.5151,3.5151,3.5084,3.507,3.5097,3.5097,3.511,3.5151,3.5177,3.5191,3.5191,3.5124,3.4857,3.4362,3.4309,3.3975,3.3414,3.3414,3.3427,0.0,0.0,0.0,0.0,0.0,0.0,2.9931,2.9244,2.8995,3.1296,3.0537,2.9735,3.0782,3.1062,3.1156,3.1209,3.1664,3.2332,3.328,3.336,3.3347,3.34,3.3414,3.332,3.3093,3.3066,3.2995,3.2701,3.2412,3.1998,3.1343,3.1263,3.1116,3.0889,3.0822,3.0849,3.0969,3.0849,3.0849,3.0969,3.1142,3.1203,3.1316,3.1557,3.1711,3.1711,3.1711,3.1711,3.1711,3.1711,3.1711,3.1738,3.1931,3.2051,3.2131,3.242,3.2688,3.2955,3.2959,3.3133,3.3334,3.3387,3.3414,3.3414,3.3414,3.3414,3.3414,3.3414,3.3414,3.3414,3.3414,3.3414,3.3414,3.3414,3.3414,3.3414,3.3414,3.3414,3.3414,3.3414,3.3507,3.3587,3.3587,3.4095,3.4416,3.4175,3.475,3.511,3.4936,3.5057,3.5191,3.5191,3.499,3.4895,3.4895,3.4416,3.4242,3.4482,3.4496,3.4603,3.4895,3.507,3.5191,3.5191,3.4736,3.4549,3.467,3.4202,3.3774,3.3414,3.3414,3.3547,0.0,0.0,0.0,2.7777,0.0,0.0,0.0,2.9914,2.9539,3.1386,2.9959,2.8644,2.9539,2.982,3.006,3.0501,3.1062,3.165,3.2238,3.2826,3.3253,3.3387,3.3414,3.3293,3.3013,3.2973,3.2799,3.2358,3.2051,3.1637,3.1036,3.1009,3.0875,3.0581,3.0434,3.0501,3.0795,3.0501,3.0501,3.0795,3.0795,3.0942,3.1236,3.1383,3.153,3.1711,3.1711,3.1711,3.1711,3.1711,3.1711,3.1724,3.1824,3.1891,3.1917,3.226,3.2412,3.2559,3.2755,3.3009,3.32,3.32,3.3293,3.3414,3.3414,3.3414,3.3414,3.3414,3.3414,3.3414,3.3414,3.3414,3.3414,3.3414,3.3414,3.3414,3.3414,3.3414,3.3414,3.3414,3.3414,3.3467,3.3614,3.4028,3.4269,3.4122,3.4482,3.4763,3.4815,3.4949,3.4977,3.4977,3.4843,3.4696,3.4549,3.4269,3.4229,3.4523,3.4402,3.4456,3.4802,3.4763,3.4763,3.4763,3.4322,3.4175,3.4322,3.3868,3.3654,3.3641,3.348,3.3494,0.0,0.0,0.0,0.0,0.0,3.0378,0.0,0.0,0.0,3.0955,2.931,2.7968,2.8875,2.9203,2.9585,3.0254,3.0918,3.1243,3.0855,3.1824,3.2666,3.2959,3.3093,3.304,3.2808,3.2679,3.2465,3.2051,3.169,3.1289,3.0822,3.0742,3.0581,3.0333,3.0047,3.014,3.0621,3.0154,3.0154,3.0621,3.0493,3.0635,3.1142,3.1196,3.1383,3.1711,3.1711,3.1711,3.1711,3.1711,3.1711,3.1711,3.1711,3.1711,3.1751,3.1931,3.2051,3.2144,3.2487,3.2781,3.2973,3.2973,3.3133,3.3334,3.3387,3.3414,3.3414,3.3414,3.3414,3.3414,3.3414,3.3414,3.3414,3.3414,3.3414,3.3414,3.3414,3.3414,3.3414,3.3414,3.3414,3.3494,3.3748,3.4042,3.4215,3.4148,3.4242,3.4389,3.4628,3.4695,3.4683,3.4683,3.4616,3.4444,3.4255,3.4175,3.4242,3.4482,3.4336,3.4349,3.4641,3.4416,3.4322,3.4322,3.4042,3.3921,3.3975,3.3654,3.3601,3.3788,3.3587,3.3507,0.0,0.0,0.0,0.0,2.8856,0.0,0.0,0.0,2.8772,3.016,0.0,2.8289,3.0214,0.0,0.0,3.0325,3.1267,3.1353,2.9505,3.0301,3.1142,3.1436,3.1931,3.2131,3.1851,3.1583,3.1503,3.1751,3.1209,3.0862,3.0795,3.0541,3.0319,2.998,2.994,2.9953,3.002,2.9953,2.9953,3.002,3.0247,3.0574,3.0849,3.1102,3.1383,3.1711,3.1711,3.1711,3.1711,3.1711,3.1711,3.1711,3.1711,3.1711,3.1724,3.1751,3.1877,3.2144,3.2487,3.2781,3.2973,3.2973,3.3,3.308,3.3334,3.3414,3.3414,3.3414,3.3414,3.3414,3.3414,3.3414,3.3414,3.3414,3.3414,3.3414,3.3414,3.3414,3.3414,3.3414,3.3414,3.3427,3.3454,3.3721,3.3841,3.3561,3.3975,3.4242,3.4015,3.4215,3.4376,3.4376,3.4135,3.3975,3.3935,3.3681,3.3534,3.3561,3.3801,3.3948,3.3988,3.4202,3.4322,3.4322,3.4042,3.4015,3.4269,3.3975,3.3708,3.3467,3.3721,3.3828,0.0,0.0,0.0,0.0,0.0,0.0,3.0532,0.0,2.9515,0.0,0.0,0.0,0.0,0.0,0.0,0.0,3.1208,3.0943,2.8852,2.9245,3.0074,3.0875,3.1196,3.1289,3.1169,3.0902,3.0782,3.0948,3.0734,3.0461,3.0287,3.0373,3.0266,2.9927,2.9913,2.9913,2.9913,2.9913,2.9913,2.9913,3.0047,3.0341,3.0795,3.0915,3.1236,3.1711,3.149,3.1517,3.1698,3.149,3.1517,3.1711,3.1711,3.1711,3.1711,3.1711,3.1791,3.1864,3.2045,3.2273,3.2492,3.2714,3.2888,3.3,3.312,3.328,3.3414,3.3414,3.3414,3.3414,3.3414,3.3414,3.3414,3.3414,3.3414,3.3414,3.3414,3.3414,3.3414,3.3414,3.3414,3.3414,3.3414,3.3521,3.3561,3.3427,3.3627,3.3814,3.3881,3.3988,3.4068,3.4068,3.3961,3.3814,3.3627,3.3494,3.3494,3.3681,3.3814,3.3801,3.3614,3.3734,3.3788,3.3788,3.3668,3.3668,3.3788,3.3668,3.3547,3.3427,3.3908,3.4055,2.8393,0.0,0.0,0.0,0.0,0.0,0.0,0.0,0.0,0.0,0.0,0.0,0.0,0.0,0.0,0.0,0.0,3.1056,2.8355,2.8283,2.8925,2.994,3.0287,3.0434,3.0434,3.0167,3.006,3.0266,3.0065,2.986,2.9806,2.9927,2.994,2.9806,2.9713,2.9753,2.9913,2.9833,2.9833,2.9913,2.9913,3.0181,3.0675,3.0755,3.1022,3.1423,3.1289,3.1303,3.1423,3.1276,3.1356,3.1557,3.1684,3.1711,3.1711,3.1711,3.1711,3.1724,3.1757,3.1931,3.2144,3.25,3.2688,3.2772,3.2933,3.3133,3.3307,3.3387,3.3414,3.3414,3.3414,3.3414,3.3414,3.3414,3.3414,3.3414,3.3414,3.3414,3.3414,3.3414,3.3414,3.3414,3.3414,3.3414,3.3414,3.3414,3.3414,3.3494,3.3721,3.3761,3.3761,3.3761,3.3761,3.3668,3.3427,3.3414,3.3507,3.3748,3.3761,3.3654,3.3427,3.3414,3.3414,3.3414,3.3414,3.3454,3.3547,3.3547,3.3587,3.3668,3.4108,3.4162,0.0,0.0,0.0,2.7697,0.0,0.0,0.0,0.0,3.1184,0.0,0.0,0.0,0.0,0.0,0.0,0.0,0.0,0.0,0.0,2.7349,2.759,2.8205,2.9035,2.9526,2.9526,2.9259,2.9268,2.9887,2.9138,2.8911,2.9472,2.9232,2.9205,2.9486,2.9219,2.9295,2.9913,2.9633,2.9633,2.9913,2.9913,3.0074,3.0426,3.0662,3.0808,3.0835,3.1102,3.1076,3.0849,3.1116,3.1236,3.1276,3.1557,3.1711,3.1711,3.1711,3.1711,3.1751,3.1984,3.2091,3.2144,3.25,3.2407,3.2238,3.2812,3.2986,3.3053,3.3334,3.3414,3.3414,3.3414,3.3414,3.3414,3.3414,3.3414,3.3414,3.3414,3.3414,3.3414,3.3414,3.3414,3.3414,3.3414,3.3414,3.3414,3.3414,3.3414,3.3414,3.3427,3.3427,3.3427,3.3427,3.3427,3.3427,3.3414,3.3414,3.3414,3.3427,3.3427,3.3427,3.3414,3.3414,3.3414,3.3414,3.3414,3.3561,3.3868,3.3868,3.4015,3.4295,3.4309,3.4162,0.0,0.0,2.9219,2.8165,0.0,0.0,0.0,0.0,0.0,0.0,0.0,0.0,0.0,0.0,0.0,0.0,0.0,0.0,0.0,2.7894,2.873,2.9241,2.891,2.8727,2.8885,2.8631,2.8617,2.9018,2.8591,2.8513,2.8885,2.8991,2.9135,2.9472,2.9392,2.9526,2.9913,2.982,2.982,2.9913,2.9913,3.0167,3.0648,3.0755,3.0902,3.1076,3.0982,3.0996,3.1076,3.0982,3.1169,3.153,3.1671,3.1711,3.1711,3.1711,3.1711,3.1724,3.1784,3.1944,3.2091,3.2045,3.2206,3.2447,3.2398,3.2666,3.3,3.3093,3.3267,3.3414,3.3414,3.3414,3.3414,3.3414,3.3414,3.3414,3.3414,3.3414,3.3414,3.3414,3.3414,3.3414,3.3414,3.3414,3.3414,3.3414,3.3414,3.3414,3.3414,3.3414,3.3414,3.3414,3.3414,3.3414,3.3414,3.3414,3.3414,3.3414,3.3414,3.3414,3.3414,3.3414,3.3414,3.3414,3.3414,3.3467,3.3574,3.3788,3.3828,3.3734,3.4336,3.4563,2.8577,2.8885,0.0,2.9479,3.0544,0.0,3.1505,0.0,0.0,0.0,0.0,0.0,0.0,0.0,0.0,0.0,0.0,0.0,0.0,2.8925,2.9373,2.9794,2.9253,2.8716,2.8341,2.8096,2.8112,2.827,2.8138,2.8112,2.827,2.8564,2.8858,2.9165,2.9179,2.9312,2.9562,2.9713,2.9766,2.9766,2.986,3.0114,3.0488,3.0595,3.0688,3.0709,3.0675,3.0688,3.0755,3.0675,3.0915,3.1417,3.1476,3.1583,3.1711,3.1711,3.1711,3.1724,3.1784,3.1877,3.1931,3.1851,3.2059,3.2286,3.23,3.2567,3.2915,3.308,3.3267,3.3414,3.3414,3.3414,3.3414,3.3414,3.3414,3.3414,3.3414,3.3414,3.3414,3.3414,3.3414,3.3414,3.3414,3.3414,3.3414,3.3414,3.3414,3.3414,3.3414,3.3414,3.3414,3.3414,3.3414,3.3414,3.3414,3.3414,3.3414,3.3414,3.3414,3.3414,3.3414,3.3414,3.3614,3.4042,3.3627,3.3668,3.4202,3.3868,3.3774,3.3895,3.4282,3.4668]},{"header":{"parameterUnit":"m.s-1","parameterCategory":1,"la1":30.6,"la2":29.2853,"lo1":-89.7004,"lo2":-87.6739,"dy":0.0162,"dx":0.0183,"nx":112,"ny":82,"refTime":"2023-10-01T06:00:00:Z","depth":0,"parameterNumber":3,"parameterNumberName":"V-component_of_WINDS"},"data":[0.0,0.0,0.0,0.0,0.0,0.0,0.0,0.0,0.0,0.0,0.0,0.0,0.0,0.0,0.0,0.0,0.0,0.0,0.0,0.0,0.0,0.0,0.0,0.0,0.0,0.0,0.0,0.0,0.0,0.0,0.0,0.0,0.0,0.0,0.0,0.0,0.0,0.0,0.0,0.0,0.0,0.0,0.0,0.0,0.0,0.0,0.0,0.0,0.0,0.0,0.0,0.0,0.0,0.0,0.0,0.0,0.0,0.0,0.0,0.0,0.0,0.0,0.0,0.0,0.0,0.0,0.0,0.0,0.0,0.0,0.0,0.0,0.0,0.0,0.0,0.0,0.0,0.0,0.0,0.0,0.0,0.0,0.0,0.0,0.0,0.0,0.0,0.0,0.0,0.0,4.5577,4.5541,4.5589,4.5484,4.5213,4.6083,4.6057,4.4773,0.0,0.0,0.0,0.0,0.0,0.0,0.0,0.0,0.0,0.0,0.0,0.0,0.0,0.0,0.0,0.0,0.0,0.0,0.0,0.0,0.0,0.0,0.0,0.0,0.0,0.0,0.0,0.0,0.0,0.0,0.0,0.0,0.0,0.0,0.0,0.0,0.0,0.0,0.0,0.0,0.0,0.0,0.0,0.0,0.0,0.0,0.0,0.0,0.0,0.0,0.0,0.0,0.0,0.0,0.0,0.0,0.0,0.0,0.0,0.0,0.0,0.0,0.0,0.0,0.0,0.0,0.0,0.0,0.0,0.0,0.0,0.0,0.0,0.0,0.0,0.0,0.0,0.0,0.0,0.0,0.0,0.0,0.0,0.0,0.0,0.0,0.0,0.0,0.0,0.0,0.0,0.0,0.0,0.0,0.0,0.0,0.0,0.0,0.0,0.0,0.0,0.0,0.0,0.0,4.5475,4.5206,4.495,4.4903,4.5176,4.4747,4.4556,4.469,0.0,0.0,0.0,0.0,0.0,0.0,0.0,0.0,0.0,0.0,0.0,0.0,0.0,0.0,0.0,0.0,0.0,0.0,0.0,0.0,0.0,0.0,0.0,0.0,0.0,0.0,0.0,0.0,0.0,0.0,0.0,0.0,0.0,0.0,0.0,0.0,0.0,0.0,0.0,0.0,0.0,0.0,0.0,0.0,0.0,0.0,0.0,0.0,0.0,0.0,0.0,0.0,0.0,0.0,0.0,0.0,0.0,0.0,0.0,0.0,0.0,0.0,0.0,0.0,0.0,0.0,0.0,0.0,0.0,0.0,0.0,0.0,0.0,0.0,0.0,0.0,0.0,0.0,0.0,0.0,0.0,0.0,0.0,0.0,0.0,0.0,0.0,0.0,0.0,0.0,0.0,0.0,0.0,0.0,0.0,0.0,0.0,0.0,0.0,0.0,0.0,0.0,0.0,4.5185,4.5,4.4855,4.4488,4.4347,4.4527,4.4048,4.3828,4.4029,4.4532,0.0,0.0,0.0,0.0,0.0,0.0,0.0,0.0,0.0,0.0,0.0,0.0,0.0,0.0,0.0,0.0,0.0,0.0,0.0,0.0,0.0,0.0,0.0,0.0,0.0,0.0,0.0,0.0,0.0,0.0,0.0,0.0,0.0,0.0,0.0,0.0,0.0,0.0,0.0,0.0,0.0,0.0,0.0,0.0,0.0,0.0,0.0,0.0,0.0,0.0,0.0,0.0,0.0,0.0,0.0,0.0,0.0,0.0,0.0,0.0,0.0,0.0,0.0,0.0,0.0,0.0,0.0,0.0,0.0,0.0,0.0,0.0,0.0,0.0,0.0,0.0,0.0,0.0,0.0,0.0,0.0,0.0,0.0,0.0,0.0,0.0,0.0,0.0,0.0,0.0,0.0,0.0,0.0,0.0,0.0,0.0,0.0,0.0,0.0,0.0,0.0,0.0,4.4695,4.4441,4.4441,4.4095,4.3889,4.3889,4.3664,4.3512,4.3622,4.3631,0.0,0.0,0.0,0.0,0.0,0.0,0.0,0.0,0.0,0.0,0.0,0.0,0.0,0.0,0.0,0.0,0.0,0.0,0.0,0.0,0.0,0.0,0.0,0.0,0.0,0.0,0.0,0.0,0.0,0.0,0.0,0.0,0.0,0.0,0.0,0.0,0.0,0.0,0.0,0.0,0.0,0.0,0.0,0.0,0.0,0.0,0.0,0.0,0.0,0.0,0.0,0.0,0.0,0.0,0.0,0.0,0.0,0.0,0.0,0.0,0.0,0.0,0.0,0.0,0.0,0.0,0.0,0.0,0.0,0.0,0.0,0.0,0.0,0.0,0.0,0.0,0.0,0.0,0.0,0.0,0.0,0.0,0.0,0.0,0.0,0.0,0.0,0.0,0.0,0.0,0.0,0.0,0.0,0.0,0.0,0.0,0.0,0.0,0.0,0.0,0.0,0.0,4.4283,4.4035,4.4035,4.3742,4.3558,4.3558,4.3523,4.3647,4.3958,4.3952,0.0,0.0,0.0,0.0,0.0,0.0,0.0,0.0,0.0,0.0,0.0,0.0,0.0,0.0,0.0,0.0,0.0,0.0,0.0,0.0,0.0,0.0,0.0,0.0,0.0,0.0,0.0,0.0,0.0,0.0,0.0,0.0,0.0,0.0,0.0,0.0,0.0,0.0,0.0,0.0,0.0,0.0,0.0,0.0,0.0,0.0,0.0,0.0,0.0,0.0,0.0,0.0,0.0,0.0,0.0,0.0,0.0,0.0,0.0,0.0,0.0,0.0,0.0,0.0,0.0,0.0,0.0,0.0,0.0,0.0,0.0,0.0,0.0,0.0,0.0,0.0,0.0,0.0,0.0,0.0,0.0,0.0,0.0,0.0,0.0,0.0,0.0,0.0,0.0,0.0,0.0,0.0,0.0,0.0,0.0,0.0,0.0,0.0,0.0,0.0,0.0,0.0,4.3912,4.3685,0.0,4.3572,4.3506,4.3506,4.3506,4.3656,4.3967,0.0,0.0,0.0,0.0,0.0,0.0,0.0,0.0,0.0,0.0,0.0,0.0,0.0,0.0,0.0,0.0,0.0,0.0,0.0,0.0,0.0,0.0,0.0,0.0,0.0,0.0,0.0,0.0,0.0,0.0,0.0,0.0,0.0,0.0,0.0,0.0,0.0,0.0,0.0,0.0,0.0,0.0,0.0,0.0,0.0,0.0,0.0,0.0,0.0,0.0,0.0,0.0,0.0,0.0,0.0,0.0,0.0,0.0,0.0,0.0,0.0,0.0,0.0,0.0,0.0,0.0,0.0,0.0,0.0,0.0,0.0,0.0,0.0,0.0,0.0,0.0,0.0,0.0,0.0,0.0,0.0,0.0,0.0,0.0,0.0,0.0,0.0,0.0,0.0,0.0,0.0,0.0,0.0,0.0,0.0,0.0,0.0,0.0,0.0,0.0,0.0,0.0,4.3912,4.3656,4.3506,0.0,4.3597,4.3644,4.3644,4.3775,4.3989,4.4339,0.0,0.0,0.0,0.0,0.0,0.0,0.0,0.0,0.0,0.0,0.0,0.0,0.0,0.0,0.0,0.0,0.0,0.0,0.0,0.0,0.0,0.0,0.0,0.0,0.0,0.0,0.0,0.0,0.0,0.0,0.0,0.0,0.0,0.0,0.0,0.0,0.0,0.0,0.0,0.0,0.0,0.0,0.0,0.0,0.0,0.0,0.0,0.0,0.0,0.0,0.0,0.0,0.0,0.0,0.0,0.0,0.0,0.0,0.0,0.0,0.0,0.0,0.0,0.0,0.0,0.0,0.0,0.0,0.0,0.0,0.0,0.0,0.0,0.0,0.0,0.0,0.0,0.0,0.0,0.0,0.0,0.0,0.0,0.0,0.0,0.0,0.0,0.0,0.0,0.0,0.0,0.0,0.0,0.0,0.0,0.0,0.0,0.0,0.0,0.0,0.0,0.0,4.3589,4.3515,4.3515,4.3515,4.3831,4.3998,4.3998,4.4359,4.4751,0.0,0.0,0.0,0.0,0.0,0.0,0.0,0.0,0.0,0.0,0.0,0.0,0.0,0.0,0.0,0.0,0.0,0.0,0.0,0.0,0.0,0.0,0.0,0.0,0.0,0.0,0.0,0.0,0.0,0.0,0.0,0.0,0.0,0.0,0.0,0.0,0.0,0.0,0.0,0.0,0.0,0.0,0.0,0.0,0.0,0.0,0.0,0.0,0.0,0.0,0.0,0.0,0.0,0.0,0.0,0.0,0.0,0.0,0.0,0.0,0.0,0.0,0.0,0.0,0.0,0.0,0.0,0.0,0.0,0.0,0.0,0.0,0.0,0.0,0.0,0.0,0.0,0.0,0.0,0.0,0.0,0.0,0.0,0.0,0.0,0.0,0.0,0.0,0.0,0.0,0.0,0.0,0.0,0.0,0.0,0.0,0.0,0.0,0.0,0.0,0.0,0.0,0.0,4.3589,4.3701,4.3849,4.3849,4.4183,4.4407,4.4407,4.4546,4.4751,4.5099,0.0,0.0,0.0,0.0,0.0,0.0,0.0,0.0,0.0,0.0,0.0,0.0,0.0,0.0,0.0,0.0,0.0,0.0,0.0,0.0,0.0,0.0,0.0,0.0,0.0,0.0,0.0,0.0,0.0,0.0,0.0,0.0,0.0,0.0,0.0,0.0,0.0,0.0,0.0,0.0,0.0,0.0,0.0,0.0,0.0,0.0,0.0,0.0,0.0,0.0,0.0,0.0,0.0,0.0,0.0,0.0,0.0,0.0,0.0,0.0,0.0,0.0,0.0,0.0,0.0,0.0,0.0,0.0,0.0,0.0,0.0,0.0,0.0,0.0,0.0,0.0,0.0,0.0,0.0,0.0,0.0,0.0,0.0,0.0,0.0,0.0,0.0,0.0,0.0,0.0,0.0,0.0,0.0,0.0,0.0,0.0,0.0,0.0,0.0,0.0,0.0,0.0,4.4004,4.4125,4.4233,4.4233,4.4567,4.4806,4.4806,4.4925,4.4957,4.4776,0.0,0.0,0.0,0.0,0.0,0.0,0.0,0.0,0.0,0.0,0.0,0.0,0.0,0.0,0.0,0.0,0.0,0.0,0.0,0.0,0.0,0.0,0.0,0.0,0.0,0.0,0.0,0.0,0.0,0.0,0.0,0.0,0.0,0.0,0.0,0.0,0.0,0.0,0.0,0.0,0.0,0.0,0.0,0.0,0.0,0.0,0.0,0.0,0.0,0.0,0.0,0.0,0.0,0.0,0.0,0.0,0.0,0.0,0.0,0.0,0.0,0.0,0.0,0.0,0.0,0.0,0.0,0.0,0.0,0.0,0.0,0.0,0.0,0.0,0.0,0.0,0.0,0.0,0.0,0.0,0.0,0.0,0.0,0.0,0.0,0.0,0.0,0.0,0.0,0.0,0.0,0.0,0.0,0.0,0.0,0.0,0.0,0.0,0.0,0.0,0.0,0.0,4.465,4.4637,4.4657,4.4657,4.4943,4.5159,4.5159,4.5424,4.5244,4.4474,0.0,0.0,0.0,0.0,0.0,0.0,0.0,0.0,0.0,0.0,0.0,0.0,0.0,0.0,0.0,0.0,0.0,0.0,0.0,0.0,0.0,0.0,0.0,0.0,0.0,0.0,0.0,0.0,0.0,0.0,0.0,0.0,0.0,0.0,0.0,0.0,0.0,0.0,0.0,0.0,0.0,0.0,0.0,0.0,0.0,0.0,0.0,0.0,0.0,0.0,0.0,0.0,0.0,0.0,0.0,0.0,0.0,0.0,0.0,0.0,5.3341,5.2919,0.0,0.0,0.0,0.0,0.0,0.0,0.0,0.0,0.0,0.0,0.0,0.0,0.0,0.0,0.0,0.0,0.0,0.0,0.0,0.0,0.0,0.0,0.0,0.0,0.0,0.0,0.0,0.0,0.0,0.0,0.0,0.0,0.0,0.0,0.0,0.0,0.0,0.0,0.0,0.0,4.465,4.4837,4.4983,4.4983,4.5283,4.5475,4.5475,4.5564,4.5518,4.5321,4.5518,0.0,0.0,0.0,0.0,0.0,0.0,0.0,0.0,0.0,0.0,0.0,0.0,0.0,0.0,0.0,0.0,0.0,0.0,0.0,0.0,0.0,0.0,0.0,0.0,0.0,0.0,0.0,0.0,0.0,0.0,0.0,0.0,0.0,0.0,0.0,0.0,0.0,0.0,0.0,0.0,0.0,0.0,0.0,0.0,0.0,0.0,0.0,0.0,0.0,0.0,0.0,0.0,0.0,0.0,0.0,0.0,0.0,0.0,0.0,5.5783,5.4528,0.0,0.0,0.0,0.0,0.0,0.0,0.0,0.0,0.0,0.0,0.0,0.0,0.0,0.0,0.0,0.0,0.0,0.0,0.0,0.0,0.0,0.0,0.0,0.0,0.0,0.0,0.0,0.0,0.0,0.0,0.0,0.0,0.0,0.0,0.0,0.0,0.0,0.0,0.0,0.0,4.5208,4.5275,4.5356,4.5356,4.5518,4.5594,4.5594,4.5594,4.5436,4.5013,4.5359,0.0,0.0,0.0,0.0,0.0,0.0,0.0,0.0,0.0,0.0,0.0,0.0,0.0,0.0,0.0,0.0,0.0,0.0,0.0,0.0,0.0,0.0,0.0,0.0,0.0,0.0,0.0,0.0,0.0,0.0,0.0,0.0,0.0,0.0,0.0,0.0,0.0,0.0,0.0,0.0,0.0,0.0,0.0,0.0,0.0,0.0,0.0,0.0,0.0,0.0,0.0,0.0,0.0,6.2512,6.3524,6.4199,6.4352,6.3933,6.2935,5.9277,5.7364,5.6767,5.6059,0.0,0.0,0.0,0.0,0.0,0.0,0.0,0.0,0.0,0.0,0.0,0.0,0.0,0.0,0.0,0.0,0.0,0.0,0.0,0.0,0.0,0.0,0.0,0.0,5.3026,5.2197,4.898,0.0,0.0,0.0,0.0,0.0,0.0,0.0,0.0,0.0,0.0,0.0,4.5825,4.5733,4.5669,4.5669,4.5669,4.5669,4.5669,4.5669,4.5344,4.461,4.5226,4.5287,0.0,0.0,0.0,0.0,0.0,0.0,0.0,0.0,0.0,0.0,0.0,0.0,0.0,0.0,0.0,0.0,0.0,0.0,0.0,0.0,0.0,0.0,0.0,0.0,0.0,0.0,0.0,0.0,0.0,0.0,0.0,0.0,5.0508,5.1169,0.0,0.0,0.0,0.0,0.0,0.0,0.0,0.0,0.0,0.0,0.0,0.0,0.0,5.9202,6.0719,6.3517,6.5006,6.5193,6.8229,6.898,6.7737,6.8507,6.7994,6.6416,6.583,0.0,6.0445,5.9574,0.0,0.0,0.0,0.0,0.0,0.0,0.0,0.0,0.0,0.0,0.0,0.0,0.0,0.0,0.0,0.0,0.0,0.0,0.0,0.0,0.0,0.0,5.5542,5.4917,5.525,5.5363,0.0,5.1704,4.9401,4.8176,4.7555,0.0,0.0,0.0,0.0,0.0,0.0,0.0,4.5896,4.5881,4.5872,4.5872,4.5872,4.5872,4.5872,4.5872,4.5781,4.5602,4.5708,4.5672,4.5445,4.5436,0.0,0.0,0.0,0.0,0.0,0.0,0.0,0.0,0.0,0.0,0.0,0.0,0.0,0.0,0.0,0.0,0.0,0.0,0.0,0.0,0.0,0.0,0.0,0.0,0.0,0.0,0.0,0.0,0.0,5.1898,5.4267,5.3657,5.4131,5.3926,0.0,0.0,0.0,0.0,0.0,0.0,0.0,0.0,0.0,6.1575,6.2863,6.4338,6.6103,6.8306,6.9443,6.9443,7.1437,7.1968,7.1276,7.1661,7.1437,7.0706,7.0706,6.9142,6.6425,6.324,6.1442,6.0572,0.0,0.0,0.0,0.0,5.7653,5.7696,5.7803,5.8172,5.8474,5.7583,0.0,0.0,0.0,0.0,0.0,0.0,0.0,5.5498,0.0,0.0,5.7257,5.7374,5.7286,5.7036,5.6688,5.4658,5.2446,0.0,5.0295,4.9582,4.8266,0.0,0.0,0.0,0.0,4.6904,4.7413,4.7408,4.7175,4.6664,4.6625,4.6429,4.5959,4.5882,4.5898,4.5877,4.6307,4.6552,4.6484,4.6883,4.6905,0.0,0.0,0.0,0.0,0.0,0.0,0.0,0.0,0.0,0.0,0.0,0.0,0.0,0.0,0.0,0.0,0.0,0.0,0.0,0.0,0.0,0.0,0.0,0.0,0.0,0.0,0.0,0.0,5.5593,5.8033,5.6178,5.808,5.8338,0.0,0.0,0.0,0.0,0.0,0.0,6.1384,6.222,6.4078,6.7209,6.8437,6.9783,7.1283,7.279,7.3483,7.3521,7.4361,7.4661,7.4476,7.4476,7.4238,7.3815,7.3815,7.2822,7.0919,6.6807,6.4688,6.3959,6.249,6.1379,6.0669,6.1015,6.0972,6.0763,6.0983,6.1334,6.1467,6.0333,5.9649,5.9032,5.7693,0.0,0.0,0.0,0.0,5.7327,5.828,5.8555,5.875,5.9648,5.9336,5.8867,5.8867,5.7539,5.5581,0.0,5.2565,5.1894,5.0424,0.0,0.0,0.0,0.0,4.8258,4.8688,4.8653,4.8345,4.7681,4.7642,4.7367,4.6702,4.6859,4.7005,4.6943,4.7763,4.8222,4.8195,4.8719,4.8618,4.781,0.0,0.0,0.0,0.0,0.0,0.0,0.0,0.0,0.0,0.0,0.0,0.0,0.0,0.0,0.0,0.0,0.0,0.0,0.0,0.0,0.0,0.0,0.0,0.0,0.0,0.0,0.0,0.0,0.0,5.8293,6.2338,0.0,0.0,0.0,0.0,5.9948,6.2184,6.4501,6.6615,6.8294,7.0416,7.2986,7.3885,7.4745,7.5668,7.6599,7.7022,7.7061,7.7869,7.7869,7.7099,7.7099,7.6207,7.4623,7.4623,7.3707,7.1982,7.0142,6.7956,6.5692,6.4762,6.3877,6.3024,6.2293,6.268,6.3375,6.1819,6.1985,6.289,6.2812,6.1679,6.0156,5.9336,5.8476,0.0,0.0,5.8398,5.9258,6.0078,6.0273,6.0508,6.1367,6.1523,6.1523,6.1523,6.0195,5.7967,0.0,5.3122,5.2301,5.1363,0.0,5.0875,5.0233,5.0078,4.9765,4.8984,4.8867,4.8867,4.8828,4.8828,4.8788,4.8749,4.9492,4.9916,4.9803,5.062,5.1024,5.0902,5.0932,5.0536,4.9675,4.8846,0.0,0.0,0.0,0.0,0.0,0.0,0.0,0.0,0.0,0.0,0.0,0.0,0.0,0.0,0.0,0.0,0.0,0.0,0.0,0.0,0.0,0.0,0.0,0.0,0.0,0.0,0.0,0.0,6.3774,6.7241,0.0,6.4126,6.4695,6.5597,6.627,6.7627,6.9481,7.1853,7.2591,7.386,7.5861,7.6207,7.6784,7.7599,7.7907,7.8061,7.8099,7.8369,7.8369,7.8068,7.7685,7.717,7.6519,7.6105,7.4941,7.3311,7.2696,7.0898,6.8409,6.7564,6.6792,6.6087,6.5812,6.563,6.5384,6.4795,6.486,6.5022,6.4022,6.296,6.1797,6.039,6.0156,6.0234,5.9687,6.0156,6.0859,6.1172,6.125,6.1328,6.164,6.1289,6.0859,6.0859,5.9531,5.7968,5.6676,5.5308,5.4253,5.3941,5.2925,5.2302,5.2617,5.2187,5.1914,5.2148,5.2187,5.1953,5.1406,5.1367,5.1133,5.0547,5.0781,5.0937,5.0894,5.1714,5.2179,5.213,5.2605,5.2464,5.1609,5.1199,5.0847,0.0,0.0,0.0,0.0,0.0,0.0,0.0,0.0,0.0,0.0,0.0,0.0,0.0,0.0,0.0,0.0,0.0,0.0,0.0,0.0,0.0,0.0,0.0,0.0,0.0,6.599,6.9188,6.7603,7.1425,7.266,6.8742,6.9724,7.0807,7.1346,7.2437,7.3899,7.5861,7.6238,7.7092,7.8554,7.8592,7.8823,7.9369,7.9425,7.9489,7.9496,7.954,7.9443,7.914,7.8723,7.8413,7.8117,7.7341,7.6236,7.4835,7.4247,7.2772,7.0845,6.9998,6.936,6.8932,6.8657,6.8223,6.7691,6.7181,6.6804,6.6346,6.5036,6.4288,6.3555,6.1797,6.1639,6.1907,6.1009,6.1204,6.1634,6.1634,6.1678,6.1719,6.1719,6.125,6.0859,6.0859,5.9726,5.875,5.875,5.7109,5.5742,5.5742,5.4765,5.4219,5.4805,5.4141,5.3906,5.4765,5.4609,5.4336,5.4062,5.4023,5.3789,5.3203,5.3437,5.3594,5.3594,5.4141,5.4453,5.4453,5.4914,5.4787,5.3968,5.3271,5.2935,5.2935,0.0,0.0,0.0,0.0,0.0,0.0,0.0,0.0,0.0,0.0,0.0,0.0,0.0,0.0,0.0,0.0,0.0,0.0,0.0,0.0,0.0,0.0,0.0,6.5089,6.9514,7.2057,6.963,7.4827,7.6638,7.1668,7.4168,7.5784,7.493,7.6414,7.773,7.8538,7.943,8.0277,8.1108,8.1162,8.1162,8.1154,8.1337,8.1424,8.1424,8.1609,8.1252,8.0446,8.0407,7.9987,7.9219,7.8324,7.7428,7.6497,7.4774,7.3659,7.2936,7.1911,7.1491,7.142,7.0535,7.0318,7.0221,6.8708,6.7617,6.6758,6.5859,6.5586,6.5273,6.3554,6.2954,6.2676,6.1816,6.1583,6.1585,6.1546,6.1627,6.1719,6.1719,6.1719,6.1719,6.1719,6.1015,6.039,6.039,5.8398,5.668,5.668,5.668,5.668,5.668,5.5976,0.0,5.6562,5.5937,5.5742,5.664,5.6719,5.6719,5.6719,5.75,5.7969,5.789,5.789,5.789,5.789,5.789,5.75,5.664,5.5,5.414,5.4101,0.0,0.0,0.0,0.0,0.0,0.0,0.0,0.0,0.0,0.0,0.0,0.0,0.0,0.0,0.0,0.0,0.0,0.0,0.0,0.0,0.0,6.9463,7.2629,7.1536,7.4101,7.624,7.6763,7.8923,7.9592,7.7553,7.8207,7.8669,7.8431,7.8972,7.9693,8.0544,8.1586,8.2139,8.2207,8.2987,8.3037,8.22,8.244,8.2258,8.1632,8.1514,8.1441,8.1337,8.0707,8.0354,8.0195,7.8903,7.783,7.6932,7.5838,7.4908,7.3977,7.2314,7.1732,7.1776,7.0879,6.9832,6.8748,6.8188,6.7428,6.6522,6.5556,6.5255,6.5021,6.3925,6.3649,6.3686,6.3452,6.345,6.3394,6.2769,6.2616,6.2461,6.1836,6.1719,6.1719,6.1719,6.1015,6.039,6.039,5.9375,5.8476,5.8476,5.8476,5.8476,5.8476,5.8281,0.0,5.8437,5.8281,5.8437,5.9258,5.9375,5.9375,5.9375,5.957,5.918,5.7969,5.789,5.789,5.789,5.789,5.7773,5.7539,5.7695,5.7379,0.0,0.0,0.0,0.0,0.0,0.0,0.0,0.0,0.0,0.0,0.0,0.0,0.0,0.0,0.0,0.0,0.0,0.0,0.0,0.0,0.0,0.0,7.412,7.7103,7.8175,7.8424,7.9011,8.0427,8.1019,8.1135,8.0632,8.06,8.06,8.06,8.0688,8.1131,8.2023,8.2673,8.3221,8.3665,8.4106,8.4115,8.3692,8.3691,8.3247,8.2386,8.2357,8.22,8.1928,8.1418,8.1258,8.1303,8.0076,7.9258,7.8672,7.6985,7.6003,7.5382,0.0,0.0,0.0,0.0,7.0248,6.9006,6.891,6.8069,6.6927,6.6334,6.5914,6.5486,6.4623,6.4372,6.4318,6.4004,6.3948,6.3885,6.3376,6.3353,6.3348,6.284,6.2732,6.2773,6.2773,6.2383,6.2031,6.2031,6.164,0.0,6.1328,6.0156,5.9297,5.9648,5.9414,5.9609,6.0664,6.0469,6.0703,6.1914,6.2031,6.2031,6.2031,6.2031,0.0,0.0,0.0,5.9336,5.8945,5.8945,0.0,0.0,0.0,5.9457,5.9129,5.9289,0.0,0.0,5.8457,5.8206,0.0,0.0,0.0,0.0,0.0,0.0,0.0,0.0,0.0,0.0,0.0,0.0,0.0,0.0,0.0,0.0,7.9059,8.0925,8.4217,8.24,8.1019,8.1746,8.184,8.184,8.184,8.184,8.1878,8.1999,8.2018,8.2422,8.3286,8.3424,0.0,0.0,0.0,8.5092,8.5391,8.5091,8.4432,8.3494,8.3544,8.3163,8.2422,8.2304,8.2226,8.2225,8.1325,8.0933,8.0736,7.8188,7.7098,7.6833,7.518,7.4058,7.3236,7.2211,7.1173,7.0339,7.0201,0.0,0.0,6.7684,6.7214,6.6479,6.5694,6.5354,6.5063,6.4352,6.4177,6.42,6.4079,6.4273,6.4487,6.437,6.4467,6.453,6.4413,6.4414,6.4414,6.4336,6.4297,6.4297,6.4297,6.1797,6.0039,6.0742,6.0234,6.0586,6.2851,6.2578,6.2773,6.4414,0.0,0.0,6.4726,6.4726,6.4297,6.3203,6.2344,6.1484,6.0702,6.078,6.0691,6.0472,6.0549,6.0846,6.1315,6.0699,6.0767,6.1405,5.9714,5.9213,0.0,0.0,0.0,0.0,0.0,0.0,0.0,0.0,0.0,0.0,0.0,0.0,0.0,0.0,0.0,7.8872,8.1668,8.4339,8.6586,8.5674,8.4275,8.2913,8.2742,8.2742,8.2742,8.2742,8.3058,8.3723,8.393,8.4422,8.5283,8.6176,8.6993,8.778,8.8513,8.8204,8.6757,8.6885,8.6169,8.4567,8.376,0.0,8.332,8.2265,8.1907,8.2015,8.0945,8.0539,8.0419,7.9172,7.8263,7.7374,7.5024,7.402,7.3745,7.2822,7.1968,7.1135,7.0274,6.927,6.8375,6.8276,6.8156,6.7963,6.7803,6.7818,0.0,6.7677,6.7739,6.7712,6.7008,6.6863,6.6753,6.6049,6.6009,6.5969,6.5265,6.5224,6.5156,6.4453,6.4297,6.4297,6.4297,6.375,6.3359,6.3515,6.3398,6.3476,6.3984,6.4531,6.5234,6.6289,6.7031,6.7461,6.7461,6.7461,6.6484,6.418,6.3242,6.2613,6.2341,6.3003,6.2964,6.2052,6.2752,6.275,6.2073,6.2629,6.2883,6.2871,6.1276,6.0256,0.0,0.0,0.0,0.0,0.0,0.0,0.0,0.0,0.0,0.0,0.0,7.2762,7.4091,0.0,8.1083,8.366,8.522,8.6669,8.8515,8.7923,8.6807,8.5401,8.4886,8.4769,8.52,8.4457,8.4496,8.5785,8.5589,8.5958,8.7247,8.781,8.8585,8.9684,8.9911,8.9678,8.9056,8.875,8.7712,8.5994,8.5366,8.445,8.3278,8.2651,8.2153,8.1814,8.1297,8.1057,8.0972,7.9998,7.9013,7.8026,7.6737,7.5545,7.439,7.3531,7.2638,7.1766,7.124,7.0222,6.9144,6.9066,6.8776,6.8391,6.8391,6.8468,6.8511,6.8511,6.858,6.8563,6.8093,6.8069,6.7997,6.7566,6.7609,6.765,6.7219,6.7192,6.7113,6.6683,6.6679,6.6739,6.6739,6.7184,6.6914,6.5195,6.5312,6.5742,6.6211,6.664,6.7226,6.8125,6.8555,6.8789,6.8789,6.8352,6.743,6.6021,6.5118,6.4433,6.3989,6.4376,6.4118,6.3076,6.3464,6.3821,6.41,6.3648,6.3852,6.4551,6.2932,6.1916,0.0,0.0,0.0,0.0,0.0,0.0,0.0,7.0356,7.0787,7.3757,7.5593,7.7559,8.0429,8.2539,8.4922,8.8398,8.8672,8.8945,9.0312,9.0039,8.9453,8.8828,8.7539,8.6953,8.7656,8.6445,8.6289,8.7851,8.75,8.7851,8.9375,8.9568,9.0195,9.1453,9.1093,9.0896,9.0923,9.039,8.9169,8.7299,8.6965,8.5633,8.3458,8.3105,8.2543,8.1848,8.1687,8.1591,8.1533,8.0649,7.9686,7.8754,7.8754,7.7476,7.5552,7.4535,7.3523,7.2675,7.2514,7.1552,7.0437,7.0437,6.9968,6.9391,6.9391,6.9391,6.9391,6.9391,6.9391,6.9391,6.9391,6.9467,6.9568,6.9568,6.969,6.9807,6.9613,6.9603,6.9589,6.9434,6.951,6.9623,6.9623,7.0427,7.0071,6.7031,6.7344,6.8125,6.8867,6.9061,6.9411,7.0114,7.0266,7.03,7.03,6.9395,6.8717,6.8387,6.7553,6.6684,6.58,6.5648,6.5129,6.4319,6.4275,6.4905,6.6134,6.4897,6.4929,6.6096,6.4852,6.3929,6.6751,6.771,6.988,7.199,7.203,7.3358,0.0,7.9491,7.8476,8.2577,8.4218,8.4999,8.539,8.7461,8.9297,8.9765,9.1094,9.2109,9.2265,9.289,9.3281,9.3203,9.0351,8.8476,8.8554,8.8398,8.8672,8.9648,9.0351,9.1133,9.2109,9.2665,9.3057,9.3229,9.3676,9.2842,9.0656,9.1338,9.0418,8.7974,8.7163,8.6255,8.5166,8.3434,8.2576,8.2449,8.1571,8.1152,8.1152,8.1023,8.0477,7.9662,7.9662,7.9007,7.7935,7.6349,7.5166,7.4315,7.3584,7.3238,7.3084,7.3084,7.3007,7.293,7.293,7.293,7.293,7.293,7.293,7.293,7.293,7.2958,7.2947,7.2947,7.305,7.2951,7.2161,7.2142,7.2036,7.1251,7.1153,7.1166,7.1166,7.1891,7.1923,7.0388,7.0859,7.1445,7.1562,7.2087,7.2516,7.2597,7.3127,7.351,7.351,7.2669,7.1867,7.1114,7.0247,6.9313,6.8268,6.7532,6.7026,6.6691,6.6724,6.6782,6.6981,6.7545,6.7513,6.6981,6.7552,6.6199,7.3314,7.3357,7.3789,7.6367,7.75,7.8984,8.2734,8.289,8.3164,8.6445,8.7812,8.8711,8.9726,9.1084,9.2193,9.2702,9.3279,9.3658,9.3658,9.3972,9.4011,9.3546,9.2319,9.1492,9.1493,9.0595,9.0536,9.1754,9.1749,9.2214,9.358,9.3907,9.4021,9.4024,9.4284,9.3647,9.2139,9.2332,9.1395,8.9388,8.8836,8.7654,8.5836,8.499,8.3845,8.241,8.1978,8.1516,8.1093,8.1093,8.09,8.0554,8.0554,8.0015,7.9092,7.79,7.6938,7.6169,7.5822,7.5053,7.4199,7.4199,7.3892,7.3507,7.3507,7.3815,7.4199,7.4199,7.4546,7.4938,7.4938,7.4938,7.4938,7.4938,7.5011,7.4803,7.3948,7.4203,7.4214,7.2894,7.3106,7.352,7.3515,7.4295,7.494,7.4831,7.3876,7.3176,7.3176,7.3402,7.3598,7.3562,7.3847,7.3947,7.3819,7.3495,7.3118,7.2684,7.2319,7.1456,6.9987,6.964,6.8923,6.7859,6.7859,6.8129,6.859,6.8468,6.8468,6.859,6.8468,6.7622,7.6127,7.6705,7.7279,7.9387,8.1885,8.4031,8.4658,8.5478,8.6767,8.9111,9.0087,9.1071,9.2881,9.3747,9.4358,9.4751,9.5047,9.5049,9.4474,9.462,9.4379,9.3391,9.3401,9.3374,9.3106,9.2235,9.2195,9.3436,9.318,9.3492,9.4698,9.4902,9.49,9.4672,9.4823,9.4311,9.3003,9.3037,9.2091,9.0211,8.9976,8.8816,8.6786,8.6324,8.4978,8.3016,8.2747,8.217,8.1439,8.1439,8.1285,8.1093,8.1093,8.0708,8.0092,7.9438,7.8561,7.7638,7.7638,7.6784,7.5745,7.5745,7.5361,7.4899,7.4899,7.5284,7.5745,7.5745,7.6207,7.6669,7.6669,7.6669,7.6669,7.6669,7.6669,7.6515,7.5899,7.6245,7.6322,7.513,7.5452,7.5957,7.599,7.6598,7.7307,7.7928,7.641,7.5296,7.5382,7.5346,7.528,7.5255,7.5246,7.5095,7.4705,7.4688,7.443,7.3875,7.3815,7.3161,7.1668,7.1168,7.0321,6.9122,6.8853,6.9084,6.9706,6.9276,6.9314,6.9706,6.9276,6.8968,7.1872,7.5371,7.9225,8.0139,8.4138,8.7842,8.7859,8.8555,8.9679,9.1443,9.1836,9.2413,9.4381,9.5456,9.5768,9.4946,9.6195,9.6611,9.4652,9.514,9.5108,9.3673,9.3502,9.3106,9.2065,9.2837,9.3674,9.4327,9.513,9.5602,9.568,9.624,9.6183,9.5369,9.5952,9.5055,9.2562,9.3276,9.242,8.9911,8.9902,8.944,8.8564,8.6863,8.5632,8.4786,8.3939,8.3062,8.2247,8.2247,8.1785,8.1093,8.1093,8.1093,8.1054,8.1016,7.9939,7.8446,7.8446,7.8446,7.8369,7.8369,7.8369,7.8369,7.8369,7.8369,7.8369,7.8369,7.8407,7.8407,7.8407,7.8407,7.8407,7.8407,7.8407,7.8407,7.8407,7.8407,7.8407,7.8369,7.8376,7.8384,7.8384,7.843,7.8445,7.8476,7.8399,7.8503,7.8889,7.8782,7.8578,7.8358,7.836,7.8052,7.7268,7.7191,7.6452,7.4776,7.4661,7.4276,7.3469,7.1783,7.0898,7.0821,7.0052,6.9667,6.9706,7.0475,7.0437,6.9706,7.0475,7.0398,7.5833,7.8624,8.1648,8.5387,8.7604,8.9164,9.031,9.0816,9.1361,9.2537,9.1845,9.1408,9.2653,9.3017,9.3172,9.3434,9.4774,9.5779,9.5664,9.5919,9.5477,9.3818,9.3801,9.3496,9.2415,9.3034,9.3624,9.3906,9.4925,9.5694,9.6089,9.6294,9.6296,9.6026,9.6177,9.5326,9.3326,9.4143,9.3557,9.1633,9.1047,9.0325,8.9479,8.8325,8.7363,8.6517,8.5632,8.4786,8.3978,8.3401,8.2678,8.19,8.19,8.1554,8.1093,8.1093,8.0746,8.0208,8.0208,7.9862,7.9361,7.9361,7.8977,7.8484,7.8484,7.8907,7.9361,7.9361,7.9785,8.0208,8.0208,8.0208,8.0208,8.0208,8.0208,8.0054,7.9477,7.9823,7.9862,7.8715,7.8977,7.9361,7.9361,7.9361,7.9554,8.0131,7.9254,7.8542,7.8696,7.8624,7.8584,7.8499,7.8484,7.8407,7.8138,7.7599,7.7061,7.6476,7.5861,7.5168,7.4315,7.3745,7.3168,7.2622,7.2353,7.2199,7.2199,7.2469,7.2469,7.2238,7.2507,7.2469,7.8805,8.1527,8.4167,8.8106,8.9779,9.0743,9.1847,9.2124,9.2279,9.2828,9.156,9.0552,9.1213,9.0962,9.0927,9.1773,9.2951,9.4142,9.5238,9.5365,9.5005,9.3957,9.3707,9.3379,9.2657,9.3327,9.3935,9.4154,9.515,9.5869,9.6259,9.6288,9.6288,9.6288,9.6288,9.5595,9.4181,9.472,9.4296,9.2903,9.2364,9.1787,9.121,9.0094,8.9286,8.8671,8.7517,8.6363,8.5286,8.4709,8.3824,8.2747,8.2747,8.2439,8.1977,8.1977,8.1785,8.1477,8.1208,8.0746,8.0246,8.0246,7.99,7.9446,7.9446,7.9823,8.0246,8.0246,8.0669,8.1093,8.1093,8.1093,8.1093,8.1093,8.1093,8.0939,8.04,8.0708,8.0785,7.9638,7.9862,8.0246,8.0246,8.0246,8.0439,8.1016,8.0131,7.9446,7.9446,7.9446,7.9446,7.9446,7.9446,7.9292,7.8977,7.8477,7.8054,7.7753,7.7215,7.6515,7.5668,7.5322,7.4776,7.393,7.3661,7.3507,7.3507,7.3507,7.3507,7.3507,7.3507,7.3661,8.0587,8.3799,8.6671,8.841,9.0633,9.2441,9.2441,9.2364,9.2326,9.2326,9.0825,8.9575,8.9836,8.9243,8.9049,9.0017,9.0979,9.2166,9.3628,9.3826,9.3907,9.4121,9.346,9.2957,9.2925,9.3913,9.4703,9.5091,9.5931,9.6392,9.6442,9.6403,9.6365,9.6365,9.6326,9.5865,9.5027,9.4989,9.4566,9.3749,9.3749,9.3749,9.3633,9.2018,9.1287,9.1171,8.9453,8.7808,8.6278,8.6222,8.5223,8.3793,8.3755,8.3717,8.3678,8.3601,8.3101,8.2247,8.1477,8.117,8.1093,8.1131,8.1131,8.1093,8.1131,8.1131,8.1093,8.1093,8.1093,8.1093,8.1093,8.1093,8.1093,8.1093,8.1093,8.1093,8.1093,8.1093,8.1093,8.1093,8.1093,8.1093,8.1093,8.1093,8.1093,8.1093,8.1093,8.1093,8.1093,8.1093,8.1093,8.1093,8.1093,8.0785,7.9931,7.9815,7.9438,7.8638,7.8523,7.8176,7.7407,7.6553,7.5745,7.4892,7.4123,7.3776,7.3776,7.3776,7.3738,7.3699,7.3699,7.4084,8.3071,8.5966,8.844,9.0133,9.1056,9.1518,9.1518,9.0556,8.968,8.968,8.6786,8.4249,8.4327,8.4704,8.566,8.7781,9.0471,9.3042,9.5306,9.5634,9.541,9.4831,9.5148,9.514,9.4493,9.5828,9.6767,9.6845,9.7259,9.7686,9.8153,9.7557,9.7211,9.7211,9.6596,9.5865,9.5027,9.4989,9.4874,9.4681,9.4681,9.4335,9.3681,9.2633,9.2172,9.2038,8.9812,8.8864,8.8829,8.7696,8.6919,8.6363,8.5709,8.5093,8.4478,8.3824,8.3447,8.3255,8.3024,8.2131,8.1208,8.1785,8.1593,8.1208,8.1823,8.1593,8.1093,8.1093,8.1093,8.1093,8.1093,8.1093,8.1093,8.1093,8.1093,8.1093,8.1093,8.1093,8.1093,8.1093,8.1093,8.1093,8.1093,8.1093,8.1093,8.1093,8.1093,8.1093,8.1093,8.1093,8.1093,8.1093,8.1093,8.1016,8.0785,8.0162,7.97,7.9477,7.8869,7.8407,7.8215,7.7984,7.7753,7.7561,7.733,7.7246,7.7246,7.7246,7.6907,7.6322,7.6322,7.6092,8.5747,8.8132,9.0017,9.0979,9.121,9.1018,9.0287,8.9363,8.8256,8.6756,8.4255,8.2093,8.1323,8.2208,8.3747,8.594,8.9133,9.2364,9.5326,9.6057,9.6403,9.6643,9.7096,9.7211,9.672,9.7519,9.8211,9.8596,9.8417,9.8451,9.8769,9.8327,9.8057,9.8057,9.725,9.6403,9.5557,9.5557,9.5557,9.5557,9.5261,9.4835,9.4326,9.3147,9.2428,9.1997,9.0266,8.9323,8.8933,8.8373,8.788,8.7484,8.7325,8.6978,8.6517,8.6025,8.5371,8.4709,8.4709,8.3593,8.2285,8.2716,8.2554,8.2285,8.2716,8.2554,8.2208,8.2208,8.2208,8.2208,8.2208,8.2208,8.2208,8.2208,8.2208,8.2208,8.2208,8.2208,8.2208,8.2208,8.19,8.1747,8.2131,8.2208,8.2208,8.2208,8.2208,8.2208,8.2208,8.1554,8.1093,8.1093,8.1093,8.1093,8.1093,8.0669,8.0362,8.0362,7.99,7.9485,7.9092,7.9054,7.8777,7.8122,7.8113,7.7981,7.772,7.772,7.7491,7.7024,7.7024,7.6757,8.8076,8.9935,9.121,9.121,9.1133,9.0633,8.9064,8.8333,8.7179,8.4217,8.2639,8.1362,7.99,8.1016,8.2785,8.4739,8.7778,9.1171,9.4835,9.598,9.7057,9.8596,9.8904,9.8981,9.8981,9.9058,9.9442,10.0221,9.9558,9.9135,9.9135,9.9019,9.8904,9.8788,9.7942,9.7097,9.63,9.6223,9.6107,9.6,9.5363,9.5072,9.501,9.3501,9.2428,9.1725,9.0737,8.9622,8.8457,8.8822,8.8618,8.8127,8.8452,8.8563,8.8563,8.8448,8.7441,8.6136,8.6059,8.5104,8.3934,8.3808,8.3678,8.3601,8.3755,8.3678,8.364,8.3755,8.3678,8.364,8.3755,8.3678,8.3601,8.3601,8.3601,8.3601,8.3601,8.3601,8.3601,8.3601,8.2986,8.2716,8.3486,8.3514,8.3473,8.3473,8.3384,8.3342,8.3342,8.2136,8.1223,8.1167,8.1044,8.0943,8.0855,8.0847,8.0847,8.0847,8.0847,8.0501,7.9764,7.9725,7.9118,7.7836,7.7826,7.7548,7.7029,7.7029,7.6953,7.6878,7.6878,7.6802,8.8565,9.0014,9.121,9.121,9.0663,8.9893,8.891,8.6525,8.4332,8.3717,8.1216,7.9061,7.8792,8.0131,8.2324,8.5401,8.8162,9.1586,9.6403,9.7211,9.7673,9.8673,9.9452,9.9875,9.9875,10.0481,10.0894,10.1096,10.1019,10.0904,10.0904,10.0212,9.9529,9.8827,9.7942,9.7124,9.639,9.5729,9.5096,9.4476,9.4358,9.4292,9.4254,9.3275,9.2717,9.2501,9.1073,0.0,9.1631,8.9933,8.9825,9.0541,8.8673,8.7962,8.7886,8.7205,8.6776,8.6436,8.5766,8.5643,8.5684,8.4921,8.417,8.3717,8.4478,8.417,8.3755,8.4478,8.417,8.3755,8.4478,8.4132,8.3601,8.3601,8.3601,8.3601,8.3601,8.3601,8.3601,8.3601,8.3486,8.3409,8.3563,8.3125,8.276,8.276,8.2287,8.1968,8.1968,8.2024,8.1878,8.1413,8.0716,8.0076,7.9556,7.9513,7.9513,7.9513,7.9513,7.9475,7.9324,7.9286,7.9193,7.8942,7.8942,7.8886,7.8772,7.8772,7.8394,7.7692,7.7692,7.7342,8.8637,8.9847,9.071,9.0633,8.9955,8.8759,8.6535,8.4794,8.2986,8.0754,7.9708,7.9054,7.86,7.99,8.19,8.4401,8.6555,8.9863,9.5403,9.6211,9.7173,9.9788,10.0481,10.0712,10.0712,10.1096,10.1313,10.1285,10.1006,10.0906,10.1308,10.0603,9.9742,9.89,9.8051,9.7222,9.645,9.6058,9.5698,9.5357,9.4541,9.416,9.4107,9.2853,9.2051,9.1625,9.0868,9.0717,9.09,9.0204,9.0332,9.079,8.9573,8.9082,8.9007,8.819,8.7611,8.7146,8.6782,8.6567,8.6431,8.6334,8.5964,8.5555,8.5555,8.5863,8.6256,8.6209,8.6209,8.6371,8.6786,8.6563,8.6256,8.6256,8.6256,8.6256,8.6256,8.5589,8.513,8.5599,8.5023,8.4618,8.5086,8.4887,8.4556,8.4101,8.4148,8.4054,8.3639,8.374,8.3105,8.1084,8.051,7.9983,7.9271,7.9198,7.9198,7.9198,7.9198,7.9198,7.9198,7.9198,7.9046,7.8741,7.8729,7.8563,7.8218,7.8218,7.7981,7.7595,7.7595,7.7358,8.8256,8.9442,9.0245,8.9941,8.9222,8.7728,8.4615,8.349,8.2139,7.8792,7.9015,7.9592,7.8907,8.0054,8.1631,8.3332,8.4863,8.794,9.3873,9.4874,9.6557,10.0779,10.151,10.1586,10.1618,10.1608,10.1609,10.1684,10.1088,10.0721,10.0804,10.0397,9.9809,9.8934,9.8118,9.7308,9.653,9.6365,9.6216,9.5998,9.4643,9.3941,9.3924,9.2476,9.1473,9.0849,9.0849,9.0589,9.0192,9.0424,9.0621,9.073,9.0287,9.0085,9.0024,8.9212,8.8485,8.782,8.7496,8.7066,8.6715,8.7075,8.718,8.7167,8.6765,8.7487,8.8386,8.803,8.8179,8.8522,8.8676,8.8479,8.8251,8.8251,8.8251,8.8251,8.8251,8.7256,8.6584,8.723,8.641,8.5801,8.6467,8.6465,8.6185,8.5545,8.5864,8.5958,8.532,8.518,8.4079,8.1354,8.0856,8.033,7.9392,7.9342,7.9229,7.9091,7.9079,7.8979,7.8791,7.8791,7.8576,7.8114,7.81,7.784,7.7289,7.7289,7.7289,7.7289,7.7289,7.7289,8.7048,8.8659,9.0127,8.9375,8.8445,8.7214,8.537,8.3078,8.1208,8.0823,8.0246,7.9777,7.97,8.0477,8.1631,8.3332,8.4401,8.7055,9.2979,9.4518,9.6586,10.0779,10.202,10.2508,10.2519,10.2496,10.251,10.2486,10.2397,10.1496,9.9325,9.9854,9.9849,9.8994,9.8154,9.7321,9.6584,9.588,9.5166,9.4485,9.3621,9.3217,9.318,9.2207,9.1767,9.1693,9.1693,9.2045,0.0,9.1181,9.1,9.1471,9.0029,8.9462,8.9388,8.8596,8.8228,8.7933,8.6478,8.6339,8.6668,8.5995,8.6175,8.6886,8.8096,8.8097,8.7957,8.9317,8.873,8.7892,8.8693,8.7828,8.6769,8.6769,8.6769,8.6769,8.6769,8.6681,8.6594,8.6682,8.6581,8.6505,8.658,8.6101,8.5684,8.5572,8.5154,8.4768,8.4694,8.4657,8.4289,8.3243,8.2305,8.1226,7.9876,7.9741,7.9446,7.871,7.8673,7.829,7.7502,7.7465,7.7435,7.7396,7.7396,7.7365,7.7289,7.7289,7.7289,7.7289,7.7289,7.7289,8.5962,8.7963,8.9798,8.9915,8.8134,8.6,8.4786,8.2125,7.9814,7.9272,7.96,7.9993,7.9993,7.9887,8.0289,8.1822,8.1287,8.2535,8.7839,8.8555,9.0867,9.7003,9.8488,9.9759,10.1715,10.2318,10.2208,10.1294,10.1687,10.1103,9.9155,9.9839,10.0082,9.9798,9.8521,9.7681,9.7396,9.6565,9.6032,9.5731,9.4923,9.4538,9.452,9.3198,9.2574,9.2537,9.2024,9.2281,0.0,9.1792,9.1782,9.2349,9.0743,9.0097,8.995,8.8683,8.8206,8.8023,8.6921,8.6702,8.6934,8.7068,8.7002,8.6915,8.7329,8.7957,8.8537,8.8631,8.8553,8.8591,8.8944,8.8558,8.8115,8.8115,8.8115,8.8115,8.8115,8.7783,8.7487,8.7487,8.7146,8.6982,8.7464,8.7359,8.6984,8.6504,8.6628,8.6407,8.5453,8.5747,8.5747,8.4939,8.3176,8.1654,8.0603,8.0073,7.9449,7.8662,7.8589,7.8222,7.7362,7.7289,7.7289,7.7289,7.7289,7.7289,7.7289,7.7289,7.7289,7.7289,7.7289,7.7289,8.5086,8.7399,8.9485,8.9745,8.7638,8.5208,8.4068,8.1406,7.901,7.8421,7.9107,7.9847,7.9847,7.9353,7.9331,8.0378,7.9281,7.9736,8.3954,8.4408,8.6605,9.2878,9.4527,9.6427,9.9697,10.159,10.231,10.1404,10.1703,10.1379,10.0179,10.05,10.0405,9.996,9.8611,9.7916,9.7916,9.7346,9.6942,9.6685,9.5859,9.5382,9.5107,9.3749,9.2978,9.2684,9.206,9.2281,0.0,9.2124,9.2262,9.287,9.148,9.0959,9.0812,8.9417,8.8904,8.8793,8.7968,8.7711,8.7779,8.8306,8.7981,8.7364,8.7399,8.8068,8.8767,8.8577,8.8686,8.8746,8.8523,8.8466,8.8466,8.8466,8.8466,8.8466,8.8466,8.81,8.7773,8.7773,8.7345,8.7234,8.8059,8.8206,8.8096,8.7748,8.7986,8.7802,8.6664,8.6995,8.7142,8.6554,8.4792,8.3214,8.215,8.1562,8.0755,7.9727,7.9653,7.9176,7.806,7.8023,7.8023,7.8023,7.7803,7.7693,7.7693,7.7436,7.7289,7.7289,7.7289,7.7289,8.4389,8.6941,8.9216,8.8444,8.684,8.5075,8.3467,8.1066,7.9198,7.9198,7.921,7.921,7.921,7.921,7.9221,7.9221,7.921,8.0089,8.264,8.376,8.5572,8.8961,9.0852,9.3162,9.6409,10.0415,10.3009,10.381,10.3103,10.2693,10.2693,10.19,10.078,9.9145,9.83,9.7916,9.7916,9.7897,9.7493,9.6685,9.5859,9.507,9.4263,9.3455,9.2648,9.1803,9.1803,9.2281,0.0,9.2124,9.2262,9.2907,9.2106,9.1803,9.1693,9.0886,9.0592,9.0482,8.9657,8.9363,8.9363,8.9363,8.883,8.8353,8.9124,8.8762,8.8421,8.9875,8.9231,8.7923,8.7214,8.7012,8.7012,8.7012,8.7012,8.7012,8.7012,8.7012,8.6995,8.6995,8.7031,8.7234,8.8059,8.8206,8.8463,8.9253,8.872,8.8206,8.8169,8.8169,8.8169,8.8169,8.7435,8.628,8.4719,8.4535,8.3875,8.226,8.215,8.1415,7.9853,7.9779,7.9779,7.9779,7.8993,7.8589,7.8589,7.7729,7.7289,7.7289,7.7289,7.7289,8.1782,8.3675,8.5363,8.5673,8.4073,8.2276,8.1796,7.9705,7.7894,7.7894,7.8258,7.8563,7.8563,7.8563,7.9091,8.06,8.0141,8.0231,8.2013,8.355,8.5908,8.9744,9.5568,10.0075,10.2192,10.3095,10.3611,10.3906,10.3205,10.2689,10.2689,10.138,10.0686,10.0686,9.9952,9.9292,9.8741,9.8154,9.7493,9.6685,9.6428,9.6208,9.5878,9.452,9.3749,9.3418,9.2281,9.2281,9.2923,9.2124,9.2262,9.2907,9.2106,9.1803,9.1693,9.0922,9.0592,9.0464,8.9693,8.94,8.94,8.94,8.9216,8.9069,8.9326,8.8434,8.7431,8.7894,8.8113,8.8126,8.7872,8.8243,8.8482,8.7949,8.7839,8.7839,8.7839,8.7839,8.7986,8.8519,8.8629,8.8886,8.9711,8.9858,8.9931,9.017,9.0005,8.9638,8.9069,8.9033,8.9033,8.9033,8.8776,8.7968,8.639,8.5233,8.4168,8.3087,8.2517,8.1709,8.0645,8.011,7.9816,7.9816,7.9559,7.9412,7.9412,7.914,7.8736,7.8185,7.7582,7.7289,8.0388,8.217,8.3528,8.4005,8.2553,8.0938,8.0608,7.8867,7.7289,7.7289,7.7607,7.7917,7.7917,7.7917,7.8369,7.9738,7.9608,7.9878,8.1348,8.3044,8.5747,9.0078,9.6685,10.1494,10.3089,10.3696,10.399,10.432,10.3293,10.2705,10.2705,10.1494,10.098,10.1514,10.0393,9.9622,9.9108,9.83,9.7493,9.6685,9.6685,9.6392,9.5768,9.507,9.4245,9.3308,9.2905,9.2835,0.0,9.2493,9.2557,9.2907,9.2106,9.1803,9.173,9.1253,9.1069,9.0996,9.0464,9.0317,9.0317,9.0317,9.0317,9.017,8.9583,8.8702,8.7822,8.7528,8.8023,8.8573,8.828,8.8776,8.9253,8.8776,8.8426,8.8206,8.8206,8.8206,8.8353,8.8849,8.9179,8.9657,9.0482,9.0592,9.0702,9.1033,9.0812,9.0427,8.9913,8.984,8.984,8.984,8.984,8.9436,8.8445,8.6885,8.549,8.4389,8.3838,8.3214,8.2406,8.1893,8.1452,8.1158,8.0881,8.055,8.0241,7.9963,7.9559,7.9029,7.8516,7.8259,0.0,8.184,8.2977,8.2977,8.184,8.0534,7.9779,7.8442,0.0,7.7289,7.7289,7.7326,7.7399,7.7362,7.7362,7.7546,7.828,7.9433,8.1048,8.2941,8.5913,9.0647,9.5364,9.8814,10.0319,10.2595,10.4284,10.4997,10.3696,10.2815,10.2815,10.1991,10.1514,10.1404,9.9916,9.9108,9.9108,9.8374,9.753,9.6685,9.6649,9.5841,9.441,9.5052,9.4061,0.0,9.3529,9.3705,9.2917,9.3047,9.3022,9.2863,9.2089,9.1803,9.1803,9.1803,9.1803,9.1803,9.1803,9.1803,9.1803,9.1803,9.1767,9.1436,8.9987,8.9546,8.9326,8.85,8.8849,8.9326,8.8573,8.8959,8.9546,8.951,8.8886,8.8353,8.8353,8.8353,8.839,8.8463,8.905,8.9803,9.0537,9.0702,9.0959,9.1693,9.1179,9.0702,9.0702,9.0702,9.0702,9.0702,9.0702,9.0665,9.0592,8.9197,8.7655,8.6151,8.593,8.5527,8.4792,8.4646,8.4242,8.3491,8.27,8.1893,8.1085,8.0277,7.989,7.989,7.9816,7.9816,7.7803,0.0,7.872,7.872,7.8463,7.8133,0.0,7.7582,7.7289,7.7289,7.7289,7.7509,7.8185,7.7766,7.7913,7.9821,8.0828,8.1929,8.3544,8.8353,9.3088,9.6685,9.9769,10.1714,10.2118,10.3806,10.4887,10.5107,10.421,10.3586,10.3586,10.2322,10.12,10.0613,9.9622,9.9108,9.9108,9.8924,9.8117,9.6685,9.6098,9.5565,9.518,9.4153,9.3345,9.2831,9.3198,9.2886,9.2127,9.2813,9.2702,9.2053,9.1857,9.1803,9.1803,9.1803,9.1803,9.1803,9.1803,9.1803,9.1803,9.1803,9.1363,9.0922,9.1179,9.0812,9.0134,8.9326,8.9693,9.028,9.0078,9.0629,9.1069,9.0482,9.017,9.0041,9.0041,9.0041,9.0225,9.0812,9.1106,9.1289,9.1473,9.151,9.1583,9.1767,9.1657,9.151,9.151,9.151,9.151,9.151,9.151,9.1253,9.0665,8.9693,8.8959,8.8592,8.7381,8.6628,8.6427,8.527,8.4499,8.4315,8.3528,8.2737,8.1929,8.1122,8.0718,8.0718,8.011,7.9816,7.7179,7.7289,7.7289,7.7289,7.7289,7.7289,7.7289,7.7289,7.7289,7.7289,7.7289,7.7436,7.7913,7.8259,7.8883,8.0241,8.2039,8.4242,8.6958,9.1363,9.5474,9.8741,10.0907,10.2412,10.3182,10.4027,10.4483,10.4483,10.3806,10.3293,10.3293,10.2212,10.109,10.0319,9.9879,9.9292,9.8557,9.819,9.7566,9.6685,9.5859,9.5308,9.4923,9.4042,9.3235,9.2537,9.3308,9.2941,9.1877,9.2758,9.2574,9.1803,9.1803,9.1803,9.1803,9.1803,9.1803,9.1803,9.1803,9.1803,9.1803,9.1803,9.151,9.1216,9.1657,9.151,9.0996,9.017,9.0537,9.1069,9.0702,9.1216,9.1693,9.1253,9.0886,9.0592,9.0592,9.0592,9.0739,9.1179,9.1546,9.1803,9.1803,9.1803,9.1803,9.1803,9.1803,9.1803,9.1803,9.1803,9.1803,9.1803,9.1803,9.162,9.1179,9.0739,9.017,8.9436,8.8225,8.7545,8.7545,8.6371,8.5527,8.5159,8.4352,8.3728,8.3287,8.2847,8.248,8.2096,8.2039,8.1782,7.7585,7.7777,7.7864,7.7424,7.7215,7.7142,7.7289,7.7215,7.7142,7.7289,7.7289,7.7436,7.7803,7.8919,7.9963,8.044,8.3214,8.6738,9.0758,9.3272,9.5768,9.8741,10.0393,10.1918,10.3182,10.3476,10.3513,10.3513,10.2815,10.2412,10.2522,10.1604,10.0796,10.0099,9.9989,9.9218,9.7733,9.7052,9.6649,9.6502,9.5565,9.4777,9.4116,9.3969,9.3125,9.1877,9.3418,0.0,9.1877,9.2758,9.2574,9.1803,9.1803,9.1803,9.1803,9.1803,9.1803,9.1803,9.1803,9.1803,9.1803,9.1803,9.1803,9.1803,9.1803,9.1803,9.1657,9.0996,9.1253,9.1657,9.0959,9.1289,9.1803,9.1803,9.1289,9.0776,9.0776,9.0776,9.0776,9.0776,9.1326,9.1803,9.1803,9.1803,9.1803,9.1803,9.1803,9.1803,9.1803,9.1803,9.1803,9.1803,9.1803,9.1803,9.1803,9.1803,9.1216,8.984,8.8904,8.828,8.8023,8.7362,8.6628,8.582,8.5123,8.4719,8.4609,8.4609,8.4242,8.3601,8.4278,8.4242,7.8754,7.9941,8.044,7.7909,7.6775,7.646,7.7142,7.6775,7.6497,7.7179,7.7289,7.7949,8.0041,8.0094,8.0697,8.3434,8.6537,9.0097,9.4171,9.5658,9.7016,9.8868,9.9916,10.0613,10.0796,10.1514,10.1918,10.1918,10.109,10.098,10.1604,10.0283,9.9402,9.9292,9.8631,9.7823,9.6906,9.6759,9.6355,9.5694,9.4189,9.3418,9.3272,9.2501,9.2024,9.184,0.0,9.2721,9.1877,9.2758,9.2574,9.1803,9.1803,9.1803,9.1803,9.1803,9.1803,9.1803,9.1803,9.1803,9.1803,9.1803,9.1803,9.1803,9.1803,9.1803,9.1767,9.1657,9.1693,9.1767,9.1657,9.1693,9.1803,9.1803,9.1693,9.162,9.162,9.162,9.162,9.162,9.173,9.1803,9.1803,9.1803,9.1803,9.1803,9.1803,9.1803,9.1803,9.1803,9.1803,9.1803,9.1803,9.1803,9.1803,9.1803,9.1693,9.1436,9.0024,8.8592,8.7234,8.7051,8.6628,8.582,8.5673,8.527,8.4609,8.4609,8.4535,8.4425,8.4535,8.4535,7.9128,7.9738,8.0165,7.9348,7.9216,7.9134,7.8609,7.7938,7.7671,7.8479,7.8332,7.8772,8.1195,8.2406,8.4552,8.9087,9.1069,9.3015,9.5768,9.5731,9.6171,9.819,9.8778,9.9328,10.0209,10.098,10.1274,10.0927,10.0503,10.0283,10.0209,9.9512,9.8924,9.8484,9.808,9.7493,9.6722,9.5841,9.5658,9.6135,9.4079,9.3345,9.3712,9.2391,9.1803,9.1803,0.0,9.217,9.184,9.2244,9.217,9.1803,9.1803,9.1803,9.1803,9.1803,9.1803,9.1803,9.1803,9.1803,9.1803,9.1803,9.1803,9.1803,9.1803,9.1803,9.1803,9.1803,9.1803,9.1803,9.1803,9.1803,9.1803,9.1803,9.1803,9.1803,9.1803,9.1803,9.1803,9.1803,9.1803,9.1803,9.1803,9.1803,9.1803,9.1803,9.1803,9.1803,9.1803,9.1803,9.1803,9.1803,9.1803,9.1803,9.1803,9.1803,9.162,9.1179,9.0482,8.951,8.8335,8.7876,8.7472,8.7105,8.6664,8.6261,8.5894,8.5894,8.5673,8.527,8.571,8.5673,7.9369,7.9577,7.9884,8.0236,8.0607,8.0768,8.0491,7.9622,7.925,8.0661,8.0424,8.0645,8.2663,8.5159,8.8463,9.3235,9.4483,9.5474,9.7273,9.6318,9.6171,9.8227,9.8447,9.8851,9.9916,10.0576,10.0576,9.9805,9.9548,9.9255,9.8851,9.8631,9.8337,9.7897,9.7713,9.7236,9.6428,9.4997,9.4923,9.6098,9.3859,9.3125,9.3675,9.2391,9.1803,9.1803,9.1803,9.1803,9.1803,9.1803,9.1803,9.1803,9.1803,9.1803,9.1803,9.1803,9.1803,9.1803,9.1803,9.1803,9.1803,9.1803,9.1803,9.1803,9.1803,9.1803,9.1803,9.1803,9.1803,9.1803,9.1803,9.1803,9.1803,9.1803,9.1803,9.1803,9.1803,9.1803,9.1803,9.1803,9.1803,9.1803,9.1803,9.1803,9.1803,9.1803,9.1803,9.1803,9.1803,9.1803,9.1803,9.1803,9.1803,9.1803,9.1803,9.1803,9.1546,9.0922,9.0537,9.0024,8.9436,8.883,8.839,8.8206,8.7582,8.7215,8.6978,8.6978,8.6701,8.6077,8.6701,8.6664,7.9888,8.077,8.1146,7.968,7.8354,7.8443,8.226,8.1354,8.0587,8.3618,8.4205,8.4462,8.538,8.8133,9.0922,9.2868,9.507,9.7346,9.9695,9.9292,9.9108,9.9989,10.0099,9.9879,9.9255,9.9255,9.8924,9.8117,9.7383,9.7273,9.7953,9.7273,9.7199,9.7879,9.7163,9.6392,9.5565,9.474,9.4336,9.4446,9.2721,9.1913,9.1987,9.184,9.1803,9.1803,9.1803,9.1803,9.1803,9.1803,9.1803,9.1803,9.1803,9.1803,9.1803,9.1803,9.1803,9.1803,9.1803,9.1803,9.1803,9.1803,9.1803,9.1803,9.1803,9.1803,9.1803,9.1803,9.1803,9.1803,9.1803,9.1803,9.1803,9.1803,9.1803,9.1803,9.1803,9.1803,9.1803,9.1803,9.1803,9.1803,9.1803,9.1803,9.1803,9.1803,9.1803,9.1803,9.1803,9.1803,9.1803,9.1803,9.1803,9.1803,9.1803,9.1803,9.1767,9.173,9.0317,8.9473,8.94,8.9326,8.8959,8.8206,8.8133,8.7766,8.6978,8.6978,8.6978,8.6921,8.6978,8.6978,7.948,8.0201,8.0751,8.024,7.9714,8.0037,8.2616,8.2613,8.281,8.5527,8.6114,8.65,8.7802,9.0702,9.3272,9.4428,9.6612,9.8704,10.0099,9.9622,9.9218,9.9512,9.9108,9.8668,9.8374,9.8814,9.8778,9.797,9.7603,9.7346,9.7163,9.6392,9.6318,9.7126,9.6355,9.5804,9.5492,9.4703,9.4042,9.3529,9.2354,9.206,9.2574,9.206,9.1803,9.1803,9.1803,9.1803,9.1803,9.1803,9.1803,9.1803,9.1803,9.1803,9.1803,9.1803,9.1803,9.1803,9.1803,9.1803,9.1803,9.1803,9.1803,9.1803,9.1803,9.1803,9.1803,9.1803,9.1803,9.1803,9.1803,9.1803,9.1803,9.1803,9.1803,9.1803,9.1803,9.1803,9.1803,9.1803,9.1803,9.1803,9.1803,9.1803,9.1803,9.1803,9.1803,9.1803,9.1803,9.1803,9.1803,9.1803,9.1803,9.1803,9.1803,9.1803,9.1803,9.1803,9.1216,9.0886,9.0886,9.0391,8.9987,8.9711,8.9179,8.8812,8.8482,8.8482,8.8225,8.7766,8.7766,8.7472,7.8939,7.9141,7.9519,7.992,8.0236,8.1051,8.3409,8.4267,8.5363,8.8299,8.8482,8.8556,8.9913,9.1987,9.3859,9.4942,9.7126,9.8998,9.9805,9.9475,9.9035,9.8741,9.8447,9.808,9.7566,9.8264,9.8374,9.7566,9.753,9.7163,9.6355,9.5804,9.5621,9.5914,9.542,9.4997,9.4721,9.4189,9.3492,9.2684,9.206,9.2097,9.2684,9.206,9.1803,9.1803,9.1803,9.1803,9.1803,9.1803,9.1803,9.1803,9.1803,9.1803,9.1803,9.1803,9.1803,9.1803,9.1803,9.1803,9.1803,9.1803,9.1803,9.1803,9.1803,9.1803,9.1803,9.1803,9.1803,9.1803,9.1803,9.1803,9.1803,9.1803,9.1803,9.1803,9.1803,9.1803,9.1803,9.1803,9.1803,9.1803,9.1803,9.1803,9.1803,9.1803,9.1803,9.1803,9.1803,9.1803,9.1803,9.1803,9.1803,9.1803,9.1803,9.1803,9.1803,9.1803,9.1803,9.1803,9.1803,9.1253,9.0849,9.0592,9.006,8.9657,8.94,8.94,8.9106,8.8573,8.8573,8.8262,7.8295,7.7826,7.7509,7.8405,7.9229,8.0881,8.4919,8.6444,8.8152,9.2281,9.1803,9.0886,9.1657,9.1803,9.2354,9.4006,9.6318,9.8154,9.8998,9.9088,9.8778,9.797,9.8594,9.8447,9.6869,9.7419,9.753,9.6759,9.6685,9.6355,9.5528,9.5455,9.5144,9.4299,9.4299,9.3896,9.3125,9.3088,9.2648,9.1803,9.1803,9.1803,9.1803,9.1803,9.1803,9.1803,9.1803,9.1803,9.1803,9.1803,9.1803,9.1803,9.1803,9.1803,9.1803,9.1803,9.1803,9.1803,9.1803,9.1803,9.1803,9.1803,9.1803,9.1803,9.1803,9.1803,9.1803,9.1803,9.1803,9.1803,9.1803,9.1803,9.1803,9.1803,9.1803,9.1803,9.1803,9.1803,9.1803,9.1803,9.1803,9.1803,9.1803,9.1803,9.1803,9.1803,9.1803,9.1803,9.1803,9.1803,9.1803,9.1803,9.1803,9.1803,9.1803,9.1803,9.1803,9.1803,9.1803,9.1803,9.1803,9.1803,9.1436,9.0629,9.0629,9.0207,8.9436,8.9436,8.9436,8.94,8.94,8.94,7.7762,7.7913,7.8552,7.9947,8.1342,8.3398,8.7418,8.8096,8.9014,9.3088,9.3529,9.3088,9.2758,9.3161,9.3712,9.4226,9.5841,9.7346,9.8154,9.8264,9.8154,9.7953,9.7603,9.7236,9.6759,9.6906,9.6722,9.5914,9.5859,9.5511,9.4703,9.4116,9.3969,9.4299,9.3749,9.3345,9.3088,9.3088,9.2648,9.1803,9.1803,9.1803,9.1803,9.1803,9.1803,9.1803,9.1803,9.1803,9.1803,9.1803,9.1803,9.1803,9.1803,9.1803,9.1803,9.1803,9.1803,9.1803,9.1803,9.1803,9.1803,9.1803,9.1803,9.1803,9.1803,9.1803,9.1803,9.1803,9.1803,9.1803,9.1803,9.1803,9.1803,9.1803,9.1803,9.1803,9.1803,9.1803,9.1803,9.1803,9.1803,9.1803,9.1803,9.1803,9.1803,9.1803,9.1803,9.1803,9.1803,9.1803,9.1803,9.1803,9.1803,9.1803,9.1803,9.1803,9.1803,9.1803,9.1803,9.1803,9.1803,9.1803,9.1693,9.1436,9.1436,9.1326,9.1106,9.1106,9.0812,9.0244,9.0244,8.995,7.7876,7.8442,7.9543,8.1489,8.3177,8.5416,8.9491,9.0776,9.1877,9.4666,9.474,9.4263,9.4079,9.4189,9.4373,9.4722,9.5841,9.6869,9.7346,9.7419,9.7419,9.7419,9.7016,9.6685,9.6685,9.6685,9.6392,9.5565,9.5492,9.5034,9.3859,9.3345,9.3161,9.3308,9.2831,9.2574,9.2574,9.2574,9.2317,9.1803,9.1803,9.1803,9.1803,9.1803,9.1803,9.1803,9.1803,9.1803,9.1803,9.1803,9.1803,9.1803,9.1803,9.1803,9.1803,9.1803,9.1803,9.1803,9.1803,9.1803,9.1803,9.1803,9.1803,9.1803,9.1803,9.1803,9.1803,9.1803,9.1803,9.1803,9.1803,9.1803,9.1803,9.1803,9.1803,9.1803,9.1803,9.1803,9.1803,9.1803,9.1803,9.1803,9.1803,9.1803,9.1803,9.1803,9.1803,9.1803,9.1803,9.1803,9.1803,9.1803,9.1803,9.1803,9.1803,9.1803,9.1803,9.1803,9.1803,9.1803,9.1803,9.1803,9.1803,9.1803,9.1803,9.1803,9.1803,9.1803,9.1546,9.1069,9.1069,9.0812,7.8552,7.936,8.0534,8.3177,8.5233,8.7563,9.1381,9.3969,9.5785,9.6465,9.5474,9.474,9.5455,9.4997,9.4759,9.5493,9.6208,9.6685,9.6685,9.6685,9.6685,9.6685,9.6685,9.6685,9.6685,9.6685,9.6355,9.5455,9.5382,9.4703,9.3088,9.2978,9.2611,9.184,9.1803,9.1803,9.1803,9.1803,9.1803,9.1803,9.1803,9.1803,9.1803,9.1803,9.1803,9.1803,9.1803,9.1803,9.1803,9.1803,9.1803,9.1803,9.1803,9.1803,9.1803,9.1803,9.1803,9.1803,9.1803,9.1803,9.1803,9.1803,9.1803,9.1803,9.1803,9.1803,9.1803,9.1803,9.1803,9.1803,9.1803,9.1803,9.1803,9.1803,9.1803,9.1803,9.1803,9.1803,9.1803,9.1803,9.1803,9.1803,9.1803,9.1803,9.1803,9.1803,9.1803,9.1803,9.1803,9.1803,9.1803,9.1803,9.1803,9.1803,9.1803,9.1803,9.1803,9.1803,9.1803,9.1803,9.1803,9.1803,9.1803,9.1803,9.1803,9.1803,9.1803,9.1803,9.1803,9.1803,9.1803,9.1803,8.0094,8.0608,8.1782,8.6077,8.9821,9.2868,9.4373,9.5621,9.6318,9.5859,9.5988,9.6245,9.6428,9.6318,9.6245,9.6392,9.6575,9.6685,9.6685,9.6685,9.6685,9.6685,9.6685,9.6685,9.6685,9.6685,9.6098,9.4666,9.4556,9.3822,9.217,9.206,9.1987,9.1803,9.1803,9.1803,9.1803,9.1803,9.1803,9.1803,9.1803,9.1803,9.1803,9.1803,9.1803,9.1803,9.1803,9.1803,9.1803,9.1803,9.1803,9.1803,9.1803,9.1803,9.1803,9.1803,9.1803,9.1803,9.1803,9.1803,9.1803,9.1803,9.1803,9.1803,9.1803,9.1803,9.1803,9.1803,9.1803,9.1803,9.1803,9.1803,9.1803,9.1803,9.1803,9.1803,9.1803,9.1803,9.1803,9.1803,9.1803,9.1803,9.1803,9.1803,9.1803,9.1803,9.1803,9.1803,9.1803,9.1803,9.1803,9.1803,9.1803,9.1803,9.1803,9.1803,9.1803,9.1803,9.1803,9.1803,9.1803,9.1803,9.1803,9.1803,9.1803,9.1803,9.1803,9.1803,9.1803,9.1803,9.1803,9.1803,8.0461,8.1562,8.3398,8.861,9.2427,9.4997,9.5382,9.6135,9.6465,9.5675,9.6135,9.6685,9.6685,9.6685,9.6685,9.6685,9.6685,9.6685,9.6685,9.6685,9.6575,9.6171,9.6135,9.5988,9.5584,9.5547,9.5034,9.3822,9.3712,9.3161,9.1877,9.1803,9.1803,9.1803,9.1803,9.1803,9.1803,9.1803,9.1803,9.1803,9.1803,9.1803,9.1803,9.1803,9.1803,9.1803,9.1803,9.1803,9.1803,9.1803,9.1803,9.1803,9.1803,9.1803,9.1803,9.1803,9.1803,9.1803,9.1803,9.1803,9.1803,9.1803,9.1803,9.1803,9.1803,9.1803,9.1803,9.1803,9.1803,9.1803,9.1803,9.1803,9.1803,9.1803,9.1803,9.1803,9.1803,9.1803,9.1803,9.1803,9.1803,9.1803,9.1803,9.1803,9.1803,9.1803,9.1803,9.1803,9.1803,9.1803,9.1803,9.1803,9.1803,9.1803,9.1803,9.1803,9.1987,9.2391,9.2024,9.1987,9.2391,9.2024,9.1803,9.1803,9.1803,9.1803,9.1803,9.1803,9.1803,9.1803,9.1803,9.1803,8.0351,8.2684,8.562,9.0592,9.3565,9.529,9.529,9.5804,9.6098,9.5437,9.5951,9.6502,9.6502,9.6502,9.6539,9.6685,9.6685,9.6649,9.6502,9.6502,9.6208,9.5382,9.529,9.5034,9.4373,9.4299,9.3969,9.3161,9.3088,9.2721,9.184,9.1803,9.1803,9.1803,9.1803,9.1803,9.1803,9.1803,9.1803,9.1803,9.1803,9.1803,9.1803,9.1803,9.1803,9.1803,9.1803,9.1803,9.1803,9.1803,9.1803,9.1803,9.1803,9.1803,9.1803,9.1803,9.1803,9.1803,9.1803,9.1803,9.1803,9.1803,9.1803,9.1803,9.1803,9.1803,9.1803,9.1803,9.1803,9.1803,9.1803,9.1803,9.1803,9.1803,9.1803,9.1803,9.1803,9.1803,9.1803,9.1803,9.1803,9.1803,9.1803,9.1803,9.184,9.1987,9.1913,9.184,9.2024,9.2024,9.2024,9.2024,9.2134,9.2244,9.2244,9.2244,9.2537,9.3272,9.2501,9.2354,9.3088,9.2244,9.1803,9.1803,9.1803,9.1803,9.1803,9.1803,9.1803,9.1803,9.1803,9.1803,8.0351,8.4702,8.9143,9.1326,9.3161,9.4446,9.4446,9.452,9.4593,9.4483,9.5126,9.5677,9.5658,9.5639,9.5914,9.6575,9.6685,9.6465,9.5749,9.5639,9.5364,9.4556,9.4446,9.441,9.4299,9.4299,9.3969,9.3161,9.3088,9.2721,9.184,9.1803,9.1803,9.1803,9.1803,9.1803,9.1803,9.1803,9.1803,9.1803,9.1803,9.1803,9.1803,9.1803,9.1803,9.1803,9.1803,9.1803,9.1803,9.1803,9.1803,9.1803,9.1803,9.1803,9.1803,9.1803,9.1803,9.1803,9.1803,9.1803,9.1803,9.1803,9.1803,9.1803,9.1803,9.1803,9.1803,9.1803,9.1803,9.1803,9.1803,9.1803,9.1803,9.1803,9.1803,9.1803,9.1803,9.1803,9.1803,9.1803,9.1803,9.1803,9.1803,9.1803,9.206,9.2831,9.2281,9.206,9.2831,9.2941,9.2941,9.2941,9.3529,9.3969,9.3969,9.3969,9.4006,9.4116,9.3382,9.2978,9.3088,9.2244,9.1803,9.1803,9.1803,9.1803,9.1803,9.1803,9.1803,9.1803,9.1803,9.1803,8.2003,8.582,8.9454,9.2464,9.3804,9.441,9.4887,9.463,9.4153,9.3712,9.3896,9.4299,9.474,9.5217,9.5455,9.5364,9.5731,9.5768,9.4923,9.4813,9.452,9.3712,9.3639,9.3418,9.2941,9.2905,9.2758,9.2391,9.2354,9.2207,9.1803,9.1803,9.1803,9.1803,9.1803,9.1803,9.1803,9.1803,9.1803,9.1803,9.1803,9.1803,9.1803,9.1803,9.1803,9.1803,9.1803,9.1803,9.1803,9.1803,9.1803,9.1803,9.1803,9.151,9.1179,9.162,9.151,9.1179,9.1657,9.1803,9.1803,9.1803,9.1803,9.1803,9.1803,9.1803,9.1803,9.1803,9.1803,9.1803,9.1803,9.1803,9.1803,9.1803,9.1803,9.1803,9.1803,9.1803,9.1803,9.1803,9.1803,9.1803,9.1803,9.1803,9.2097,9.2978,9.2354,9.2281,9.3602,9.3382,9.3272,9.3712,9.4079,9.4299,9.4299,9.4299,9.4299,9.4299,9.3969,9.3565,9.3125,9.2721,9.2537,9.2537,9.206,9.1803,9.1803,9.1803,9.1803,9.1803,9.1803,9.1803,8.1966,8.4829,8.7582,9.1473,9.2905,9.3565,9.4373,9.4116,9.3492,9.2905,9.2758,9.2941,9.3529,9.4336,9.4777,9.4373,9.4813,9.4923,9.4116,9.4006,9.3675,9.2868,9.2758,9.2501,9.184,9.1803,9.1803,9.1803,9.1803,9.1803,9.1803,9.1803,9.1693,9.151,9.151,9.14,9.1179,9.14,9.1583,9.1803,9.1583,9.1583,9.1803,9.1583,9.162,9.1803,9.1803,9.1803,9.1767,9.1583,9.162,9.1767,9.1363,9.1069,9.0959,9.1363,9.1253,9.0996,9.1583,9.1803,9.1803,9.1803,9.1803,9.1803,9.1803,9.1803,9.1803,9.1803,9.1803,9.1803,9.1803,9.1803,9.1803,9.1803,9.1803,9.1803,9.1803,9.1803,9.1803,9.1803,9.1803,9.1803,9.1803,9.1803,9.2097,9.2978,9.2537,9.2648,9.4116,9.3969,9.3932,9.4556,9.4777,9.4923,9.4923,9.4923,9.4923,9.4923,9.4703,9.4336,9.3749,9.3529,9.3418,9.3418,9.2758,9.2317,9.2134,9.2134,9.2024,9.1803,9.1803,9.1803,7.8405,8.0681,8.3287,8.6554,8.9106,9.0996,9.1803,9.195,9.1913,9.1877,9.1877,9.1877,9.1913,9.2648,9.3455,9.4189,9.4336,9.4079,9.3272,9.3161,9.2831,9.195,9.1877,9.184,9.1803,9.1803,9.1803,9.1803,9.1803,9.1803,9.1803,9.1803,9.1436,9.0702,9.0665,9.028,8.9546,9.028,9.1069,9.1803,9.1033,9.1069,9.1767,9.1033,9.1069,9.1803,9.1803,9.1803,9.173,9.0996,9.1106,9.1657,9.0097,9.0445,9.1657,9.0922,9.1106,9.173,9.1803,9.1803,9.1803,9.1803,9.1803,9.1803,9.1803,9.1803,9.1803,9.1803,9.1803,9.1803,9.1803,9.1803,9.1803,9.1803,9.1803,9.1803,9.1803,9.1803,9.1803,9.1803,9.1803,9.1803,9.1803,9.1803,9.2097,9.2978,9.3051,9.3345,9.4189,9.4923,9.5382,9.5418,9.6135,9.6575,9.6575,9.6575,9.6575,9.6575,9.5878,9.5418,9.5382,9.463,9.4226,9.4226,9.4189,9.3786,9.3015,9.3015,9.2611,9.1803,9.1803,9.1803,7.8148,7.9984,8.2076,8.4792,8.7288,8.9124,8.9417,9.0702,9.1657,9.1143,9.1436,9.1803,9.1803,9.2501,9.3015,9.2721,9.3161,9.3235,9.2391,9.2281,9.2134,9.184,9.1803,9.1803,9.1803,9.1803,9.1803,9.1803,9.1803,9.1803,9.1803,9.1326,9.0922,9.0629,9.0097,8.9693,8.94,8.9693,8.995,9.0244,8.995,8.9987,9.028,9.0501,9.0776,9.1033,9.1033,9.1326,9.173,9.0922,9.1069,9.1693,9.0592,9.0519,9.0996,9.0702,9.0776,9.1033,9.1033,9.1363,9.1803,9.1803,9.1803,9.1803,9.1803,9.1803,9.1803,9.1803,9.1803,9.1803,9.1803,9.1803,9.1803,9.1803,9.1803,9.1803,9.1803,9.1803,9.1803,9.1803,9.1803,9.1803,9.1803,9.1803,9.2281,9.3639,9.3418,9.3749,9.5584,9.5658,9.5675,9.6208,9.6539,9.6685,9.6685,9.6685,9.6502,9.5951,9.5639,9.529,9.474,9.4446,9.452,9.507,9.507,9.4685,9.3859,9.3345,9.2941,9.2611,9.206,9.1803,7.6644,7.7928,7.9784,8.3324,8.5013,8.6334,8.85,8.9821,9.0592,9.0592,9.1253,9.1803,9.1803,9.2281,9.2464,9.1877,9.2281,9.2464,9.1877,9.1803,9.1803,9.1803,9.1803,9.1803,9.1803,9.1803,9.1803,9.1803,9.1803,9.1693,9.14,9.0886,9.0372,8.9821,8.8996,8.8702,8.8996,8.8996,8.9143,8.94,8.9143,8.9143,8.94,8.9657,8.9931,9.0207,9.0207,9.0665,9.1326,9.0225,9.0262,9.0886,8.9821,8.9895,9.0537,9.0005,9.0152,9.0592,9.0592,9.0959,9.1436,9.1693,9.1803,9.1803,9.1803,9.1803,9.1803,9.1803,9.1803,9.1803,9.1803,9.1803,9.1803,9.1803,9.1803,9.1803,9.1803,9.1803,9.1803,9.1803,9.2024,9.2244,9.2244,9.2464,9.3015,9.4116,9.4079,9.4483,9.6098,9.6061,9.6098,9.6649,9.6685,9.6685,9.6685,9.6685,9.6465,9.5932,9.5914,9.5658,9.5107,9.5107,9.5364,9.5914,9.5878,9.564,9.5107,9.4042,9.3345,9.3088,9.2207,9.1803,0.0,0.0,0.0,8.1729,8.1986,8.259,8.883,8.9087,8.85,9.0152,9.1106,9.1693,9.1767,9.1803,9.1803,9.1803,9.1803,9.1803,9.1803,9.1803,9.1803,9.1803,9.1803,9.1803,9.1803,9.1803,9.1803,9.1767,9.1767,9.14,9.0629,9.0555,8.9821,8.8206,8.7435,8.7362,8.8169,8.8169,8.8573,8.9326,8.8536,8.8573,8.929,8.8536,8.8647,8.9363,8.9363,8.9803,9.0408,8.883,8.8683,8.9253,8.7675,8.8519,9.0408,8.8867,8.9271,9.0629,9.0629,9.0629,9.0776,9.1546,9.1803,9.1803,9.1803,9.1803,9.1803,9.1803,9.1803,9.1803,9.1803,9.1803,9.1803,9.1803,9.1803,9.1803,9.1803,9.1803,9.1803,9.1803,9.2464,9.3051,9.3051,9.3712,9.4263,9.4299,9.4997,9.5492,9.5528,9.6208,9.6685,9.6685,9.6685,9.6685,9.6685,9.6685,9.6685,9.6685,9.6649,9.6649,9.6685,9.6685,9.6685,9.6685,9.6685,9.6685,9.6649,9.507,9.3896,9.3125,9.2207,9.1803,7.2973,0.0,0.0,0.0,0.0,0.0,8.1525,8.292,8.4646,8.7418,8.8152,8.905,9.1363,9.1803,9.1803,9.1803,9.1803,9.1803,9.1803,9.1803,9.1803,9.1803,9.1803,9.1803,9.1803,9.1803,9.1546,9.0996,9.0922,9.0592,8.9767,8.9197,8.839,8.7362,8.7124,8.7088,8.7325,8.7325,8.7418,8.7675,8.7435,8.7455,8.7675,8.8059,8.8316,8.8536,8.8536,8.8647,8.883,8.839,8.8683,8.9363,8.8923,8.951,9.0555,9.0115,9.0592,9.1363,9.0812,9.0996,9.151,9.173,9.1803,9.1803,9.1803,9.1803,9.1803,9.1803,9.1803,9.1803,9.1803,9.1803,9.1803,9.1803,9.1803,9.1803,9.1803,9.1803,9.1803,9.1803,9.1987,9.217,9.217,9.2868,9.3639,9.4189,9.4997,9.5712,9.6282,9.6575,9.6685,9.6685,9.6685,9.6685,9.6685,9.6171,9.6098,9.6649,9.5621,9.5474,9.6649,9.6135,9.6098,9.6685,9.6685,9.6392,9.5823,9.4777,9.4189,9.3932,9.2464,9.1803,0.0,0.0,0.0,0.0,0.0,0.0,7.9653,8.0681,8.2003,8.4886,8.6023,8.7178,8.9381,9.0372,9.0922,9.1253,9.1583,9.1803,9.1803,9.151,9.1436,9.1767,9.1803,9.1803,9.1803,9.1803,9.1473,9.0665,9.0592,8.9968,8.8482,8.7655,8.6995,8.6518,8.6187,8.6317,8.6978,8.6317,8.6334,8.6978,8.6664,8.6701,8.7014,8.7509,8.7692,8.7692,8.7692,8.7692,8.7692,8.7692,8.7968,8.8409,8.8409,8.8886,8.9601,8.9601,9.0115,9.0776,9.0665,9.0922,9.1363,9.1693,9.1803,9.1803,9.1803,9.1803,9.1803,9.1803,9.1803,9.1803,9.1803,9.1803,9.1803,9.1803,9.1803,9.1803,9.1803,9.1803,9.1803,9.1803,9.2354,9.2831,9.2831,9.3822,9.4777,9.5217,9.5694,9.6171,9.6649,9.6685,9.6685,9.6685,9.6685,9.6685,9.6685,9.6282,9.6208,9.6685,9.5804,9.5731,9.6649,9.6245,9.6208,9.6685,9.6685,9.6135,9.5016,9.452,9.3932,9.3235,9.2244,9.1803,0.0,0.0,0.0,0.0,0.0,0.0,8.0328,8.034,8.0151,8.2401,8.4065,8.5453,8.6554,8.7895,8.9106,8.9803,9.0665,9.14,9.173,9.1179,9.0996,9.1693,9.1803,9.1767,9.1693,9.1657,9.1326,9.0537,9.0372,8.9344,8.6978,8.6187,8.5747,8.5673,8.4976,8.5306,8.6738,8.5306,8.5343,8.6721,8.6114,8.6151,8.6867,8.6941,8.6978,8.6978,8.6978,8.6978,8.6978,8.6978,8.6978,8.7014,8.7088,8.7582,8.8206,8.8316,8.883,8.9657,9.0354,9.0665,9.0849,9.1583,9.1803,9.1803,9.1803,9.1803,9.1803,9.1803,9.1803,9.1803,9.1803,9.1803,9.1803,9.1803,9.1803,9.1803,9.1803,9.1803,9.1803,9.1803,9.2978,9.4006,9.4006,9.5364,9.6392,9.6318,9.6539,9.6685,9.6575,9.6649,9.6685,9.6685,9.6612,9.6575,9.6575,9.6392,9.6355,9.6428,9.6428,9.6465,9.6575,9.6649,9.6685,9.6685,9.6502,9.5768,9.441,9.4263,9.3345,9.1803,9.1803,9.184,0.0,0.0,0.0,0.0,0.0,0.0,7.562,7.6558,7.8071,7.9071,8.0204,8.1835,8.4572,8.5343,8.56,8.5747,8.6995,8.883,9.1436,9.1657,9.162,9.1767,9.1803,9.1546,9.0922,9.0849,9.0501,8.9693,8.905,8.7912,8.6114,8.5894,8.549,8.4866,8.4682,8.4756,8.5086,8.4756,8.4756,8.5086,8.5563,8.5874,8.604,8.6701,8.6978,8.6978,8.6978,8.6978,8.6978,8.6978,8.6978,8.7051,8.7729,8.8059,8.828,8.8923,8.9657,9.0391,9.0555,9.1033,9.1583,9.173,9.1803,9.1803,9.1803,9.1803,9.1803,9.1803,9.1803,9.1803,9.1803,9.1803,9.1803,9.1803,9.1803,9.1803,9.1803,9.1803,9.1803,9.1803,9.206,9.2281,9.2281,9.3675,9.4556,9.3896,9.5474,9.6465,9.5822,9.6318,9.6685,9.6685,9.6135,9.5712,9.5712,9.4556,9.4079,9.474,9.4777,9.507,9.5712,9.6355,9.6685,9.6685,9.5437,9.4923,9.5254,9.3969,9.2794,9.1803,9.1803,9.217,0.0,0.0,0.0,7.6188,0.0,0.0,0.0,7.4744,7.5229,7.6718,7.7539,7.8699,8.1158,8.1929,8.259,8.3801,8.5343,8.6958,8.8573,9.0188,9.1363,9.173,9.1803,9.1473,9.0702,9.0592,9.0115,8.8904,8.8059,8.6921,8.527,8.5196,8.4829,8.4022,8.3618,8.3801,8.4609,8.3801,8.3801,8.4609,8.4609,8.5013,8.582,8.6224,8.6628,8.6978,8.6978,8.6978,8.6978,8.6978,8.6978,8.7014,8.7435,8.7619,8.7692,8.8482,8.905,8.9454,8.984,9.0537,9.1216,9.1216,9.1473,9.1803,9.1803,9.1803,9.1803,9.1803,9.1803,9.1803,9.1803,9.1803,9.1803,9.1803,9.1803,9.1803,9.1803,9.1803,9.1803,9.1803,9.1803,9.195,9.2354,9.3492,9.4153,9.3749,9.474,9.5511,9.5492,9.5859,9.6098,9.6098,9.5731,9.5327,9.4923,9.4153,9.4042,9.485,9.452,9.4666,9.5455,9.5511,9.5511,9.5511,9.4299,9.3896,9.4299,9.3051,9.2464,9.2427,9.1987,9.2024,0.0,0.0,0.0,0.0,0.0,7.5189,0.0,0.0,0.0,7.508,7.5737,7.6451,7.7615,7.8368,7.9393,8.1187,8.3107,8.4403,8.4629,8.7435,8.9748,9.0555,9.0922,9.0776,8.9987,8.9784,8.9197,8.8059,8.7068,8.5967,8.4682,8.4462,8.4022,8.3197,8.2553,8.281,8.4132,8.2847,8.2847,8.4132,8.3638,8.4168,8.5563,8.571,8.6224,8.6978,8.6978,8.6978,8.6978,8.6978,8.6978,8.6978,8.6978,8.6978,8.7088,8.7729,8.8059,8.8316,8.9106,8.9913,9.0592,9.0592,9.1033,9.1583,9.173,9.1803,9.1803,9.1803,9.1803,9.1803,9.1803,9.1803,9.1803,9.1803,9.1803,9.1803,9.1803,9.1803,9.1803,9.1803,9.1803,9.2024,9.2721,9.3529,9.4006,9.3822,9.4079,9.4483,9.4978,9.5161,9.529,9.529,9.5107,9.4795,9.4116,9.3896,9.4079,9.474,9.4336,9.4373,9.5015,9.4556,9.4299,9.4299,9.3529,9.3198,9.3345,9.2464,9.2317,9.2831,9.2281,9.206,0.0,0.0,0.0,0.0,7.8746,0.0,0.0,0.0,7.6194,7.4181,0.0,7.5916,7.5255,0.0,0.0,7.4705,7.7147,7.9468,8.0381,8.3251,8.5563,8.6371,8.7729,8.828,8.7509,8.6775,8.6554,8.7088,8.5747,8.4792,8.4609,8.3911,8.3161,8.237,8.226,8.2296,8.248,8.2296,8.2296,8.248,8.3104,8.3858,8.4756,8.5453,8.6224,8.6978,8.6978,8.6978,8.6978,8.6978,8.6978,8.6978,8.6978,8.6978,8.7014,8.7088,8.7582,8.8316,8.9106,8.9913,9.0592,9.0592,9.0665,9.0886,9.1583,9.1803,9.1803,9.1803,9.1803,9.1803,9.1803,9.1803,9.1803,9.1803,9.1803,9.1803,9.1803,9.1803,9.1803,9.1803,9.1803,9.184,9.1913,9.2648,9.2978,9.2207,9.3345,9.4079,9.3455,9.4006,9.4446,9.4446,9.3786,9.3345,9.3235,9.2537,9.2134,9.2207,9.2868,9.3272,9.3382,9.3969,9.4299,9.4299,9.3529,9.3455,9.4153,9.3345,9.2611,9.195,9.2648,9.2941,0.0,0.0,0.0,0.0,0.0,0.0,7.4282,0.0,7.3515,0.0,0.0,0.0,0.0,0.0,0.0,0.0,7.5694,7.7193,7.8207,8.0351,8.2627,8.4829,8.571,8.5967,8.5637,8.4903,8.4572,8.4886,8.4298,8.3691,8.3214,8.3308,8.3014,8.2223,8.2186,8.2186,8.2186,8.2186,8.2186,8.2186,8.2553,8.3361,8.4609,8.4939,8.582,8.6978,8.6518,8.6591,8.6941,8.6518,8.6591,8.6978,8.6978,8.6978,8.6978,8.6978,8.7198,8.7545,8.7895,8.8519,8.9271,8.973,9.0207,9.0665,9.0996,9.1436,9.1803,9.1803,9.1803,9.1803,9.1803,9.1803,9.1803,9.1803,9.1803,9.1803,9.1803,9.1803,9.1803,9.1803,9.1803,9.1803,9.1803,9.2097,9.2207,9.184,9.2391,9.2905,9.3088,9.3382,9.3602,9.3602,9.3308,9.2905,9.2391,9.2024,9.2024,9.2537,9.2905,9.2868,9.2354,9.2684,9.2831,9.2831,9.2501,9.2501,9.2831,9.2501,9.217,9.184,9.3161,9.3565,7.7876,0.0,0.0,0.0,0.0,0.0,0.0,0.0,0.0,0.0,0.0,0.0,0.0,0.0,0.0,0.0,0.0,7.5207,7.6475,7.7708,7.947,8.226,8.3214,8.3618,8.3618,8.2884,8.259,8.3014,8.2463,8.2039,8.1893,8.2223,8.226,8.1893,8.1636,8.1746,8.2186,8.1966,8.1966,8.2186,8.2186,8.292,8.4278,8.4499,8.5233,8.6334,8.5967,8.6004,8.6334,8.593,8.6151,8.6701,8.6904,8.6978,8.6978,8.6978,8.6978,8.7014,8.7252,8.7729,8.8316,8.9143,8.9657,9.0041,9.0482,9.1033,9.151,9.173,9.1803,9.1803,9.1803,9.1803,9.1803,9.1803,9.1803,9.1803,9.1803,9.1803,9.1803,9.1803,9.1803,9.1803,9.1803,9.1803,9.1803,9.1803,9.1803,9.2024,9.2648,9.2758,9.2758,9.2758,9.2758,9.2501,9.184,9.1803,9.206,9.2721,9.2758,9.2464,9.184,9.1803,9.1803,9.1803,9.1803,9.1913,9.217,9.217,9.2281,9.2501,9.3712,9.3859,0.0,0.0,0.0,7.5968,0.0,0.0,0.0,0.0,7.4138,0.0,0.0,0.0,0.0,0.0,0.0,0.0,0.0,0.0,0.0,7.5014,7.5674,7.7362,7.9638,8.1122,8.1122,8.0388,8.055,8.2113,8.0057,7.9433,8.0975,8.0314,8.0241,8.1012,8.0277,8.0624,8.2186,8.1415,8.1415,8.2186,8.2186,8.2627,8.3454,8.4242,8.4646,8.4719,8.5453,8.538,8.4756,8.549,8.582,8.593,8.6701,8.6978,8.6978,8.6978,8.6978,8.7088,8.7876,8.8169,8.8316,8.9143,8.8886,8.8573,9.0152,9.0629,9.0812,9.1583,9.1803,9.1803,9.1803,9.1803,9.1803,9.1803,9.1803,9.1803,9.1803,9.1803,9.1803,9.1803,9.1803,9.1803,9.1803,9.1803,9.1803,9.1803,9.1803,9.1803,9.184,9.184,9.184,9.184,9.184,9.184,9.1803,9.1803,9.1803,9.184,9.184,9.184,9.1803,9.1803,9.1803,9.1803,9.1803,9.2207,9.3051,9.3051,9.3455,9.4226,9.4263,9.3859,0.0,0.0,8.0277,7.7252,0.0,0.0,0.0,0.0,0.0,0.0,0.0,0.0,0.0,0.0,0.0,0.0,0.0,0.0,0.0,7.3143,7.2818,7.3877,7.6684,7.8794,7.936,7.8662,7.8626,7.9727,7.8552,7.8206,7.936,7.9653,8.0183,8.0975,8.0755,8.1122,8.2186,8.1929,8.1929,8.2186,8.2186,8.2884,8.4205,8.4499,8.4903,8.538,8.5123,8.5159,8.538,8.5123,8.5637,8.6628,8.6867,8.6978,8.6978,8.6978,8.6978,8.7014,8.7325,8.7766,8.8169,8.7895,8.8335,8.8996,8.9014,8.9748,9.0665,9.0922,9.14,9.1803,9.1803,9.1803,9.1803,9.1803,9.1803,9.1803,9.1803,9.1803,9.1803,9.1803,9.1803,9.1803,9.1803,9.1803,9.1803,9.1803,9.1803,9.1803,9.1803,9.1803,9.1803,9.1803,9.1803,9.1803,9.1803,9.1803,9.1803,9.1803,9.1803,9.1803,9.1803,9.1803,9.1803,9.1803,9.1803,9.195,9.2244,9.2831,9.2941,9.2684,9.4336,9.496,7.8516,7.936,0.0,7.768,7.668,0.0,7.311,0.0,0.0,0.0,0.0,0.0,0.0,0.0,0.0,0.0,0.0,0.0,0.0,7.1479,7.1464,7.2263,7.4502,7.6423,7.7604,7.7194,7.7105,7.7671,7.7179,7.7105,7.7671,7.8479,7.9286,8.0131,8.0167,8.0534,8.1358,8.1636,8.1782,8.1782,8.2039,8.2737,8.3765,8.4058,8.4315,8.4515,8.4278,8.4315,8.4499,8.4278,8.4939,8.617,8.6481,8.6775,8.6978,8.6978,8.6978,8.7014,8.7325,8.7582,8.7729,8.7509,8.7932,8.8556,8.8592,8.9326,9.028,9.0886,9.14,9.1803,9.1803,9.1803,9.1803,9.1803,9.1803,9.1803,9.1803,9.1803,9.1803,9.1803,9.1803,9.1803,9.1803,9.1803,9.1803,9.1803,9.1803,9.1803,9.1803,9.1803,9.1803,9.1803,9.1803,9.1803,9.1803,9.1803,9.1803,9.1803,9.1803,9.1803,9.1803,9.1803,9.2354,9.3529,9.2391,9.2501,9.3969,9.3051,9.2794,9.3125,9.4189,9.5088]}]]